<?xml version="1.0" encoding="UTF-8" standalone="no" ?>
<gpx xmlns="http://www.topografix.com/GPX/1/1" xmlns:xsi="http://www.w3.org/2001/XMLSchema-instance" xsi:schemaLocation="http://www.topografix.com/GPX/1/1 http://www.topografix.com/GPX/1/1/gpx.xsd" version="1.1" creator="VisuGPX - https://www.visugpx.com">
  <metadata>
    <name>boucle col de richemond - Cuvery </name>
    <desc><![CDATA[depart au sommet du col de richemond , puis suivre la direction Planvanel .
passer a la croix des terments , monte vers la grange a lucien puis direction le grand tumet , suivre le chemin blanc jusqu a Cuvery .
En face de l aubrege de Cuvery direction la ferme de retord , puis de nouveau la grange a lucien , redescendre sur les plans d hautones , repasser devant la croix des terments et rentrer au col de richemond par le golet truffet .   ]]></desc>
  </metadata>
  <trk>
    <name><![CDATA[Tracé actuel: 31 MAI 2020 09:00]]></name>
    <trkseg>
      <trkpt lat="46.00934" lon="5.74741">
        <ele>1024.9</ele>
        <time>2020-05-31T07:00:42Z</time>
      </trkpt>
      <trkpt lat="46.00935" lon="5.74749">
        <ele>1022.5</ele>
        <time>2020-05-31T07:01:10Z</time>
      </trkpt>
      <trkpt lat="46.00934" lon="5.74749">
        <ele>1024.42</ele>
        <time>2020-05-31T07:01:31Z</time>
      </trkpt>
      <trkpt lat="46.00933" lon="5.74745">
        <ele>1021.06</ele>
        <time>2020-05-31T07:01:52Z</time>
      </trkpt>
      <trkpt lat="46.00934" lon="5.74744">
        <ele>1023.46</ele>
        <time>2020-05-31T07:02:13Z</time>
      </trkpt>
      <trkpt lat="46.00934" lon="5.74745">
        <ele>1023.46</ele>
        <time>2020-05-31T07:02:15Z</time>
      </trkpt>
      <trkpt lat="46.00942" lon="5.74746">
        <ele>1023.94</ele>
        <time>2020-05-31T07:02:22Z</time>
      </trkpt>
      <trkpt lat="46.00944" lon="5.74744">
        <ele>1023.94</ele>
        <time>2020-05-31T07:02:23Z</time>
      </trkpt>
      <trkpt lat="46.00947" lon="5.74742">
        <ele>1023.94</ele>
        <time>2020-05-31T07:02:24Z</time>
      </trkpt>
      <trkpt lat="46.00994" lon="5.74709">
        <ele>1023.94</ele>
        <time>2020-05-31T07:02:35Z</time>
      </trkpt>
      <trkpt lat="46.00998" lon="5.74704">
        <ele>1023.94</ele>
        <time>2020-05-31T07:02:36Z</time>
      </trkpt>
      <trkpt lat="46.01002" lon="5.74698">
        <ele>1023.94</ele>
        <time>2020-05-31T07:02:37Z</time>
      </trkpt>
      <trkpt lat="46.01004" lon="5.74691">
        <ele>1023.94</ele>
        <time>2020-05-31T07:02:38Z</time>
      </trkpt>
      <trkpt lat="46.01006" lon="5.74684">
        <ele>1023.46</ele>
        <time>2020-05-31T07:02:39Z</time>
      </trkpt>
      <trkpt lat="46.0102" lon="5.74647">
        <ele>1023.46</ele>
        <time>2020-05-31T07:02:48Z</time>
      </trkpt>
      <trkpt lat="46.01034" lon="5.74635">
        <ele>1025.86</ele>
        <time>2020-05-31T07:03:00Z</time>
      </trkpt>
      <trkpt lat="46.01038" lon="5.74634">
        <ele>1027.31</ele>
        <time>2020-05-31T07:03:02Z</time>
      </trkpt>
      <trkpt lat="46.01039" lon="5.74632">
        <ele>1027.79</ele>
        <time>2020-05-31T07:03:03Z</time>
      </trkpt>
      <trkpt lat="46.01051" lon="5.74624">
        <ele>1031.63</ele>
        <time>2020-05-31T07:03:11Z</time>
      </trkpt>
      <trkpt lat="46.01052" lon="5.74622">
        <ele>1032.11</ele>
        <time>2020-05-31T07:03:12Z</time>
      </trkpt>
      <trkpt lat="46.0107" lon="5.74592">
        <ele>1039.8</ele>
        <time>2020-05-31T07:03:25Z</time>
      </trkpt>
      <trkpt lat="46.01078" lon="5.74581">
        <ele>1041.73</ele>
        <time>2020-05-31T07:03:31Z</time>
      </trkpt>
      <trkpt lat="46.01079" lon="5.74579">
        <ele>1041.73</ele>
        <time>2020-05-31T07:03:32Z</time>
      </trkpt>
      <trkpt lat="46.0108" lon="5.74577">
        <ele>1042.21</ele>
        <time>2020-05-31T07:03:33Z</time>
      </trkpt>
      <trkpt lat="46.01081" lon="5.74575">
        <ele>1043.17</ele>
        <time>2020-05-31T07:03:34Z</time>
      </trkpt>
      <trkpt lat="46.01082" lon="5.74574">
        <ele>1043.65</ele>
        <time>2020-05-31T07:03:35Z</time>
      </trkpt>
      <trkpt lat="46.01084" lon="5.74572">
        <ele>1044.61</ele>
        <time>2020-05-31T07:03:36Z</time>
      </trkpt>
      <trkpt lat="46.01098" lon="5.74552">
        <ele>1051.34</ele>
        <time>2020-05-31T07:03:48Z</time>
      </trkpt>
      <trkpt lat="46.01111" lon="5.7454">
        <ele>1054.7</ele>
        <time>2020-05-31T07:03:58Z</time>
      </trkpt>
      <trkpt lat="46.01112" lon="5.74539">
        <ele>1054.7</ele>
        <time>2020-05-31T07:03:59Z</time>
      </trkpt>
      <trkpt lat="46.01129" lon="5.74524">
        <ele>1057.59</ele>
        <time>2020-05-31T07:04:12Z</time>
      </trkpt>
      <trkpt lat="46.01137" lon="5.7451">
        <ele>1060.95</ele>
        <time>2020-05-31T07:04:22Z</time>
      </trkpt>
      <trkpt lat="46.01157" lon="5.7449">
        <ele>1071.05</ele>
        <time>2020-05-31T07:04:35Z</time>
      </trkpt>
      <trkpt lat="46.01165" lon="5.7448">
        <ele>1076.33</ele>
        <time>2020-05-31T07:04:41Z</time>
      </trkpt>
      <trkpt lat="46.01183" lon="5.7446">
        <ele>1087.39</ele>
        <time>2020-05-31T07:04:55Z</time>
      </trkpt>
      <trkpt lat="46.01187" lon="5.74459">
        <ele>1088.83</ele>
        <time>2020-05-31T07:04:58Z</time>
      </trkpt>
      <trkpt lat="46.01202" lon="5.74456">
        <ele>1092.2</ele>
        <time>2020-05-31T07:05:10Z</time>
      </trkpt>
      <trkpt lat="46.01225" lon="5.7446">
        <ele>1092.68</ele>
        <time>2020-05-31T07:05:22Z</time>
      </trkpt>
      <trkpt lat="46.01232" lon="5.74461">
        <ele>1093.16</ele>
        <time>2020-05-31T07:05:25Z</time>
      </trkpt>
      <trkpt lat="46.01249" lon="5.74461">
        <ele>1097</ele>
        <time>2020-05-31T07:05:37Z</time>
      </trkpt>
      <trkpt lat="46.01264" lon="5.74461">
        <ele>1102.29</ele>
        <time>2020-05-31T07:05:48Z</time>
      </trkpt>
      <trkpt lat="46.01287" lon="5.74462">
        <ele>1108.06</ele>
        <time>2020-05-31T07:06:02Z</time>
      </trkpt>
      <trkpt lat="46.01304" lon="5.74461">
        <ele>1112.86</ele>
        <time>2020-05-31T07:06:14Z</time>
      </trkpt>
      <trkpt lat="46.01332" lon="5.74456">
        <ele>1116.23</ele>
        <time>2020-05-31T07:06:28Z</time>
      </trkpt>
      <trkpt lat="46.01357" lon="5.74451">
        <ele>1110.94</ele>
        <time>2020-05-31T07:06:42Z</time>
      </trkpt>
      <trkpt lat="46.01376" lon="5.74443">
        <ele>1109.02</ele>
        <time>2020-05-31T07:06:54Z</time>
      </trkpt>
      <trkpt lat="46.01398" lon="5.74431">
        <ele>1109.02</ele>
        <time>2020-05-31T07:07:07Z</time>
      </trkpt>
      <trkpt lat="46.01416" lon="5.74423">
        <ele>1112.86</ele>
        <time>2020-05-31T07:07:22Z</time>
      </trkpt>
      <trkpt lat="46.01436" lon="5.74418">
        <ele>1119.59</ele>
        <time>2020-05-31T07:07:36Z</time>
      </trkpt>
      <trkpt lat="46.01462" lon="5.74408">
        <ele>1124.88</ele>
        <time>2020-05-31T07:07:49Z</time>
      </trkpt>
      <trkpt lat="46.01464" lon="5.74407">
        <ele>1125.36</ele>
        <time>2020-05-31T07:07:50Z</time>
      </trkpt>
      <trkpt lat="46.01465" lon="5.74406">
        <ele>1125.84</ele>
        <time>2020-05-31T07:07:51Z</time>
      </trkpt>
      <trkpt lat="46.01479" lon="5.74402">
        <ele>1130.17</ele>
        <time>2020-05-31T07:08:01Z</time>
      </trkpt>
      <trkpt lat="46.015" lon="5.74399">
        <ele>1134.01</ele>
        <time>2020-05-31T07:08:13Z</time>
      </trkpt>
      <trkpt lat="46.01525" lon="5.74394">
        <ele>1137.38</ele>
        <time>2020-05-31T07:08:26Z</time>
      </trkpt>
      <trkpt lat="46.01527" lon="5.74394">
        <ele>1137.38</ele>
        <time>2020-05-31T07:08:27Z</time>
      </trkpt>
      <trkpt lat="46.01551" lon="5.74386">
        <ele>1140.74</ele>
        <time>2020-05-31T07:08:40Z</time>
      </trkpt>
      <trkpt lat="46.01561" lon="5.74381">
        <ele>1140.74</ele>
        <time>2020-05-31T07:08:45Z</time>
      </trkpt>
      <trkpt lat="46.01594" lon="5.74371">
        <ele>1146.51</ele>
        <time>2020-05-31T07:09:00Z</time>
      </trkpt>
      <trkpt lat="46.01635" lon="5.74361">
        <ele>1134.49</ele>
        <time>2020-05-31T07:09:16Z</time>
      </trkpt>
      <trkpt lat="46.01647" lon="5.74359">
        <ele>1127.28</ele>
        <time>2020-05-31T07:09:21Z</time>
      </trkpt>
      <trkpt lat="46.01648" lon="5.74358">
        <ele>1127.28</ele>
        <time>2020-05-31T07:09:22Z</time>
      </trkpt>
      <trkpt lat="46.01649" lon="5.74358">
        <ele>1127.28</ele>
        <time>2020-05-31T07:09:23Z</time>
      </trkpt>
      <trkpt lat="46.0165" lon="5.74357">
        <ele>1127.28</ele>
        <time>2020-05-31T07:09:24Z</time>
      </trkpt>
      <trkpt lat="46.01652" lon="5.74356">
        <ele>1127.28</ele>
        <time>2020-05-31T07:09:26Z</time>
      </trkpt>
      <trkpt lat="46.01653" lon="5.74355">
        <ele>1126.8</ele>
        <time>2020-05-31T07:09:27Z</time>
      </trkpt>
      <trkpt lat="46.01655" lon="5.74354">
        <ele>1126.8</ele>
        <time>2020-05-31T07:09:28Z</time>
      </trkpt>
      <trkpt lat="46.01656" lon="5.74353">
        <ele>1126.32</ele>
        <time>2020-05-31T07:09:29Z</time>
      </trkpt>
      <trkpt lat="46.01657" lon="5.74352">
        <ele>1126.32</ele>
        <time>2020-05-31T07:09:30Z</time>
      </trkpt>
      <trkpt lat="46.01659" lon="5.74351">
        <ele>1125.84</ele>
        <time>2020-05-31T07:09:31Z</time>
      </trkpt>
      <trkpt lat="46.01661" lon="5.7435">
        <ele>1125.36</ele>
        <time>2020-05-31T07:09:32Z</time>
      </trkpt>
      <trkpt lat="46.01663" lon="5.74349">
        <ele>1125.36</ele>
        <time>2020-05-31T07:09:33Z</time>
      </trkpt>
      <trkpt lat="46.01665" lon="5.74348">
        <ele>1124.88</ele>
        <time>2020-05-31T07:09:34Z</time>
      </trkpt>
      <trkpt lat="46.01669" lon="5.74347">
        <ele>1123.44</ele>
        <time>2020-05-31T07:09:35Z</time>
      </trkpt>
      <trkpt lat="46.01671" lon="5.74346">
        <ele>1122.48</ele>
        <time>2020-05-31T07:09:36Z</time>
      </trkpt>
      <trkpt lat="46.01674" lon="5.74345">
        <ele>1121.52</ele>
        <time>2020-05-31T07:09:37Z</time>
      </trkpt>
      <trkpt lat="46.01676" lon="5.74343">
        <ele>1121.03</ele>
        <time>2020-05-31T07:09:38Z</time>
      </trkpt>
      <trkpt lat="46.01677" lon="5.74341">
        <ele>1120.55</ele>
        <time>2020-05-31T07:09:39Z</time>
      </trkpt>
      <trkpt lat="46.0168" lon="5.74339">
        <ele>1119.11</ele>
        <time>2020-05-31T07:09:40Z</time>
      </trkpt>
      <trkpt lat="46.01698" lon="5.7431">
        <ele>1107.58</ele>
        <time>2020-05-31T07:09:54Z</time>
      </trkpt>
      <trkpt lat="46.01709" lon="5.74278">
        <ele>1103.25</ele>
        <time>2020-05-31T07:10:06Z</time>
      </trkpt>
      <trkpt lat="46.01717" lon="5.74263">
        <ele>1104.21</ele>
        <time>2020-05-31T07:10:11Z</time>
      </trkpt>
      <trkpt lat="46.01718" lon="5.74259">
        <ele>1104.21</ele>
        <time>2020-05-31T07:10:12Z</time>
      </trkpt>
      <trkpt lat="46.01719" lon="5.74255">
        <ele>1104.21</ele>
        <time>2020-05-31T07:10:13Z</time>
      </trkpt>
      <trkpt lat="46.0172" lon="5.74251">
        <ele>1103.73</ele>
        <time>2020-05-31T07:10:14Z</time>
      </trkpt>
      <trkpt lat="46.01721" lon="5.74247">
        <ele>1103.25</ele>
        <time>2020-05-31T07:10:15Z</time>
      </trkpt>
      <trkpt lat="46.01722" lon="5.74244">
        <ele>1103.25</ele>
        <time>2020-05-31T07:10:16Z</time>
      </trkpt>
      <trkpt lat="46.01723" lon="5.7424">
        <ele>1102.77</ele>
        <time>2020-05-31T07:10:17Z</time>
      </trkpt>
      <trkpt lat="46.01741" lon="5.74199">
        <ele>1098.92</ele>
        <time>2020-05-31T07:10:29Z</time>
      </trkpt>
      <trkpt lat="46.01772" lon="5.74164">
        <ele>1094.6</ele>
        <time>2020-05-31T07:10:45Z</time>
      </trkpt>
      <trkpt lat="46.0179" lon="5.74163">
        <ele>1097.48</ele>
        <time>2020-05-31T07:10:57Z</time>
      </trkpt>
      <trkpt lat="46.01814" lon="5.74164">
        <ele>1098.92</ele>
        <time>2020-05-31T07:11:10Z</time>
      </trkpt>
      <trkpt lat="46.01836" lon="5.7416">
        <ele>1101.33</ele>
        <time>2020-05-31T07:11:22Z</time>
      </trkpt>
      <trkpt lat="46.01854" lon="5.74154">
        <ele>1103.73</ele>
        <time>2020-05-31T07:11:32Z</time>
      </trkpt>
      <trkpt lat="46.01881" lon="5.74142">
        <ele>1104.21</ele>
        <time>2020-05-31T07:11:44Z</time>
      </trkpt>
      <trkpt lat="46.01912" lon="5.74117">
        <ele>1105.17</ele>
        <time>2020-05-31T07:11:59Z</time>
      </trkpt>
      <trkpt lat="46.01936" lon="5.74082">
        <ele>1106.13</ele>
        <time>2020-05-31T07:12:13Z</time>
      </trkpt>
      <trkpt lat="46.01944" lon="5.74075">
        <ele>1108.06</ele>
        <time>2020-05-31T07:12:17Z</time>
      </trkpt>
      <trkpt lat="46.01946" lon="5.74073">
        <ele>1108.54</ele>
        <time>2020-05-31T07:12:18Z</time>
      </trkpt>
      <trkpt lat="46.01948" lon="5.74071">
        <ele>1108.54</ele>
        <time>2020-05-31T07:12:19Z</time>
      </trkpt>
      <trkpt lat="46.01949" lon="5.74069">
        <ele>1109.02</ele>
        <time>2020-05-31T07:12:20Z</time>
      </trkpt>
      <trkpt lat="46.01951" lon="5.74067">
        <ele>1109.02</ele>
        <time>2020-05-31T07:12:21Z</time>
      </trkpt>
      <trkpt lat="46.01955" lon="5.74061">
        <ele>1110.46</ele>
        <time>2020-05-31T07:12:24Z</time>
      </trkpt>
      <trkpt lat="46.01956" lon="5.74059">
        <ele>1110.94</ele>
        <time>2020-05-31T07:12:25Z</time>
      </trkpt>
      <trkpt lat="46.01972" lon="5.74037">
        <ele>1113.82</ele>
        <time>2020-05-31T07:12:36Z</time>
      </trkpt>
      <trkpt lat="46.01997" lon="5.74006">
        <ele>1116.23</ele>
        <time>2020-05-31T07:12:50Z</time>
      </trkpt>
      <trkpt lat="46.02022" lon="5.73979">
        <ele>1115.75</ele>
        <time>2020-05-31T07:13:04Z</time>
      </trkpt>
      <trkpt lat="46.02041" lon="5.73944">
        <ele>1119.11</ele>
        <time>2020-05-31T07:13:16Z</time>
      </trkpt>
      <trkpt lat="46.0205" lon="5.73904">
        <ele>1123.92</ele>
        <time>2020-05-31T07:13:29Z</time>
      </trkpt>
      <trkpt lat="46.0206" lon="5.73847">
        <ele>1130.17</ele>
        <time>2020-05-31T07:13:44Z</time>
      </trkpt>
      <trkpt lat="46.02068" lon="5.73811">
        <ele>1133.05</ele>
        <time>2020-05-31T07:13:57Z</time>
      </trkpt>
      <trkpt lat="46.0208" lon="5.73777">
        <ele>1134.97</ele>
        <time>2020-05-31T07:14:09Z</time>
      </trkpt>
      <trkpt lat="46.02091" lon="5.73737">
        <ele>1127.76</ele>
        <time>2020-05-31T07:14:24Z</time>
      </trkpt>
      <trkpt lat="46.02103" lon="5.73693">
        <ele>1127.28</ele>
        <time>2020-05-31T07:14:43Z</time>
      </trkpt>
      <trkpt lat="46.02114" lon="5.73665">
        <ele>1127.76</ele>
        <time>2020-05-31T07:14:56Z</time>
      </trkpt>
      <trkpt lat="46.02116" lon="5.73659">
        <ele>1128.24</ele>
        <time>2020-05-31T07:14:59Z</time>
      </trkpt>
      <trkpt lat="46.02116" lon="5.73658">
        <ele>1128.73</ele>
        <time>2020-05-31T07:15:00Z</time>
      </trkpt>
      <trkpt lat="46.02117" lon="5.73656">
        <ele>1128.73</ele>
        <time>2020-05-31T07:15:01Z</time>
      </trkpt>
      <trkpt lat="46.02118" lon="5.73654">
        <ele>1129.21</ele>
        <time>2020-05-31T07:15:02Z</time>
      </trkpt>
      <trkpt lat="46.02119" lon="5.73652">
        <ele>1129.21</ele>
        <time>2020-05-31T07:15:03Z</time>
      </trkpt>
      <trkpt lat="46.02137" lon="5.73622">
        <ele>1132.57</ele>
        <time>2020-05-31T07:15:18Z</time>
      </trkpt>
      <trkpt lat="46.02137" lon="5.73619">
        <ele>1133.05</ele>
        <time>2020-05-31T07:15:34Z</time>
      </trkpt>
      <trkpt lat="46.02136" lon="5.73617">
        <ele>1135.45</ele>
        <time>2020-05-31T07:15:57Z</time>
      </trkpt>
      <trkpt lat="46.02135" lon="5.73617">
        <ele>1136.42</ele>
        <time>2020-05-31T07:16:25Z</time>
      </trkpt>
      <trkpt lat="46.02137" lon="5.73615">
        <ele>1139.3</ele>
        <time>2020-05-31T07:16:53Z</time>
      </trkpt>
      <trkpt lat="46.02138" lon="5.73617">
        <ele>1139.78</ele>
        <time>2020-05-31T07:17:11Z</time>
      </trkpt>
      <trkpt lat="46.02162" lon="5.73625">
        <ele>1139.3</ele>
        <time>2020-05-31T07:17:24Z</time>
      </trkpt>
      <trkpt lat="46.02185" lon="5.73651">
        <ele>1139.3</ele>
        <time>2020-05-31T07:17:37Z</time>
      </trkpt>
      <trkpt lat="46.02191" lon="5.73702">
        <ele>1137.38</ele>
        <time>2020-05-31T07:17:51Z</time>
      </trkpt>
      <trkpt lat="46.02218" lon="5.7375">
        <ele>1134.49</ele>
        <time>2020-05-31T07:18:03Z</time>
      </trkpt>
      <trkpt lat="46.02244" lon="5.73821">
        <ele>1131.61</ele>
        <time>2020-05-31T07:18:12Z</time>
      </trkpt>
      <trkpt lat="46.02245" lon="5.73829">
        <ele>1131.13</ele>
        <time>2020-05-31T07:18:13Z</time>
      </trkpt>
      <trkpt lat="46.02245" lon="5.73838">
        <ele>1130.65</ele>
        <time>2020-05-31T07:18:14Z</time>
      </trkpt>
      <trkpt lat="46.02245" lon="5.73846">
        <ele>1130.17</ele>
        <time>2020-05-31T07:18:15Z</time>
      </trkpt>
      <trkpt lat="46.02245" lon="5.73853">
        <ele>1129.21</ele>
        <time>2020-05-31T07:18:16Z</time>
      </trkpt>
      <trkpt lat="46.02243" lon="5.73886">
        <ele>1126.8</ele>
        <time>2020-05-31T07:18:20Z</time>
      </trkpt>
      <trkpt lat="46.02244" lon="5.73894">
        <ele>1126.32</ele>
        <time>2020-05-31T07:18:21Z</time>
      </trkpt>
      <trkpt lat="46.02246" lon="5.73901">
        <ele>1125.36</ele>
        <time>2020-05-31T07:18:22Z</time>
      </trkpt>
      <trkpt lat="46.02248" lon="5.73907">
        <ele>1124.88</ele>
        <time>2020-05-31T07:18:23Z</time>
      </trkpt>
      <trkpt lat="46.02251" lon="5.73912">
        <ele>1123.92</ele>
        <time>2020-05-31T07:18:24Z</time>
      </trkpt>
      <trkpt lat="46.02255" lon="5.73916">
        <ele>1123.44</ele>
        <time>2020-05-31T07:18:25Z</time>
      </trkpt>
      <trkpt lat="46.0226" lon="5.73921">
        <ele>1122.48</ele>
        <time>2020-05-31T07:18:26Z</time>
      </trkpt>
      <trkpt lat="46.02266" lon="5.73926">
        <ele>1122</ele>
        <time>2020-05-31T07:18:27Z</time>
      </trkpt>
      <trkpt lat="46.02274" lon="5.73931">
        <ele>1121.52</ele>
        <time>2020-05-31T07:18:28Z</time>
      </trkpt>
      <trkpt lat="46.02282" lon="5.73934">
        <ele>1121.03</ele>
        <time>2020-05-31T07:18:29Z</time>
      </trkpt>
      <trkpt lat="46.0229" lon="5.73937">
        <ele>1121.03</ele>
        <time>2020-05-31T07:18:30Z</time>
      </trkpt>
      <trkpt lat="46.02298" lon="5.73939">
        <ele>1120.55</ele>
        <time>2020-05-31T07:18:31Z</time>
      </trkpt>
      <trkpt lat="46.02305" lon="5.73938">
        <ele>1120.07</ele>
        <time>2020-05-31T07:18:32Z</time>
      </trkpt>
      <trkpt lat="46.02313" lon="5.73934">
        <ele>1119.59</ele>
        <time>2020-05-31T07:18:33Z</time>
      </trkpt>
      <trkpt lat="46.0232" lon="5.73931">
        <ele>1119.11</ele>
        <time>2020-05-31T07:18:34Z</time>
      </trkpt>
      <trkpt lat="46.02358" lon="5.73903">
        <ele>1114.79</ele>
        <time>2020-05-31T07:18:41Z</time>
      </trkpt>
      <trkpt lat="46.02367" lon="5.73893">
        <ele>1113.82</ele>
        <time>2020-05-31T07:18:43Z</time>
      </trkpt>
      <trkpt lat="46.02372" lon="5.7389">
        <ele>1113.34</ele>
        <time>2020-05-31T07:18:44Z</time>
      </trkpt>
      <trkpt lat="46.02376" lon="5.73888">
        <ele>1112.86</ele>
        <time>2020-05-31T07:18:45Z</time>
      </trkpt>
      <trkpt lat="46.0238" lon="5.73889">
        <ele>1111.9</ele>
        <time>2020-05-31T07:18:46Z</time>
      </trkpt>
      <trkpt lat="46.02384" lon="5.73891">
        <ele>1111.42</ele>
        <time>2020-05-31T07:18:47Z</time>
      </trkpt>
      <trkpt lat="46.02387" lon="5.73895">
        <ele>1110.94</ele>
        <time>2020-05-31T07:18:48Z</time>
      </trkpt>
      <trkpt lat="46.02389" lon="5.73898">
        <ele>1110.46</ele>
        <time>2020-05-31T07:18:49Z</time>
      </trkpt>
      <trkpt lat="46.0239" lon="5.73902">
        <ele>1109.98</ele>
        <time>2020-05-31T07:18:50Z</time>
      </trkpt>
      <trkpt lat="46.02392" lon="5.73909">
        <ele>1109.5</ele>
        <time>2020-05-31T07:18:51Z</time>
      </trkpt>
      <trkpt lat="46.02395" lon="5.73917">
        <ele>1108.54</ele>
        <time>2020-05-31T07:18:52Z</time>
      </trkpt>
      <trkpt lat="46.02397" lon="5.73926">
        <ele>1108.06</ele>
        <time>2020-05-31T07:18:53Z</time>
      </trkpt>
      <trkpt lat="46.0241" lon="5.74016">
        <ele>1098.44</ele>
        <time>2020-05-31T07:19:05Z</time>
      </trkpt>
      <trkpt lat="46.0241" lon="5.74022">
        <ele>1097.48</ele>
        <time>2020-05-31T07:19:06Z</time>
      </trkpt>
      <trkpt lat="46.0241" lon="5.74029">
        <ele>1097</ele>
        <time>2020-05-31T07:19:07Z</time>
      </trkpt>
      <trkpt lat="46.02408" lon="5.74036">
        <ele>1096.04</ele>
        <time>2020-05-31T07:19:08Z</time>
      </trkpt>
      <trkpt lat="46.02405" lon="5.74044">
        <ele>1094.6</ele>
        <time>2020-05-31T07:19:09Z</time>
      </trkpt>
      <trkpt lat="46.02401" lon="5.74051">
        <ele>1093.64</ele>
        <time>2020-05-31T07:19:10Z</time>
      </trkpt>
      <trkpt lat="46.02396" lon="5.74057">
        <ele>1092.68</ele>
        <time>2020-05-31T07:19:11Z</time>
      </trkpt>
      <trkpt lat="46.02392" lon="5.74063">
        <ele>1091.23</ele>
        <time>2020-05-31T07:19:12Z</time>
      </trkpt>
      <trkpt lat="46.0239" lon="5.74069">
        <ele>1090.75</ele>
        <time>2020-05-31T07:19:13Z</time>
      </trkpt>
      <trkpt lat="46.02388" lon="5.74076">
        <ele>1088.83</ele>
        <time>2020-05-31T07:19:15Z</time>
      </trkpt>
      <trkpt lat="46.02393" lon="5.74082">
        <ele>1090.27</ele>
        <time>2020-05-31T07:19:28Z</time>
      </trkpt>
      <trkpt lat="46.02395" lon="5.74083">
        <ele>1090.75</ele>
        <time>2020-05-31T07:19:32Z</time>
      </trkpt>
      <trkpt lat="46.02405" lon="5.74082">
        <ele>1093.16</ele>
        <time>2020-05-31T07:19:40Z</time>
      </trkpt>
      <trkpt lat="46.02406" lon="5.74081">
        <ele>1093.64</ele>
        <time>2020-05-31T07:19:41Z</time>
      </trkpt>
      <trkpt lat="46.02407" lon="5.74079">
        <ele>1093.64</ele>
        <time>2020-05-31T07:19:42Z</time>
      </trkpt>
      <trkpt lat="46.02415" lon="5.74071">
        <ele>1095.56</ele>
        <time>2020-05-31T07:19:49Z</time>
      </trkpt>
      <trkpt lat="46.02417" lon="5.7407">
        <ele>1095.56</ele>
        <time>2020-05-31T07:19:50Z</time>
      </trkpt>
      <trkpt lat="46.02419" lon="5.74069">
        <ele>1095.56</ele>
        <time>2020-05-31T07:19:51Z</time>
      </trkpt>
      <trkpt lat="46.02421" lon="5.74068">
        <ele>1095.56</ele>
        <time>2020-05-31T07:19:52Z</time>
      </trkpt>
      <trkpt lat="46.02423" lon="5.74067">
        <ele>1095.56</ele>
        <time>2020-05-31T07:19:53Z</time>
      </trkpt>
      <trkpt lat="46.02425" lon="5.74066">
        <ele>1095.56</ele>
        <time>2020-05-31T07:19:54Z</time>
      </trkpt>
      <trkpt lat="46.02455" lon="5.74035">
        <ele>1101.81</ele>
        <time>2020-05-31T07:20:09Z</time>
      </trkpt>
      <trkpt lat="46.02485" lon="5.74016">
        <ele>1109.5</ele>
        <time>2020-05-31T07:20:21Z</time>
      </trkpt>
      <trkpt lat="46.02514" lon="5.74">
        <ele>1113.82</ele>
        <time>2020-05-31T07:20:35Z</time>
      </trkpt>
      <trkpt lat="46.02534" lon="5.73993">
        <ele>1117.19</ele>
        <time>2020-05-31T07:20:46Z</time>
      </trkpt>
      <trkpt lat="46.02555" lon="5.73985">
        <ele>1126.32</ele>
        <time>2020-05-31T07:20:55Z</time>
      </trkpt>
      <trkpt lat="46.02587" lon="5.73979">
        <ele>1142.18</ele>
        <time>2020-05-31T07:21:07Z</time>
      </trkpt>
      <trkpt lat="46.02589" lon="5.73979">
        <ele>1142.66</ele>
        <time>2020-05-31T07:21:08Z</time>
      </trkpt>
      <trkpt lat="46.02591" lon="5.73978">
        <ele>1143.63</ele>
        <time>2020-05-31T07:21:09Z</time>
      </trkpt>
      <trkpt lat="46.02594" lon="5.73977">
        <ele>1144.11</ele>
        <time>2020-05-31T07:21:10Z</time>
      </trkpt>
      <trkpt lat="46.02623" lon="5.73964">
        <ele>1154.2</ele>
        <time>2020-05-31T07:21:22Z</time>
      </trkpt>
      <trkpt lat="46.02649" lon="5.7396">
        <ele>1164.29</ele>
        <time>2020-05-31T07:21:33Z</time>
      </trkpt>
      <trkpt lat="46.02674" lon="5.73954">
        <ele>1173.91</ele>
        <time>2020-05-31T07:21:43Z</time>
      </trkpt>
      <trkpt lat="46.02716" lon="5.7395">
        <ele>1185.44</ele>
        <time>2020-05-31T07:21:57Z</time>
      </trkpt>
      <trkpt lat="46.02729" lon="5.73949">
        <ele>1189.29</ele>
        <time>2020-05-31T07:22:02Z</time>
      </trkpt>
      <trkpt lat="46.02731" lon="5.73948">
        <ele>1189.77</ele>
        <time>2020-05-31T07:22:03Z</time>
      </trkpt>
      <trkpt lat="46.02734" lon="5.73947">
        <ele>1190.73</ele>
        <time>2020-05-31T07:22:04Z</time>
      </trkpt>
      <trkpt lat="46.02736" lon="5.73946">
        <ele>1191.69</ele>
        <time>2020-05-31T07:22:05Z</time>
      </trkpt>
      <trkpt lat="46.0274" lon="5.73946">
        <ele>1192.65</ele>
        <time>2020-05-31T07:22:06Z</time>
      </trkpt>
      <trkpt lat="46.02774" lon="5.73936">
        <ele>1198.9</ele>
        <time>2020-05-31T07:22:20Z</time>
      </trkpt>
      <trkpt lat="46.02801" lon="5.73927">
        <ele>1198.9</ele>
        <time>2020-05-31T07:22:32Z</time>
      </trkpt>
      <trkpt lat="46.02825" lon="5.73925">
        <ele>1203.23</ele>
        <time>2020-05-31T07:22:43Z</time>
      </trkpt>
      <trkpt lat="46.02827" lon="5.73924">
        <ele>1203.71</ele>
        <time>2020-05-31T07:22:44Z</time>
      </trkpt>
      <trkpt lat="46.02829" lon="5.73924">
        <ele>1204.19</ele>
        <time>2020-05-31T07:22:45Z</time>
      </trkpt>
      <trkpt lat="46.02853" lon="5.73922">
        <ele>1210.44</ele>
        <time>2020-05-31T07:22:56Z</time>
      </trkpt>
      <trkpt lat="46.02885" lon="5.73917">
        <ele>1219.57</ele>
        <time>2020-05-31T07:23:08Z</time>
      </trkpt>
      <trkpt lat="46.02923" lon="5.73906">
        <ele>1233.99</ele>
        <time>2020-05-31T07:23:21Z</time>
      </trkpt>
      <trkpt lat="46.02956" lon="5.73901">
        <ele>1236.87</ele>
        <time>2020-05-31T07:23:33Z</time>
      </trkpt>
      <trkpt lat="46.02986" lon="5.73893">
        <ele>1240.72</ele>
        <time>2020-05-31T07:23:45Z</time>
      </trkpt>
      <trkpt lat="46.03006" lon="5.73887">
        <ele>1242.64</ele>
        <time>2020-05-31T07:23:55Z</time>
      </trkpt>
      <trkpt lat="46.0301" lon="5.73885">
        <ele>1243.12</ele>
        <time>2020-05-31T07:23:57Z</time>
      </trkpt>
      <trkpt lat="46.03013" lon="5.73885">
        <ele>1243.12</ele>
        <time>2020-05-31T07:23:58Z</time>
      </trkpt>
      <trkpt lat="46.03016" lon="5.73883">
        <ele>1243.6</ele>
        <time>2020-05-31T07:23:59Z</time>
      </trkpt>
      <trkpt lat="46.03019" lon="5.73882">
        <ele>1244.08</ele>
        <time>2020-05-31T07:24:00Z</time>
      </trkpt>
      <trkpt lat="46.03022" lon="5.73882">
        <ele>1245.04</ele>
        <time>2020-05-31T07:24:01Z</time>
      </trkpt>
      <trkpt lat="46.03025" lon="5.73881">
        <ele>1245.53</ele>
        <time>2020-05-31T07:24:02Z</time>
      </trkpt>
      <trkpt lat="46.03027" lon="5.7388">
        <ele>1246.01</ele>
        <time>2020-05-31T07:24:03Z</time>
      </trkpt>
      <trkpt lat="46.0303" lon="5.7388">
        <ele>1246.49</ele>
        <time>2020-05-31T07:24:04Z</time>
      </trkpt>
      <trkpt lat="46.03033" lon="5.73879">
        <ele>1246.97</ele>
        <time>2020-05-31T07:24:05Z</time>
      </trkpt>
      <trkpt lat="46.0306" lon="5.73873">
        <ele>1250.81</ele>
        <time>2020-05-31T07:24:16Z</time>
      </trkpt>
      <trkpt lat="46.03099" lon="5.73855">
        <ele>1246.49</ele>
        <time>2020-05-31T07:24:30Z</time>
      </trkpt>
      <trkpt lat="46.03145" lon="5.73841">
        <ele>1226.78</ele>
        <time>2020-05-31T07:24:46Z</time>
      </trkpt>
      <trkpt lat="46.03189" lon="5.7384">
        <ele>1209</ele>
        <time>2020-05-31T07:25:02Z</time>
      </trkpt>
      <trkpt lat="46.03224" lon="5.73846">
        <ele>1196.02</ele>
        <time>2020-05-31T07:25:15Z</time>
      </trkpt>
      <trkpt lat="46.03237" lon="5.73849">
        <ele>1191.21</ele>
        <time>2020-05-31T07:25:21Z</time>
      </trkpt>
      <trkpt lat="46.03269" lon="5.73849">
        <ele>1184</ele>
        <time>2020-05-31T07:25:34Z</time>
      </trkpt>
      <trkpt lat="46.03301" lon="5.73855">
        <ele>1172.95</ele>
        <time>2020-05-31T07:25:47Z</time>
      </trkpt>
      <trkpt lat="46.03305" lon="5.73855">
        <ele>1171.5</ele>
        <time>2020-05-31T07:25:49Z</time>
      </trkpt>
      <trkpt lat="46.03307" lon="5.73856">
        <ele>1171.02</ele>
        <time>2020-05-31T07:25:50Z</time>
      </trkpt>
      <trkpt lat="46.03309" lon="5.73857">
        <ele>1170.54</ele>
        <time>2020-05-31T07:25:51Z</time>
      </trkpt>
      <trkpt lat="46.03311" lon="5.73858">
        <ele>1170.06</ele>
        <time>2020-05-31T07:25:52Z</time>
      </trkpt>
      <trkpt lat="46.03314" lon="5.73859">
        <ele>1169.58</ele>
        <time>2020-05-31T07:25:53Z</time>
      </trkpt>
      <trkpt lat="46.03336" lon="5.73869">
        <ele>1166.22</ele>
        <time>2020-05-31T07:26:04Z</time>
      </trkpt>
      <trkpt lat="46.03362" lon="5.73877">
        <ele>1163.81</ele>
        <time>2020-05-31T07:26:17Z</time>
      </trkpt>
      <trkpt lat="46.03384" lon="5.73882">
        <ele>1164.29</ele>
        <time>2020-05-31T07:26:29Z</time>
      </trkpt>
      <trkpt lat="46.03404" lon="5.73891">
        <ele>1165.74</ele>
        <time>2020-05-31T07:26:41Z</time>
      </trkpt>
      <trkpt lat="46.03431" lon="5.73896">
        <ele>1168.62</ele>
        <time>2020-05-31T07:26:54Z</time>
      </trkpt>
      <trkpt lat="46.03466" lon="5.73898">
        <ele>1169.58</ele>
        <time>2020-05-31T07:27:07Z</time>
      </trkpt>
      <trkpt lat="46.035" lon="5.73894">
        <ele>1168.62</ele>
        <time>2020-05-31T07:27:18Z</time>
      </trkpt>
      <trkpt lat="46.03538" lon="5.7391">
        <ele>1166.22</ele>
        <time>2020-05-31T07:27:30Z</time>
      </trkpt>
      <trkpt lat="46.03587" lon="5.73914">
        <ele>1163.81</ele>
        <time>2020-05-31T07:27:46Z</time>
      </trkpt>
      <trkpt lat="46.03634" lon="5.73901">
        <ele>1162.37</ele>
        <time>2020-05-31T07:28:04Z</time>
      </trkpt>
      <trkpt lat="46.03672" lon="5.73903">
        <ele>1160.45</ele>
        <time>2020-05-31T07:28:19Z</time>
      </trkpt>
      <trkpt lat="46.03714" lon="5.73913">
        <ele>1157.56</ele>
        <time>2020-05-31T07:28:33Z</time>
      </trkpt>
      <trkpt lat="46.03766" lon="5.73911">
        <ele>1153.72</ele>
        <time>2020-05-31T07:28:47Z</time>
      </trkpt>
      <trkpt lat="46.0377" lon="5.7391">
        <ele>1153.72</ele>
        <time>2020-05-31T07:28:48Z</time>
      </trkpt>
      <trkpt lat="46.03781" lon="5.73911">
        <ele>1153.24</ele>
        <time>2020-05-31T07:28:51Z</time>
      </trkpt>
      <trkpt lat="46.03789" lon="5.73916">
        <ele>1154.68</ele>
        <time>2020-05-31T07:28:54Z</time>
      </trkpt>
      <trkpt lat="46.03791" lon="5.73917">
        <ele>1155.16</ele>
        <time>2020-05-31T07:28:55Z</time>
      </trkpt>
      <trkpt lat="46.03793" lon="5.73917">
        <ele>1155.64</ele>
        <time>2020-05-31T07:28:56Z</time>
      </trkpt>
      <trkpt lat="46.03795" lon="5.73917">
        <ele>1156.12</ele>
        <time>2020-05-31T07:28:57Z</time>
      </trkpt>
      <trkpt lat="46.03796" lon="5.73917">
        <ele>1156.6</ele>
        <time>2020-05-31T07:28:58Z</time>
      </trkpt>
      <trkpt lat="46.03798" lon="5.73917">
        <ele>1156.6</ele>
        <time>2020-05-31T07:28:59Z</time>
      </trkpt>
      <trkpt lat="46.03799" lon="5.73918">
        <ele>1156.6</ele>
        <time>2020-05-31T07:29:11Z</time>
      </trkpt>
      <trkpt lat="46.038" lon="5.73918">
        <ele>1157.56</ele>
        <time>2020-05-31T07:29:40Z</time>
      </trkpt>
      <trkpt lat="46.03799" lon="5.73919">
        <ele>1158.53</ele>
        <time>2020-05-31T07:30:06Z</time>
      </trkpt>
      <trkpt lat="46.03798" lon="5.73918">
        <ele>1157.56</ele>
        <time>2020-05-31T07:30:27Z</time>
      </trkpt>
      <trkpt lat="46.038" lon="5.73921">
        <ele>1157.08</ele>
        <time>2020-05-31T07:30:52Z</time>
      </trkpt>
      <trkpt lat="46.03797" lon="5.73915">
        <ele>1157.56</ele>
        <time>2020-05-31T07:31:01Z</time>
      </trkpt>
      <trkpt lat="46.03795" lon="5.73914">
        <ele>1157.08</ele>
        <time>2020-05-31T07:31:02Z</time>
      </trkpt>
      <trkpt lat="46.03793" lon="5.73913">
        <ele>1156.6</ele>
        <time>2020-05-31T07:31:03Z</time>
      </trkpt>
      <trkpt lat="46.03791" lon="5.73912">
        <ele>1156.12</ele>
        <time>2020-05-31T07:31:04Z</time>
      </trkpt>
      <trkpt lat="46.03789" lon="5.7391">
        <ele>1155.64</ele>
        <time>2020-05-31T07:31:05Z</time>
      </trkpt>
      <trkpt lat="46.03787" lon="5.73909">
        <ele>1155.16</ele>
        <time>2020-05-31T07:31:06Z</time>
      </trkpt>
      <trkpt lat="46.03789" lon="5.73903">
        <ele>1154.68</ele>
        <time>2020-05-31T07:31:11Z</time>
      </trkpt>
      <trkpt lat="46.03791" lon="5.73904">
        <ele>1154.2</ele>
        <time>2020-05-31T07:31:24Z</time>
      </trkpt>
      <trkpt lat="46.03795" lon="5.73903">
        <ele>1154.68</ele>
        <time>2020-05-31T07:31:43Z</time>
      </trkpt>
      <trkpt lat="46.03821" lon="5.73898">
        <ele>1155.64</ele>
        <time>2020-05-31T07:31:58Z</time>
      </trkpt>
      <trkpt lat="46.03823" lon="5.73898">
        <ele>1155.64</ele>
        <time>2020-05-31T07:31:59Z</time>
      </trkpt>
      <trkpt lat="46.03825" lon="5.73897">
        <ele>1155.64</ele>
        <time>2020-05-31T07:32:00Z</time>
      </trkpt>
      <trkpt lat="46.03826" lon="5.73897">
        <ele>1155.64</ele>
        <time>2020-05-31T07:32:01Z</time>
      </trkpt>
      <trkpt lat="46.03828" lon="5.73897">
        <ele>1155.64</ele>
        <time>2020-05-31T07:32:02Z</time>
      </trkpt>
      <trkpt lat="46.0383" lon="5.73896">
        <ele>1155.64</ele>
        <time>2020-05-31T07:32:03Z</time>
      </trkpt>
      <trkpt lat="46.03868" lon="5.73876">
        <ele>1156.12</ele>
        <time>2020-05-31T07:32:19Z</time>
      </trkpt>
      <trkpt lat="46.03885" lon="5.73834">
        <ele>1157.08</ele>
        <time>2020-05-31T07:32:33Z</time>
      </trkpt>
      <trkpt lat="46.03881" lon="5.73798">
        <ele>1158.05</ele>
        <time>2020-05-31T07:32:45Z</time>
      </trkpt>
      <trkpt lat="46.03865" lon="5.73768">
        <ele>1159.01</ele>
        <time>2020-05-31T07:32:58Z</time>
      </trkpt>
      <trkpt lat="46.03838" lon="5.73728">
        <ele>1160.93</ele>
        <time>2020-05-31T07:33:15Z</time>
      </trkpt>
      <trkpt lat="46.03819" lon="5.73695">
        <ele>1163.33</ele>
        <time>2020-05-31T07:33:31Z</time>
      </trkpt>
      <trkpt lat="46.03811" lon="5.73661">
        <ele>1165.74</ele>
        <time>2020-05-31T07:33:46Z</time>
      </trkpt>
      <trkpt lat="46.03806" lon="5.73634">
        <ele>1168.62</ele>
        <time>2020-05-31T07:33:57Z</time>
      </trkpt>
      <trkpt lat="46.038" lon="5.73592">
        <ele>1172.47</ele>
        <time>2020-05-31T07:34:14Z</time>
      </trkpt>
      <trkpt lat="46.03798" lon="5.73552">
        <ele>1175.83</ele>
        <time>2020-05-31T07:34:29Z</time>
      </trkpt>
      <trkpt lat="46.03788" lon="5.73521">
        <ele>1179.19</ele>
        <time>2020-05-31T07:34:45Z</time>
      </trkpt>
      <trkpt lat="46.03779" lon="5.73487">
        <ele>1181.12</ele>
        <time>2020-05-31T07:35:02Z</time>
      </trkpt>
      <trkpt lat="46.03776" lon="5.7347">
        <ele>1182.08</ele>
        <time>2020-05-31T07:35:09Z</time>
      </trkpt>
      <trkpt lat="46.03776" lon="5.73468">
        <ele>1182.08</ele>
        <time>2020-05-31T07:35:10Z</time>
      </trkpt>
      <trkpt lat="46.03775" lon="5.73466">
        <ele>1182.56</ele>
        <time>2020-05-31T07:35:11Z</time>
      </trkpt>
      <trkpt lat="46.03775" lon="5.73464">
        <ele>1182.56</ele>
        <time>2020-05-31T07:35:12Z</time>
      </trkpt>
      <trkpt lat="46.03774" lon="5.73462">
        <ele>1183.04</ele>
        <time>2020-05-31T07:35:13Z</time>
      </trkpt>
      <trkpt lat="46.03774" lon="5.73461">
        <ele>1183.04</ele>
        <time>2020-05-31T07:35:14Z</time>
      </trkpt>
      <trkpt lat="46.03769" lon="5.73437">
        <ele>1184.48</ele>
        <time>2020-05-31T07:35:25Z</time>
      </trkpt>
      <trkpt lat="46.03768" lon="5.73435">
        <ele>1184.48</ele>
        <time>2020-05-31T07:35:26Z</time>
      </trkpt>
      <trkpt lat="46.03768" lon="5.73433">
        <ele>1184.96</ele>
        <time>2020-05-31T07:35:27Z</time>
      </trkpt>
      <trkpt lat="46.03768" lon="5.73431">
        <ele>1184.96</ele>
        <time>2020-05-31T07:35:28Z</time>
      </trkpt>
      <trkpt lat="46.03768" lon="5.73429">
        <ele>1185.44</ele>
        <time>2020-05-31T07:35:29Z</time>
      </trkpt>
      <trkpt lat="46.03767" lon="5.73428">
        <ele>1185.44</ele>
        <time>2020-05-31T07:35:30Z</time>
      </trkpt>
      <trkpt lat="46.03766" lon="5.73426">
        <ele>1185.44</ele>
        <time>2020-05-31T07:35:31Z</time>
      </trkpt>
      <trkpt lat="46.03757" lon="5.7341">
        <ele>1187.85</ele>
        <time>2020-05-31T07:35:42Z</time>
      </trkpt>
      <trkpt lat="46.03756" lon="5.73408">
        <ele>1188.33</ele>
        <time>2020-05-31T07:35:43Z</time>
      </trkpt>
      <trkpt lat="46.03755" lon="5.73407">
        <ele>1188.33</ele>
        <time>2020-05-31T07:35:44Z</time>
      </trkpt>
      <trkpt lat="46.03753" lon="5.73406">
        <ele>1188.81</ele>
        <time>2020-05-31T07:35:45Z</time>
      </trkpt>
      <trkpt lat="46.03752" lon="5.73405">
        <ele>1189.29</ele>
        <time>2020-05-31T07:35:46Z</time>
      </trkpt>
      <trkpt lat="46.03751" lon="5.73404">
        <ele>1189.29</ele>
        <time>2020-05-31T07:35:47Z</time>
      </trkpt>
      <trkpt lat="46.03749" lon="5.73403">
        <ele>1189.29</ele>
        <time>2020-05-31T07:35:48Z</time>
      </trkpt>
      <trkpt lat="46.03748" lon="5.73402">
        <ele>1189.29</ele>
        <time>2020-05-31T07:35:49Z</time>
      </trkpt>
      <trkpt lat="46.03746" lon="5.73401">
        <ele>1189.29</ele>
        <time>2020-05-31T07:35:50Z</time>
      </trkpt>
      <trkpt lat="46.03727" lon="5.73377">
        <ele>1192.65</ele>
        <time>2020-05-31T07:36:05Z</time>
      </trkpt>
      <trkpt lat="46.03711" lon="5.73355">
        <ele>1195.06</ele>
        <time>2020-05-31T07:36:19Z</time>
      </trkpt>
      <trkpt lat="46.03691" lon="5.73319">
        <ele>1196.5</ele>
        <time>2020-05-31T07:36:36Z</time>
      </trkpt>
      <trkpt lat="46.03673" lon="5.73278">
        <ele>1199.38</ele>
        <time>2020-05-31T07:36:54Z</time>
      </trkpt>
      <trkpt lat="46.03673" lon="5.73275">
        <ele>1199.86</ele>
        <time>2020-05-31T07:36:55Z</time>
      </trkpt>
      <trkpt lat="46.03667" lon="5.7324">
        <ele>1201.3</ele>
        <time>2020-05-31T07:37:08Z</time>
      </trkpt>
      <trkpt lat="46.03656" lon="5.73209">
        <ele>1203.71</ele>
        <time>2020-05-31T07:37:21Z</time>
      </trkpt>
      <trkpt lat="46.0364" lon="5.73178">
        <ele>1206.11</ele>
        <time>2020-05-31T07:37:36Z</time>
      </trkpt>
      <trkpt lat="46.03638" lon="5.73178">
        <ele>1206.59</ele>
        <time>2020-05-31T07:37:37Z</time>
      </trkpt>
      <trkpt lat="46.03637" lon="5.73178">
        <ele>1206.59</ele>
        <time>2020-05-31T07:37:38Z</time>
      </trkpt>
      <trkpt lat="46.03635" lon="5.7318">
        <ele>1206.59</ele>
        <time>2020-05-31T07:37:40Z</time>
      </trkpt>
      <trkpt lat="46.0363" lon="5.73175">
        <ele>1206.59</ele>
        <time>2020-05-31T07:37:47Z</time>
      </trkpt>
      <trkpt lat="46.03631" lon="5.73168">
        <ele>1207.07</ele>
        <time>2020-05-31T07:37:51Z</time>
      </trkpt>
      <trkpt lat="46.03628" lon="5.73158">
        <ele>1207.55</ele>
        <time>2020-05-31T07:37:55Z</time>
      </trkpt>
      <trkpt lat="46.03619" lon="5.73118">
        <ele>1210.92</ele>
        <time>2020-05-31T07:38:11Z</time>
      </trkpt>
      <trkpt lat="46.03614" lon="5.73091">
        <ele>1214.76</ele>
        <time>2020-05-31T07:38:23Z</time>
      </trkpt>
      <trkpt lat="46.03614" lon="5.73089">
        <ele>1214.76</ele>
        <time>2020-05-31T07:38:24Z</time>
      </trkpt>
      <trkpt lat="46.03613" lon="5.73087">
        <ele>1214.76</ele>
        <time>2020-05-31T07:38:25Z</time>
      </trkpt>
      <trkpt lat="46.03612" lon="5.73076">
        <ele>1215.72</ele>
        <time>2020-05-31T07:38:30Z</time>
      </trkpt>
      <trkpt lat="46.03612" lon="5.73073">
        <ele>1215.72</ele>
        <time>2020-05-31T07:38:31Z</time>
      </trkpt>
      <trkpt lat="46.03612" lon="5.73071">
        <ele>1216.21</ele>
        <time>2020-05-31T07:38:32Z</time>
      </trkpt>
      <trkpt lat="46.03612" lon="5.73069">
        <ele>1216.21</ele>
        <time>2020-05-31T07:38:33Z</time>
      </trkpt>
      <trkpt lat="46.03612" lon="5.73066">
        <ele>1216.69</ele>
        <time>2020-05-31T07:38:34Z</time>
      </trkpt>
      <trkpt lat="46.03612" lon="5.73064">
        <ele>1216.69</ele>
        <time>2020-05-31T07:38:35Z</time>
      </trkpt>
      <trkpt lat="46.03626" lon="5.7303">
        <ele>1216.21</ele>
        <time>2020-05-31T07:38:48Z</time>
      </trkpt>
      <trkpt lat="46.03632" lon="5.72979">
        <ele>1217.17</ele>
        <time>2020-05-31T07:39:01Z</time>
      </trkpt>
      <trkpt lat="46.03632" lon="5.72976">
        <ele>1217.65</ele>
        <time>2020-05-31T07:39:02Z</time>
      </trkpt>
      <trkpt lat="46.03634" lon="5.72923">
        <ele>1220.53</ele>
        <time>2020-05-31T07:39:18Z</time>
      </trkpt>
      <trkpt lat="46.0361" lon="5.72894">
        <ele>1222.45</ele>
        <time>2020-05-31T07:39:31Z</time>
      </trkpt>
      <trkpt lat="46.03584" lon="5.7284">
        <ele>1221.97</ele>
        <time>2020-05-31T07:39:46Z</time>
      </trkpt>
      <trkpt lat="46.03562" lon="5.72806">
        <ele>1222.45</ele>
        <time>2020-05-31T07:40:00Z</time>
      </trkpt>
      <trkpt lat="46.03552" lon="5.72796">
        <ele>1221.97</ele>
        <time>2020-05-31T07:40:06Z</time>
      </trkpt>
      <trkpt lat="46.03553" lon="5.72797">
        <ele>1221.49</ele>
        <time>2020-05-31T07:40:10Z</time>
      </trkpt>
      <trkpt lat="46.03554" lon="5.72799">
        <ele>1221.97</ele>
        <time>2020-05-31T07:40:11Z</time>
      </trkpt>
      <trkpt lat="46.03555" lon="5.72801">
        <ele>1221.97</ele>
        <time>2020-05-31T07:40:12Z</time>
      </trkpt>
      <trkpt lat="46.03557" lon="5.72802">
        <ele>1221.97</ele>
        <time>2020-05-31T07:40:13Z</time>
      </trkpt>
      <trkpt lat="46.03558" lon="5.72804">
        <ele>1222.45</ele>
        <time>2020-05-31T07:40:14Z</time>
      </trkpt>
      <trkpt lat="46.03564" lon="5.72806">
        <ele>1223.9</ele>
        <time>2020-05-31T07:40:22Z</time>
      </trkpt>
      <trkpt lat="46.03565" lon="5.72807">
        <ele>1223.9</ele>
        <time>2020-05-31T07:40:23Z</time>
      </trkpt>
      <trkpt lat="46.03566" lon="5.72808">
        <ele>1224.38</ele>
        <time>2020-05-31T07:40:24Z</time>
      </trkpt>
      <trkpt lat="46.03567" lon="5.72809">
        <ele>1224.38</ele>
        <time>2020-05-31T07:40:25Z</time>
      </trkpt>
      <trkpt lat="46.03568" lon="5.7281">
        <ele>1224.86</ele>
        <time>2020-05-31T07:40:26Z</time>
      </trkpt>
      <trkpt lat="46.0357" lon="5.72811">
        <ele>1224.86</ele>
        <time>2020-05-31T07:40:27Z</time>
      </trkpt>
      <trkpt lat="46.03571" lon="5.72813">
        <ele>1224.86</ele>
        <time>2020-05-31T07:40:28Z</time>
      </trkpt>
      <trkpt lat="46.03573" lon="5.72815">
        <ele>1224.86</ele>
        <time>2020-05-31T07:40:29Z</time>
      </trkpt>
      <trkpt lat="46.03575" lon="5.72818">
        <ele>1224.86</ele>
        <time>2020-05-31T07:40:30Z</time>
      </trkpt>
      <trkpt lat="46.03576" lon="5.72821">
        <ele>1224.86</ele>
        <time>2020-05-31T07:40:31Z</time>
      </trkpt>
      <trkpt lat="46.03578" lon="5.72825">
        <ele>1224.86</ele>
        <time>2020-05-31T07:40:32Z</time>
      </trkpt>
      <trkpt lat="46.03594" lon="5.72874">
        <ele>1221.97</ele>
        <time>2020-05-31T07:40:45Z</time>
      </trkpt>
      <trkpt lat="46.03621" lon="5.72906">
        <ele>1222.93</ele>
        <time>2020-05-31T07:40:59Z</time>
      </trkpt>
      <trkpt lat="46.03622" lon="5.72908">
        <ele>1222.93</ele>
        <time>2020-05-31T07:41:11Z</time>
      </trkpt>
      <trkpt lat="46.03621" lon="5.7291">
        <ele>1221.01</ele>
        <time>2020-05-31T07:41:43Z</time>
      </trkpt>
      <trkpt lat="46.03623" lon="5.72903">
        <ele>1219.09</ele>
        <time>2020-05-31T07:42:12Z</time>
      </trkpt>
      <trkpt lat="46.03622" lon="5.72903">
        <ele>1219.09</ele>
        <time>2020-05-31T07:42:13Z</time>
      </trkpt>
      <trkpt lat="46.03619" lon="5.72902">
        <ele>1221.01</ele>
        <time>2020-05-31T07:42:27Z</time>
      </trkpt>
      <trkpt lat="46.03598" lon="5.72877">
        <ele>1221.01</ele>
        <time>2020-05-31T07:42:39Z</time>
      </trkpt>
      <trkpt lat="46.03582" lon="5.72834">
        <ele>1221.97</ele>
        <time>2020-05-31T07:42:54Z</time>
      </trkpt>
      <trkpt lat="46.03564" lon="5.72809">
        <ele>1223.42</ele>
        <time>2020-05-31T07:43:08Z</time>
      </trkpt>
      <trkpt lat="46.03562" lon="5.72806">
        <ele>1222.93</ele>
        <time>2020-05-31T07:43:22Z</time>
      </trkpt>
      <trkpt lat="46.03561" lon="5.72806">
        <ele>1222.45</ele>
        <time>2020-05-31T07:43:45Z</time>
      </trkpt>
      <trkpt lat="46.03562" lon="5.72806">
        <ele>1221.97</ele>
        <time>2020-05-31T07:44:08Z</time>
      </trkpt>
      <trkpt lat="46.03553" lon="5.72797">
        <ele>1221.49</ele>
        <time>2020-05-31T07:44:22Z</time>
      </trkpt>
      <trkpt lat="46.03549" lon="5.72791">
        <ele>1221.01</ele>
        <time>2020-05-31T07:44:26Z</time>
      </trkpt>
      <trkpt lat="46.0354" lon="5.72762">
        <ele>1217.17</ele>
        <time>2020-05-31T07:44:39Z</time>
      </trkpt>
      <trkpt lat="46.03539" lon="5.72715">
        <ele>1215.72</ele>
        <time>2020-05-31T07:44:52Z</time>
      </trkpt>
      <trkpt lat="46.03556" lon="5.7268">
        <ele>1217.17</ele>
        <time>2020-05-31T07:45:05Z</time>
      </trkpt>
      <trkpt lat="46.03575" lon="5.72646">
        <ele>1216.21</ele>
        <time>2020-05-31T07:45:17Z</time>
      </trkpt>
      <trkpt lat="46.03582" lon="5.72636">
        <ele>1216.21</ele>
        <time>2020-05-31T07:45:19Z</time>
      </trkpt>
      <trkpt lat="46.03586" lon="5.72632">
        <ele>1215.72</ele>
        <time>2020-05-31T07:45:20Z</time>
      </trkpt>
      <trkpt lat="46.03589" lon="5.72626">
        <ele>1215.72</ele>
        <time>2020-05-31T07:45:21Z</time>
      </trkpt>
      <trkpt lat="46.03618" lon="5.72584">
        <ele>1206.59</ele>
        <time>2020-05-31T07:45:31Z</time>
      </trkpt>
      <trkpt lat="46.03622" lon="5.72579">
        <ele>1205.63</ele>
        <time>2020-05-31T07:45:32Z</time>
      </trkpt>
      <trkpt lat="46.03627" lon="5.72574">
        <ele>1204.67</ele>
        <time>2020-05-31T07:45:33Z</time>
      </trkpt>
      <trkpt lat="46.03632" lon="5.72568">
        <ele>1203.71</ele>
        <time>2020-05-31T07:45:34Z</time>
      </trkpt>
      <trkpt lat="46.03645" lon="5.72558">
        <ele>1202.27</ele>
        <time>2020-05-31T07:45:36Z</time>
      </trkpt>
      <trkpt lat="46.03652" lon="5.72554">
        <ele>1201.3</ele>
        <time>2020-05-31T07:45:37Z</time>
      </trkpt>
      <trkpt lat="46.03666" lon="5.72548">
        <ele>1200.82</ele>
        <time>2020-05-31T07:45:39Z</time>
      </trkpt>
      <trkpt lat="46.03674" lon="5.72546">
        <ele>1200.82</ele>
        <time>2020-05-31T07:45:40Z</time>
      </trkpt>
      <trkpt lat="46.03705" lon="5.72535">
        <ele>1199.86</ele>
        <time>2020-05-31T07:45:45Z</time>
      </trkpt>
      <trkpt lat="46.03732" lon="5.72523">
        <ele>1198.42</ele>
        <time>2020-05-31T07:45:52Z</time>
      </trkpt>
      <trkpt lat="46.03736" lon="5.72522">
        <ele>1197.94</ele>
        <time>2020-05-31T07:45:53Z</time>
      </trkpt>
      <trkpt lat="46.03801" lon="5.72494">
        <ele>1191.21</ele>
        <time>2020-05-31T07:46:07Z</time>
      </trkpt>
      <trkpt lat="46.0385" lon="5.72468">
        <ele>1188.81</ele>
        <time>2020-05-31T07:46:18Z</time>
      </trkpt>
      <trkpt lat="46.039" lon="5.72438">
        <ele>1191.21</ele>
        <time>2020-05-31T07:46:31Z</time>
      </trkpt>
      <trkpt lat="46.03974" lon="5.72401">
        <ele>1191.21</ele>
        <time>2020-05-31T07:46:46Z</time>
      </trkpt>
      <trkpt lat="46.04034" lon="5.7237">
        <ele>1191.69</ele>
        <time>2020-05-31T07:47:00Z</time>
      </trkpt>
      <trkpt lat="46.04038" lon="5.72367">
        <ele>1191.69</ele>
        <time>2020-05-31T07:47:01Z</time>
      </trkpt>
      <trkpt lat="46.04042" lon="5.72364">
        <ele>1191.21</ele>
        <time>2020-05-31T07:47:02Z</time>
      </trkpt>
      <trkpt lat="46.04046" lon="5.72361">
        <ele>1191.21</ele>
        <time>2020-05-31T07:47:03Z</time>
      </trkpt>
      <trkpt lat="46.0405" lon="5.72358">
        <ele>1191.21</ele>
        <time>2020-05-31T07:47:04Z</time>
      </trkpt>
      <trkpt lat="46.04055" lon="5.72355">
        <ele>1191.21</ele>
        <time>2020-05-31T07:47:05Z</time>
      </trkpt>
      <trkpt lat="46.04058" lon="5.72353">
        <ele>1191.21</ele>
        <time>2020-05-31T07:47:06Z</time>
      </trkpt>
      <trkpt lat="46.04061" lon="5.72351">
        <ele>1191.69</ele>
        <time>2020-05-31T07:47:07Z</time>
      </trkpt>
      <trkpt lat="46.04063" lon="5.72351">
        <ele>1191.69</ele>
        <time>2020-05-31T07:47:08Z</time>
      </trkpt>
      <trkpt lat="46.04066" lon="5.72351">
        <ele>1192.17</ele>
        <time>2020-05-31T07:47:09Z</time>
      </trkpt>
      <trkpt lat="46.04068" lon="5.72351">
        <ele>1192.17</ele>
        <time>2020-05-31T07:47:10Z</time>
      </trkpt>
      <trkpt lat="46.0407" lon="5.72352">
        <ele>1192.65</ele>
        <time>2020-05-31T07:47:11Z</time>
      </trkpt>
      <trkpt lat="46.04076" lon="5.72352">
        <ele>1193.61</ele>
        <time>2020-05-31T07:47:14Z</time>
      </trkpt>
      <trkpt lat="46.04079" lon="5.72351">
        <ele>1194.09</ele>
        <time>2020-05-31T07:47:15Z</time>
      </trkpt>
      <trkpt lat="46.04121" lon="5.72323">
        <ele>1195.54</ele>
        <time>2020-05-31T07:47:33Z</time>
      </trkpt>
      <trkpt lat="46.04159" lon="5.72297">
        <ele>1196.02</ele>
        <time>2020-05-31T07:47:47Z</time>
      </trkpt>
      <trkpt lat="46.04193" lon="5.72257">
        <ele>1199.86</ele>
        <time>2020-05-31T07:48:02Z</time>
      </trkpt>
      <trkpt lat="46.04223" lon="5.72209">
        <ele>1197.94</ele>
        <time>2020-05-31T07:48:16Z</time>
      </trkpt>
      <trkpt lat="46.04261" lon="5.72162">
        <ele>1200.34</ele>
        <time>2020-05-31T07:48:32Z</time>
      </trkpt>
      <trkpt lat="46.04284" lon="5.72139">
        <ele>1201.79</ele>
        <time>2020-05-31T07:48:43Z</time>
      </trkpt>
      <trkpt lat="46.04285" lon="5.72138">
        <ele>1201.79</ele>
        <time>2020-05-31T07:48:44Z</time>
      </trkpt>
      <trkpt lat="46.04286" lon="5.72137">
        <ele>1201.79</ele>
        <time>2020-05-31T07:48:45Z</time>
      </trkpt>
      <trkpt lat="46.04285" lon="5.72139">
        <ele>1201.79</ele>
        <time>2020-05-31T07:49:01Z</time>
      </trkpt>
      <trkpt lat="46.04286" lon="5.72137">
        <ele>1203.71</ele>
        <time>2020-05-31T07:49:26Z</time>
      </trkpt>
      <trkpt lat="46.04286" lon="5.72139">
        <ele>1203.71</ele>
        <time>2020-05-31T07:49:56Z</time>
      </trkpt>
      <trkpt lat="46.04287" lon="5.72135">
        <ele>1203.71</ele>
        <time>2020-05-31T07:49:57Z</time>
      </trkpt>
      <trkpt lat="46.04288" lon="5.72131">
        <ele>1202.75</ele>
        <time>2020-05-31T07:50:07Z</time>
      </trkpt>
      <trkpt lat="46.04288" lon="5.72129">
        <ele>1201.79</ele>
        <time>2020-05-31T07:50:16Z</time>
      </trkpt>
      <trkpt lat="46.04287" lon="5.72124">
        <ele>1201.3</ele>
        <time>2020-05-31T07:50:18Z</time>
      </trkpt>
      <trkpt lat="46.04286" lon="5.72101">
        <ele>1199.38</ele>
        <time>2020-05-31T07:50:22Z</time>
      </trkpt>
      <trkpt lat="46.04287" lon="5.72093">
        <ele>1198.9</ele>
        <time>2020-05-31T07:50:23Z</time>
      </trkpt>
      <trkpt lat="46.04299" lon="5.72024">
        <ele>1191.69</ele>
        <time>2020-05-31T07:50:31Z</time>
      </trkpt>
      <trkpt lat="46.04301" lon="5.71964">
        <ele>1188.33</ele>
        <time>2020-05-31T07:50:37Z</time>
      </trkpt>
      <trkpt lat="46.0431" lon="5.71913">
        <ele>1185.44</ele>
        <time>2020-05-31T07:50:42Z</time>
      </trkpt>
      <trkpt lat="46.04313" lon="5.71904">
        <ele>1184.96</ele>
        <time>2020-05-31T07:50:43Z</time>
      </trkpt>
      <trkpt lat="46.04317" lon="5.71897">
        <ele>1184.48</ele>
        <time>2020-05-31T07:50:44Z</time>
      </trkpt>
      <trkpt lat="46.04343" lon="5.71856">
        <ele>1180.16</ele>
        <time>2020-05-31T07:50:50Z</time>
      </trkpt>
      <trkpt lat="46.04349" lon="5.71851">
        <ele>1179.67</ele>
        <time>2020-05-31T07:50:51Z</time>
      </trkpt>
      <trkpt lat="46.04355" lon="5.71846">
        <ele>1178.71</ele>
        <time>2020-05-31T07:50:52Z</time>
      </trkpt>
      <trkpt lat="46.04389" lon="5.71825">
        <ele>1178.71</ele>
        <time>2020-05-31T07:50:58Z</time>
      </trkpt>
      <trkpt lat="46.04393" lon="5.7182">
        <ele>1179.19</ele>
        <time>2020-05-31T07:50:59Z</time>
      </trkpt>
      <trkpt lat="46.04396" lon="5.71816">
        <ele>1179.19</ele>
        <time>2020-05-31T07:51:00Z</time>
      </trkpt>
      <trkpt lat="46.0442" lon="5.71776">
        <ele>1175.83</ele>
        <time>2020-05-31T07:51:12Z</time>
      </trkpt>
      <trkpt lat="46.04422" lon="5.71774">
        <ele>1175.35</ele>
        <time>2020-05-31T07:51:14Z</time>
      </trkpt>
      <trkpt lat="46.04424" lon="5.71773">
        <ele>1175.35</ele>
        <time>2020-05-31T07:51:15Z</time>
      </trkpt>
      <trkpt lat="46.04425" lon="5.71771">
        <ele>1174.87</ele>
        <time>2020-05-31T07:51:16Z</time>
      </trkpt>
      <trkpt lat="46.04426" lon="5.7177">
        <ele>1174.87</ele>
        <time>2020-05-31T07:51:17Z</time>
      </trkpt>
      <trkpt lat="46.04427" lon="5.71769">
        <ele>1174.87</ele>
        <time>2020-05-31T07:51:18Z</time>
      </trkpt>
      <trkpt lat="46.04428" lon="5.71767">
        <ele>1174.39</ele>
        <time>2020-05-31T07:51:19Z</time>
      </trkpt>
      <trkpt lat="46.04429" lon="5.71766">
        <ele>1174.39</ele>
        <time>2020-05-31T07:51:20Z</time>
      </trkpt>
      <trkpt lat="46.04431" lon="5.71764">
        <ele>1173.91</ele>
        <time>2020-05-31T07:51:21Z</time>
      </trkpt>
      <trkpt lat="46.04432" lon="5.71762">
        <ele>1173.91</ele>
        <time>2020-05-31T07:51:22Z</time>
      </trkpt>
      <trkpt lat="46.04433" lon="5.71761">
        <ele>1173.91</ele>
        <time>2020-05-31T07:51:23Z</time>
      </trkpt>
      <trkpt lat="46.04435" lon="5.71759">
        <ele>1173.43</ele>
        <time>2020-05-31T07:51:24Z</time>
      </trkpt>
      <trkpt lat="46.04461" lon="5.71743">
        <ele>1171.98</ele>
        <time>2020-05-31T07:51:40Z</time>
      </trkpt>
      <trkpt lat="46.04479" lon="5.71728">
        <ele>1170.06</ele>
        <time>2020-05-31T07:51:45Z</time>
      </trkpt>
      <trkpt lat="46.04483" lon="5.71722">
        <ele>1169.1</ele>
        <time>2020-05-31T07:51:46Z</time>
      </trkpt>
      <trkpt lat="46.04507" lon="5.7169">
        <ele>1165.74</ele>
        <time>2020-05-31T07:51:51Z</time>
      </trkpt>
      <trkpt lat="46.04543" lon="5.7165">
        <ele>1164.29</ele>
        <time>2020-05-31T07:51:59Z</time>
      </trkpt>
      <trkpt lat="46.04546" lon="5.71647">
        <ele>1164.77</ele>
        <time>2020-05-31T07:52:00Z</time>
      </trkpt>
      <trkpt lat="46.04558" lon="5.71636">
        <ele>1165.26</ele>
        <time>2020-05-31T07:52:03Z</time>
      </trkpt>
      <trkpt lat="46.04561" lon="5.71632">
        <ele>1165.26</ele>
        <time>2020-05-31T07:52:04Z</time>
      </trkpt>
      <trkpt lat="46.04565" lon="5.71629">
        <ele>1165.74</ele>
        <time>2020-05-31T07:52:05Z</time>
      </trkpt>
      <trkpt lat="46.04605" lon="5.71598">
        <ele>1171.02</ele>
        <time>2020-05-31T07:52:19Z</time>
      </trkpt>
      <trkpt lat="46.04628" lon="5.71597">
        <ele>1176.31</ele>
        <time>2020-05-31T07:52:32Z</time>
      </trkpt>
      <trkpt lat="46.04633" lon="5.71597">
        <ele>1178.23</ele>
        <time>2020-05-31T07:52:45Z</time>
      </trkpt>
      <trkpt lat="46.04634" lon="5.71597">
        <ele>1178.71</ele>
        <time>2020-05-31T07:53:18Z</time>
      </trkpt>
      <trkpt lat="46.04635" lon="5.71596">
        <ele>1178.71</ele>
        <time>2020-05-31T07:53:19Z</time>
      </trkpt>
      <trkpt lat="46.04636" lon="5.71594">
        <ele>1178.71</ele>
        <time>2020-05-31T07:53:20Z</time>
      </trkpt>
      <trkpt lat="46.04638" lon="5.71592">
        <ele>1178.71</ele>
        <time>2020-05-31T07:53:21Z</time>
      </trkpt>
      <trkpt lat="46.04639" lon="5.71591">
        <ele>1178.71</ele>
        <time>2020-05-31T07:53:22Z</time>
      </trkpt>
      <trkpt lat="46.0464" lon="5.71591">
        <ele>1178.71</ele>
        <time>2020-05-31T07:53:23Z</time>
      </trkpt>
      <trkpt lat="46.04641" lon="5.7159">
        <ele>1179.19</ele>
        <time>2020-05-31T07:53:24Z</time>
      </trkpt>
      <trkpt lat="46.04661" lon="5.71578">
        <ele>1182.08</ele>
        <time>2020-05-31T07:53:35Z</time>
      </trkpt>
      <trkpt lat="46.04686" lon="5.71562">
        <ele>1186.88</ele>
        <time>2020-05-31T07:53:48Z</time>
      </trkpt>
      <trkpt lat="46.04709" lon="5.71539">
        <ele>1186.88</ele>
        <time>2020-05-31T07:53:56Z</time>
      </trkpt>
      <trkpt lat="46.04728" lon="5.71526">
        <ele>1187.37</ele>
        <time>2020-05-31T07:54:00Z</time>
      </trkpt>
      <trkpt lat="46.04759" lon="5.71523">
        <ele>1191.21</ele>
        <time>2020-05-31T07:54:09Z</time>
      </trkpt>
      <trkpt lat="46.04802" lon="5.71542">
        <ele>1190.73</ele>
        <time>2020-05-31T07:54:20Z</time>
      </trkpt>
      <trkpt lat="46.04808" lon="5.71545">
        <ele>1190.25</ele>
        <time>2020-05-31T07:54:21Z</time>
      </trkpt>
      <trkpt lat="46.04815" lon="5.71548">
        <ele>1189.77</ele>
        <time>2020-05-31T07:54:22Z</time>
      </trkpt>
      <trkpt lat="46.04821" lon="5.71553">
        <ele>1189.29</ele>
        <time>2020-05-31T07:54:23Z</time>
      </trkpt>
      <trkpt lat="46.04828" lon="5.71558">
        <ele>1188.33</ele>
        <time>2020-05-31T07:54:24Z</time>
      </trkpt>
      <trkpt lat="46.04834" lon="5.71564">
        <ele>1186.88</ele>
        <time>2020-05-31T07:54:25Z</time>
      </trkpt>
      <trkpt lat="46.04872" lon="5.7159">
        <ele>1183.52</ele>
        <time>2020-05-31T07:54:32Z</time>
      </trkpt>
      <trkpt lat="46.04882" lon="5.71594">
        <ele>1183.52</ele>
        <time>2020-05-31T07:54:34Z</time>
      </trkpt>
      <trkpt lat="46.04886" lon="5.71597">
        <ele>1183.04</ele>
        <time>2020-05-31T07:54:35Z</time>
      </trkpt>
      <trkpt lat="46.04914" lon="5.71612">
        <ele>1181.12</ele>
        <time>2020-05-31T07:54:41Z</time>
      </trkpt>
      <trkpt lat="46.04919" lon="5.71613">
        <ele>1180.64</ele>
        <time>2020-05-31T07:54:42Z</time>
      </trkpt>
      <trkpt lat="46.04923" lon="5.71614">
        <ele>1180.64</ele>
        <time>2020-05-31T07:54:43Z</time>
      </trkpt>
      <trkpt lat="46.04975" lon="5.71606">
        <ele>1181.12</ele>
        <time>2020-05-31T07:54:59Z</time>
      </trkpt>
      <trkpt lat="46.05019" lon="5.71564">
        <ele>1185.44</ele>
        <time>2020-05-31T07:55:15Z</time>
      </trkpt>
      <trkpt lat="46.05057" lon="5.71523">
        <ele>1187.37</ele>
        <time>2020-05-31T07:55:29Z</time>
      </trkpt>
      <trkpt lat="46.05093" lon="5.71488">
        <ele>1186.4</ele>
        <time>2020-05-31T07:55:43Z</time>
      </trkpt>
      <trkpt lat="46.05101" lon="5.7148">
        <ele>1186.4</ele>
        <time>2020-05-31T07:55:48Z</time>
      </trkpt>
      <trkpt lat="46.05102" lon="5.7148">
        <ele>1186.88</ele>
        <time>2020-05-31T07:55:49Z</time>
      </trkpt>
      <trkpt lat="46.05104" lon="5.71479">
        <ele>1186.88</ele>
        <time>2020-05-31T07:55:50Z</time>
      </trkpt>
      <trkpt lat="46.05105" lon="5.71478">
        <ele>1187.37</ele>
        <time>2020-05-31T07:55:51Z</time>
      </trkpt>
      <trkpt lat="46.05108" lon="5.71478">
        <ele>1187.85</ele>
        <time>2020-05-31T07:56:01Z</time>
      </trkpt>
      <trkpt lat="46.0511" lon="5.71483">
        <ele>1189.29</ele>
        <time>2020-05-31T07:56:36Z</time>
      </trkpt>
      <trkpt lat="46.05109" lon="5.71474">
        <ele>1189.77</ele>
        <time>2020-05-31T07:56:54Z</time>
      </trkpt>
      <trkpt lat="46.05109" lon="5.71474">
        <ele>1187.85</ele>
        <time>2020-05-31T07:57:22Z</time>
      </trkpt>
      <trkpt lat="46.0511" lon="5.71475">
        <ele>1187.37</ele>
        <time>2020-05-31T07:57:32Z</time>
      </trkpt>
      <trkpt lat="46.05111" lon="5.71474">
        <ele>1187.37</ele>
        <time>2020-05-31T07:57:33Z</time>
      </trkpt>
      <trkpt lat="46.05112" lon="5.71472">
        <ele>1187.37</ele>
        <time>2020-05-31T07:57:34Z</time>
      </trkpt>
      <trkpt lat="46.05113" lon="5.71471">
        <ele>1187.37</ele>
        <time>2020-05-31T07:57:35Z</time>
      </trkpt>
      <trkpt lat="46.05114" lon="5.7147">
        <ele>1186.88</ele>
        <time>2020-05-31T07:57:36Z</time>
      </trkpt>
      <trkpt lat="46.05115" lon="5.71469">
        <ele>1186.88</ele>
        <time>2020-05-31T07:57:37Z</time>
      </trkpt>
      <trkpt lat="46.05117" lon="5.71467">
        <ele>1186.88</ele>
        <time>2020-05-31T07:57:38Z</time>
      </trkpt>
      <trkpt lat="46.05119" lon="5.71465">
        <ele>1186.88</ele>
        <time>2020-05-31T07:57:39Z</time>
      </trkpt>
      <trkpt lat="46.05121" lon="5.71464">
        <ele>1186.88</ele>
        <time>2020-05-31T07:57:40Z</time>
      </trkpt>
      <trkpt lat="46.05147" lon="5.71443">
        <ele>1188.33</ele>
        <time>2020-05-31T07:57:52Z</time>
      </trkpt>
      <trkpt lat="46.0518" lon="5.71427">
        <ele>1192.65</ele>
        <time>2020-05-31T07:58:03Z</time>
      </trkpt>
      <trkpt lat="46.05216" lon="5.7142">
        <ele>1201.3</ele>
        <time>2020-05-31T07:58:15Z</time>
      </trkpt>
      <trkpt lat="46.05262" lon="5.71426">
        <ele>1198.9</ele>
        <time>2020-05-31T07:58:24Z</time>
      </trkpt>
      <trkpt lat="46.05269" lon="5.71424">
        <ele>1197.94</ele>
        <time>2020-05-31T07:58:25Z</time>
      </trkpt>
      <trkpt lat="46.05311" lon="5.71399">
        <ele>1194.09</ele>
        <time>2020-05-31T07:58:31Z</time>
      </trkpt>
      <trkpt lat="46.05343" lon="5.71366">
        <ele>1191.21</ele>
        <time>2020-05-31T07:58:41Z</time>
      </trkpt>
      <trkpt lat="46.05345" lon="5.71367">
        <ele>1190.25</ele>
        <time>2020-05-31T07:58:43Z</time>
      </trkpt>
      <trkpt lat="46.05347" lon="5.71368">
        <ele>1188.81</ele>
        <time>2020-05-31T07:58:44Z</time>
      </trkpt>
      <trkpt lat="46.05348" lon="5.71369">
        <ele>1188.33</ele>
        <time>2020-05-31T07:58:45Z</time>
      </trkpt>
      <trkpt lat="46.05347" lon="5.71363">
        <ele>1185.44</ele>
        <time>2020-05-31T07:58:52Z</time>
      </trkpt>
      <trkpt lat="46.05348" lon="5.71361">
        <ele>1185.44</ele>
        <time>2020-05-31T07:58:53Z</time>
      </trkpt>
      <trkpt lat="46.0535" lon="5.71359">
        <ele>1185.44</ele>
        <time>2020-05-31T07:58:54Z</time>
      </trkpt>
      <trkpt lat="46.05351" lon="5.71358">
        <ele>1184.96</ele>
        <time>2020-05-31T07:58:55Z</time>
      </trkpt>
      <trkpt lat="46.05353" lon="5.71357">
        <ele>1184.96</ele>
        <time>2020-05-31T07:58:56Z</time>
      </trkpt>
      <trkpt lat="46.05359" lon="5.71351">
        <ele>1184.96</ele>
        <time>2020-05-31T07:59:00Z</time>
      </trkpt>
      <trkpt lat="46.0536" lon="5.7135">
        <ele>1185.44</ele>
        <time>2020-05-31T07:59:01Z</time>
      </trkpt>
      <trkpt lat="46.05383" lon="5.71329">
        <ele>1187.37</ele>
        <time>2020-05-31T07:59:13Z</time>
      </trkpt>
      <trkpt lat="46.0542" lon="5.71311">
        <ele>1189.29</ele>
        <time>2020-05-31T07:59:28Z</time>
      </trkpt>
      <trkpt lat="46.05432" lon="5.71301">
        <ele>1188.33</ele>
        <time>2020-05-31T07:59:34Z</time>
      </trkpt>
      <trkpt lat="46.05434" lon="5.713">
        <ele>1187.85</ele>
        <time>2020-05-31T07:59:35Z</time>
      </trkpt>
      <trkpt lat="46.05443" lon="5.71297">
        <ele>1187.37</ele>
        <time>2020-05-31T07:59:38Z</time>
      </trkpt>
      <trkpt lat="46.05465" lon="5.71284">
        <ele>1185.92</ele>
        <time>2020-05-31T07:59:42Z</time>
      </trkpt>
      <trkpt lat="46.05484" lon="5.71272">
        <ele>1184</ele>
        <time>2020-05-31T07:59:45Z</time>
      </trkpt>
      <trkpt lat="46.0549" lon="5.71267">
        <ele>1183.52</ele>
        <time>2020-05-31T07:59:46Z</time>
      </trkpt>
      <trkpt lat="46.05494" lon="5.7126">
        <ele>1182.56</ele>
        <time>2020-05-31T07:59:47Z</time>
      </trkpt>
      <trkpt lat="46.05498" lon="5.71254">
        <ele>1182.08</ele>
        <time>2020-05-31T07:59:48Z</time>
      </trkpt>
      <trkpt lat="46.055" lon="5.71247">
        <ele>1181.12</ele>
        <time>2020-05-31T07:59:49Z</time>
      </trkpt>
      <trkpt lat="46.05502" lon="5.7124">
        <ele>1180.64</ele>
        <time>2020-05-31T07:59:50Z</time>
      </trkpt>
      <trkpt lat="46.05504" lon="5.71234">
        <ele>1180.16</ele>
        <time>2020-05-31T07:59:51Z</time>
      </trkpt>
      <trkpt lat="46.05516" lon="5.71192">
        <ele>1176.31</ele>
        <time>2020-05-31T08:00:03Z</time>
      </trkpt>
      <trkpt lat="46.05519" lon="5.71185">
        <ele>1175.83</ele>
        <time>2020-05-31T08:00:06Z</time>
      </trkpt>
      <trkpt lat="46.05521" lon="5.71184">
        <ele>1175.83</ele>
        <time>2020-05-31T08:00:07Z</time>
      </trkpt>
      <trkpt lat="46.05521" lon="5.71181">
        <ele>1175.35</ele>
        <time>2020-05-31T08:00:08Z</time>
      </trkpt>
      <trkpt lat="46.05522" lon="5.71179">
        <ele>1175.35</ele>
        <time>2020-05-31T08:00:09Z</time>
      </trkpt>
      <trkpt lat="46.05521" lon="5.71176">
        <ele>1174.87</ele>
        <time>2020-05-31T08:00:10Z</time>
      </trkpt>
      <trkpt lat="46.05521" lon="5.71173">
        <ele>1174.87</ele>
        <time>2020-05-31T08:00:11Z</time>
      </trkpt>
      <trkpt lat="46.05521" lon="5.7117">
        <ele>1175.35</ele>
        <time>2020-05-31T08:00:12Z</time>
      </trkpt>
      <trkpt lat="46.05522" lon="5.71167">
        <ele>1174.87</ele>
        <time>2020-05-31T08:00:13Z</time>
      </trkpt>
      <trkpt lat="46.05523" lon="5.71164">
        <ele>1174.87</ele>
        <time>2020-05-31T08:00:14Z</time>
      </trkpt>
      <trkpt lat="46.05524" lon="5.71161">
        <ele>1175.35</ele>
        <time>2020-05-31T08:00:15Z</time>
      </trkpt>
      <trkpt lat="46.05525" lon="5.71159">
        <ele>1175.35</ele>
        <time>2020-05-31T08:00:16Z</time>
      </trkpt>
      <trkpt lat="46.05526" lon="5.71157">
        <ele>1175.83</ele>
        <time>2020-05-31T08:00:17Z</time>
      </trkpt>
      <trkpt lat="46.05528" lon="5.71156">
        <ele>1176.31</ele>
        <time>2020-05-31T08:00:18Z</time>
      </trkpt>
      <trkpt lat="46.05532" lon="5.71169">
        <ele>1178.71</ele>
        <time>2020-05-31T08:00:24Z</time>
      </trkpt>
      <trkpt lat="46.05533" lon="5.71172">
        <ele>1178.71</ele>
        <time>2020-05-31T08:00:25Z</time>
      </trkpt>
      <trkpt lat="46.05533" lon="5.71175">
        <ele>1178.71</ele>
        <time>2020-05-31T08:00:26Z</time>
      </trkpt>
      <trkpt lat="46.05534" lon="5.71179">
        <ele>1178.71</ele>
        <time>2020-05-31T08:00:27Z</time>
      </trkpt>
      <trkpt lat="46.05536" lon="5.71185">
        <ele>1179.19</ele>
        <time>2020-05-31T08:00:29Z</time>
      </trkpt>
      <trkpt lat="46.05545" lon="5.71183">
        <ele>1177.27</ele>
        <time>2020-05-31T08:00:36Z</time>
      </trkpt>
      <trkpt lat="46.05545" lon="5.71185">
        <ele>1176.79</ele>
        <time>2020-05-31T08:00:42Z</time>
      </trkpt>
      <trkpt lat="46.0554" lon="5.71194">
        <ele>1175.35</ele>
        <time>2020-05-31T08:00:57Z</time>
      </trkpt>
      <trkpt lat="46.05533" lon="5.71204">
        <ele>1173.43</ele>
        <time>2020-05-31T08:01:12Z</time>
      </trkpt>
      <trkpt lat="46.05521" lon="5.71224">
        <ele>1171.98</ele>
        <time>2020-05-31T08:01:16Z</time>
      </trkpt>
      <trkpt lat="46.05518" lon="5.71229">
        <ele>1171.5</ele>
        <time>2020-05-31T08:01:17Z</time>
      </trkpt>
      <trkpt lat="46.05516" lon="5.71232">
        <ele>1171.5</ele>
        <time>2020-05-31T08:01:18Z</time>
      </trkpt>
      <trkpt lat="46.05499" lon="5.71258">
        <ele>1171.5</ele>
        <time>2020-05-31T08:01:28Z</time>
      </trkpt>
      <trkpt lat="46.05468" lon="5.71284">
        <ele>1172.47</ele>
        <time>2020-05-31T08:01:41Z</time>
      </trkpt>
      <trkpt lat="46.0544" lon="5.713">
        <ele>1177.27</ele>
        <time>2020-05-31T08:01:54Z</time>
      </trkpt>
      <trkpt lat="46.05421" lon="5.71312">
        <ele>1178.23</ele>
        <time>2020-05-31T08:02:04Z</time>
      </trkpt>
      <trkpt lat="46.0542" lon="5.71314">
        <ele>1178.23</ele>
        <time>2020-05-31T08:02:05Z</time>
      </trkpt>
      <trkpt lat="46.05419" lon="5.71316">
        <ele>1178.23</ele>
        <time>2020-05-31T08:02:06Z</time>
      </trkpt>
      <trkpt lat="46.05416" lon="5.71317">
        <ele>1181.6</ele>
        <time>2020-05-31T08:02:19Z</time>
      </trkpt>
      <trkpt lat="46.05415" lon="5.71317">
        <ele>1182.08</ele>
        <time>2020-05-31T08:02:21Z</time>
      </trkpt>
      <trkpt lat="46.05414" lon="5.71317">
        <ele>1182.08</ele>
        <time>2020-05-31T08:02:22Z</time>
      </trkpt>
      <trkpt lat="46.05412" lon="5.71317">
        <ele>1182.08</ele>
        <time>2020-05-31T08:02:23Z</time>
      </trkpt>
      <trkpt lat="46.0541" lon="5.71318">
        <ele>1182.08</ele>
        <time>2020-05-31T08:02:24Z</time>
      </trkpt>
      <trkpt lat="46.05409" lon="5.71319">
        <ele>1182.08</ele>
        <time>2020-05-31T08:02:25Z</time>
      </trkpt>
      <trkpt lat="46.05407" lon="5.71321">
        <ele>1182.08</ele>
        <time>2020-05-31T08:02:26Z</time>
      </trkpt>
      <trkpt lat="46.05406" lon="5.71324">
        <ele>1182.56</ele>
        <time>2020-05-31T08:02:27Z</time>
      </trkpt>
      <trkpt lat="46.05405" lon="5.71326">
        <ele>1182.56</ele>
        <time>2020-05-31T08:02:28Z</time>
      </trkpt>
      <trkpt lat="46.05405" lon="5.71332">
        <ele>1183.04</ele>
        <time>2020-05-31T08:02:30Z</time>
      </trkpt>
      <trkpt lat="46.05408" lon="5.71345">
        <ele>1184</ele>
        <time>2020-05-31T08:02:35Z</time>
      </trkpt>
      <trkpt lat="46.05414" lon="5.71349">
        <ele>1184.48</ele>
        <time>2020-05-31T08:02:39Z</time>
      </trkpt>
      <trkpt lat="46.05416" lon="5.71349">
        <ele>1184.48</ele>
        <time>2020-05-31T08:02:40Z</time>
      </trkpt>
      <trkpt lat="46.05422" lon="5.71354">
        <ele>1185.44</ele>
        <time>2020-05-31T08:02:44Z</time>
      </trkpt>
      <trkpt lat="46.05423" lon="5.71356">
        <ele>1185.44</ele>
        <time>2020-05-31T08:02:45Z</time>
      </trkpt>
      <trkpt lat="46.05424" lon="5.71357">
        <ele>1185.92</ele>
        <time>2020-05-31T08:02:46Z</time>
      </trkpt>
      <trkpt lat="46.05426" lon="5.71359">
        <ele>1185.92</ele>
        <time>2020-05-31T08:02:47Z</time>
      </trkpt>
      <trkpt lat="46.05427" lon="5.7136">
        <ele>1186.4</ele>
        <time>2020-05-31T08:02:48Z</time>
      </trkpt>
      <trkpt lat="46.05429" lon="5.71361">
        <ele>1186.4</ele>
        <time>2020-05-31T08:02:49Z</time>
      </trkpt>
      <trkpt lat="46.0543" lon="5.71362">
        <ele>1186.88</ele>
        <time>2020-05-31T08:02:50Z</time>
      </trkpt>
      <trkpt lat="46.05445" lon="5.71379">
        <ele>1190.25</ele>
        <time>2020-05-31T08:03:02Z</time>
      </trkpt>
      <trkpt lat="46.05461" lon="5.71416">
        <ele>1194.09</ele>
        <time>2020-05-31T08:03:20Z</time>
      </trkpt>
      <trkpt lat="46.05469" lon="5.71449">
        <ele>1196.5</ele>
        <time>2020-05-31T08:03:34Z</time>
      </trkpt>
      <trkpt lat="46.05478" lon="5.71491">
        <ele>1197.94</ele>
        <time>2020-05-31T08:03:50Z</time>
      </trkpt>
      <trkpt lat="46.05483" lon="5.71521">
        <ele>1199.38</ele>
        <time>2020-05-31T08:04:01Z</time>
      </trkpt>
      <trkpt lat="46.05492" lon="5.71556">
        <ele>1203.23</ele>
        <time>2020-05-31T08:04:14Z</time>
      </trkpt>
      <trkpt lat="46.05493" lon="5.71583">
        <ele>1205.15</ele>
        <time>2020-05-31T08:04:26Z</time>
      </trkpt>
      <trkpt lat="46.05493" lon="5.71586">
        <ele>1205.15</ele>
        <time>2020-05-31T08:04:27Z</time>
      </trkpt>
      <trkpt lat="46.05494" lon="5.71622">
        <ele>1209</ele>
        <time>2020-05-31T08:04:42Z</time>
      </trkpt>
      <trkpt lat="46.05493" lon="5.71659">
        <ele>1216.69</ele>
        <time>2020-05-31T08:05:01Z</time>
      </trkpt>
      <trkpt lat="46.05493" lon="5.71661">
        <ele>1217.17</ele>
        <time>2020-05-31T08:05:02Z</time>
      </trkpt>
      <trkpt lat="46.05493" lon="5.71663">
        <ele>1217.17</ele>
        <time>2020-05-31T08:05:03Z</time>
      </trkpt>
      <trkpt lat="46.05492" lon="5.71665">
        <ele>1217.65</ele>
        <time>2020-05-31T08:05:04Z</time>
      </trkpt>
      <trkpt lat="46.05492" lon="5.71667">
        <ele>1217.65</ele>
        <time>2020-05-31T08:05:05Z</time>
      </trkpt>
      <trkpt lat="46.05492" lon="5.71668">
        <ele>1217.65</ele>
        <time>2020-05-31T08:05:06Z</time>
      </trkpt>
      <trkpt lat="46.05492" lon="5.7167">
        <ele>1218.13</ele>
        <time>2020-05-31T08:05:07Z</time>
      </trkpt>
      <trkpt lat="46.05492" lon="5.71673">
        <ele>1218.61</ele>
        <time>2020-05-31T08:05:08Z</time>
      </trkpt>
      <trkpt lat="46.05492" lon="5.71674">
        <ele>1218.61</ele>
        <time>2020-05-31T08:05:09Z</time>
      </trkpt>
      <trkpt lat="46.05493" lon="5.71676">
        <ele>1219.09</ele>
        <time>2020-05-31T08:05:10Z</time>
      </trkpt>
      <trkpt lat="46.05494" lon="5.71678">
        <ele>1219.57</ele>
        <time>2020-05-31T08:05:11Z</time>
      </trkpt>
      <trkpt lat="46.05494" lon="5.71679">
        <ele>1219.57</ele>
        <time>2020-05-31T08:05:12Z</time>
      </trkpt>
      <trkpt lat="46.05495" lon="5.71681">
        <ele>1219.57</ele>
        <time>2020-05-31T08:05:13Z</time>
      </trkpt>
      <trkpt lat="46.05496" lon="5.71682">
        <ele>1220.05</ele>
        <time>2020-05-31T08:05:14Z</time>
      </trkpt>
      <trkpt lat="46.05497" lon="5.71683">
        <ele>1220.53</ele>
        <time>2020-05-31T08:05:15Z</time>
      </trkpt>
      <trkpt lat="46.05498" lon="5.71685">
        <ele>1220.53</ele>
        <time>2020-05-31T08:05:16Z</time>
      </trkpt>
      <trkpt lat="46.05499" lon="5.71686">
        <ele>1220.53</ele>
        <time>2020-05-31T08:05:17Z</time>
      </trkpt>
      <trkpt lat="46.055" lon="5.71686">
        <ele>1221.01</ele>
        <time>2020-05-31T08:05:18Z</time>
      </trkpt>
      <trkpt lat="46.05502" lon="5.71688">
        <ele>1221.49</ele>
        <time>2020-05-31T08:05:20Z</time>
      </trkpt>
      <trkpt lat="46.05504" lon="5.71688">
        <ele>1221.49</ele>
        <time>2020-05-31T08:05:21Z</time>
      </trkpt>
      <trkpt lat="46.05505" lon="5.71688">
        <ele>1221.97</ele>
        <time>2020-05-31T08:05:22Z</time>
      </trkpt>
      <trkpt lat="46.05507" lon="5.71688">
        <ele>1221.97</ele>
        <time>2020-05-31T08:05:23Z</time>
      </trkpt>
      <trkpt lat="46.05508" lon="5.71689">
        <ele>1221.97</ele>
        <time>2020-05-31T08:05:24Z</time>
      </trkpt>
      <trkpt lat="46.05511" lon="5.71688">
        <ele>1222.45</ele>
        <time>2020-05-31T08:05:26Z</time>
      </trkpt>
      <trkpt lat="46.05518" lon="5.71687">
        <ele>1222.45</ele>
        <time>2020-05-31T08:05:30Z</time>
      </trkpt>
      <trkpt lat="46.05519" lon="5.71688">
        <ele>1222.45</ele>
        <time>2020-05-31T08:05:31Z</time>
      </trkpt>
      <trkpt lat="46.05521" lon="5.71689">
        <ele>1222.45</ele>
        <time>2020-05-31T08:05:34Z</time>
      </trkpt>
      <trkpt lat="46.05522" lon="5.7169">
        <ele>1222.45</ele>
        <time>2020-05-31T08:05:35Z</time>
      </trkpt>
      <trkpt lat="46.0552" lon="5.71694">
        <ele>1222.93</ele>
        <time>2020-05-31T08:05:37Z</time>
      </trkpt>
      <trkpt lat="46.05519" lon="5.71694">
        <ele>1223.42</ele>
        <time>2020-05-31T08:05:38Z</time>
      </trkpt>
      <trkpt lat="46.05518" lon="5.71694">
        <ele>1223.42</ele>
        <time>2020-05-31T08:05:39Z</time>
      </trkpt>
      <trkpt lat="46.0551" lon="5.71689">
        <ele>1222.93</ele>
        <time>2020-05-31T08:05:45Z</time>
      </trkpt>
      <trkpt lat="46.05509" lon="5.7169">
        <ele>1222.93</ele>
        <time>2020-05-31T08:05:46Z</time>
      </trkpt>
      <trkpt lat="46.05507" lon="5.71691">
        <ele>1222.93</ele>
        <time>2020-05-31T08:05:47Z</time>
      </trkpt>
      <trkpt lat="46.05496" lon="5.71689">
        <ele>1219.09</ele>
        <time>2020-05-31T08:06:01Z</time>
      </trkpt>
      <trkpt lat="46.05496" lon="5.71689">
        <ele>1217.65</ele>
        <time>2020-05-31T08:06:17Z</time>
      </trkpt>
      <trkpt lat="46.05495" lon="5.71691">
        <ele>1217.65</ele>
        <time>2020-05-31T08:06:18Z</time>
      </trkpt>
      <trkpt lat="46.05493" lon="5.71694">
        <ele>1217.65</ele>
        <time>2020-05-31T08:06:30Z</time>
      </trkpt>
      <trkpt lat="46.05494" lon="5.71698">
        <ele>1217.17</ele>
        <time>2020-05-31T08:07:03Z</time>
      </trkpt>
      <trkpt lat="46.05495" lon="5.71695">
        <ele>1213.32</ele>
        <time>2020-05-31T08:07:33Z</time>
      </trkpt>
      <trkpt lat="46.05494" lon="5.71695">
        <ele>1213.8</ele>
        <time>2020-05-31T08:07:40Z</time>
      </trkpt>
      <trkpt lat="46.05494" lon="5.71693">
        <ele>1214.28</ele>
        <time>2020-05-31T08:07:41Z</time>
      </trkpt>
      <trkpt lat="46.05498" lon="5.71692">
        <ele>1215.72</ele>
        <time>2020-05-31T08:07:50Z</time>
      </trkpt>
      <trkpt lat="46.05499" lon="5.71692">
        <ele>1217.17</ele>
        <time>2020-05-31T08:08:09Z</time>
      </trkpt>
      <trkpt lat="46.05502" lon="5.71692">
        <ele>1219.09</ele>
        <time>2020-05-31T08:08:16Z</time>
      </trkpt>
      <trkpt lat="46.05504" lon="5.71692">
        <ele>1219.09</ele>
        <time>2020-05-31T08:08:17Z</time>
      </trkpt>
      <trkpt lat="46.05505" lon="5.71692">
        <ele>1219.57</ele>
        <time>2020-05-31T08:08:18Z</time>
      </trkpt>
      <trkpt lat="46.05506" lon="5.71692">
        <ele>1220.05</ele>
        <time>2020-05-31T08:08:19Z</time>
      </trkpt>
      <trkpt lat="46.05508" lon="5.71692">
        <ele>1220.53</ele>
        <time>2020-05-31T08:08:20Z</time>
      </trkpt>
      <trkpt lat="46.0551" lon="5.71691">
        <ele>1221.01</ele>
        <time>2020-05-31T08:08:21Z</time>
      </trkpt>
      <trkpt lat="46.05511" lon="5.71691">
        <ele>1221.01</ele>
        <time>2020-05-31T08:08:22Z</time>
      </trkpt>
      <trkpt lat="46.05513" lon="5.71691">
        <ele>1221.49</ele>
        <time>2020-05-31T08:08:23Z</time>
      </trkpt>
      <trkpt lat="46.05514" lon="5.7169">
        <ele>1221.49</ele>
        <time>2020-05-31T08:08:24Z</time>
      </trkpt>
      <trkpt lat="46.05515" lon="5.71688">
        <ele>1220.53</ele>
        <time>2020-05-31T08:08:39Z</time>
      </trkpt>
      <trkpt lat="46.05514" lon="5.71687">
        <ele>1220.05</ele>
        <time>2020-05-31T08:09:05Z</time>
      </trkpt>
      <trkpt lat="46.05515" lon="5.71689">
        <ele>1217.17</ele>
        <time>2020-05-31T08:09:45Z</time>
      </trkpt>
      <trkpt lat="46.05517" lon="5.7169">
        <ele>1216.21</ele>
        <time>2020-05-31T08:10:16Z</time>
      </trkpt>
      <trkpt lat="46.05515" lon="5.7169">
        <ele>1215.72</ele>
        <time>2020-05-31T08:10:39Z</time>
      </trkpt>
      <trkpt lat="46.05518" lon="5.71688">
        <ele>1216.69</ele>
        <time>2020-05-31T08:10:45Z</time>
      </trkpt>
      <trkpt lat="46.05519" lon="5.71689">
        <ele>1217.17</ele>
        <time>2020-05-31T08:10:46Z</time>
      </trkpt>
      <trkpt lat="46.05528" lon="5.71721">
        <ele>1218.13</ele>
        <time>2020-05-31T08:10:58Z</time>
      </trkpt>
      <trkpt lat="46.05541" lon="5.71777">
        <ele>1219.57</ele>
        <time>2020-05-31T08:11:11Z</time>
      </trkpt>
      <trkpt lat="46.05542" lon="5.71826">
        <ele>1222.45</ele>
        <time>2020-05-31T08:11:26Z</time>
      </trkpt>
      <trkpt lat="46.05548" lon="5.71869">
        <ele>1225.34</ele>
        <time>2020-05-31T08:11:42Z</time>
      </trkpt>
      <trkpt lat="46.05549" lon="5.71869">
        <ele>1225.34</ele>
        <time>2020-05-31T08:11:43Z</time>
      </trkpt>
      <trkpt lat="46.05554" lon="5.71867">
        <ele>1225.34</ele>
        <time>2020-05-31T08:11:52Z</time>
      </trkpt>
      <trkpt lat="46.05554" lon="5.71868">
        <ele>1225.82</ele>
        <time>2020-05-31T08:11:54Z</time>
      </trkpt>
      <trkpt lat="46.05556" lon="5.71868">
        <ele>1224.38</ele>
        <time>2020-05-31T08:12:07Z</time>
      </trkpt>
      <trkpt lat="46.05553" lon="5.7187">
        <ele>1225.82</ele>
        <time>2020-05-31T08:12:28Z</time>
      </trkpt>
      <trkpt lat="46.05555" lon="5.7188">
        <ele>1226.3</ele>
        <time>2020-05-31T08:12:33Z</time>
      </trkpt>
      <trkpt lat="46.05573" lon="5.71916">
        <ele>1231.11</ele>
        <time>2020-05-31T08:12:49Z</time>
      </trkpt>
      <trkpt lat="46.05607" lon="5.71942">
        <ele>1233.51</ele>
        <time>2020-05-31T08:13:07Z</time>
      </trkpt>
      <trkpt lat="46.05638" lon="5.71933">
        <ele>1232.55</ele>
        <time>2020-05-31T08:13:19Z</time>
      </trkpt>
      <trkpt lat="46.05642" lon="5.71932">
        <ele>1232.07</ele>
        <time>2020-05-31T08:13:20Z</time>
      </trkpt>
      <trkpt lat="46.05647" lon="5.71932">
        <ele>1232.07</ele>
        <time>2020-05-31T08:13:21Z</time>
      </trkpt>
      <trkpt lat="46.05651" lon="5.71934">
        <ele>1232.07</ele>
        <time>2020-05-31T08:13:22Z</time>
      </trkpt>
      <trkpt lat="46.05655" lon="5.71936">
        <ele>1232.07</ele>
        <time>2020-05-31T08:13:23Z</time>
      </trkpt>
      <trkpt lat="46.05658" lon="5.71938">
        <ele>1232.07</ele>
        <time>2020-05-31T08:13:24Z</time>
      </trkpt>
      <trkpt lat="46.05698" lon="5.71968">
        <ele>1231.11</ele>
        <time>2020-05-31T08:13:39Z</time>
      </trkpt>
      <trkpt lat="46.05716" lon="5.71986">
        <ele>1230.62</ele>
        <time>2020-05-31T08:13:52Z</time>
      </trkpt>
      <trkpt lat="46.05716" lon="5.71988">
        <ele>1230.62</ele>
        <time>2020-05-31T08:13:55Z</time>
      </trkpt>
      <trkpt lat="46.05717" lon="5.71995">
        <ele>1229.66</ele>
        <time>2020-05-31T08:14:00Z</time>
      </trkpt>
      <trkpt lat="46.05724" lon="5.71996">
        <ele>1229.66</ele>
        <time>2020-05-31T08:14:11Z</time>
      </trkpt>
      <trkpt lat="46.05722" lon="5.71994">
        <ele>1230.62</ele>
        <time>2020-05-31T08:14:28Z</time>
      </trkpt>
      <trkpt lat="46.05724" lon="5.71995">
        <ele>1231.11</ele>
        <time>2020-05-31T08:14:59Z</time>
      </trkpt>
      <trkpt lat="46.05732" lon="5.72004">
        <ele>1231.11</ele>
        <time>2020-05-31T08:15:16Z</time>
      </trkpt>
      <trkpt lat="46.05739" lon="5.72008">
        <ele>1231.59</ele>
        <time>2020-05-31T08:15:20Z</time>
      </trkpt>
      <trkpt lat="46.05741" lon="5.72009">
        <ele>1231.59</ele>
        <time>2020-05-31T08:15:21Z</time>
      </trkpt>
      <trkpt lat="46.05742" lon="5.7201">
        <ele>1231.59</ele>
        <time>2020-05-31T08:15:22Z</time>
      </trkpt>
      <trkpt lat="46.05743" lon="5.72011">
        <ele>1231.59</ele>
        <time>2020-05-31T08:15:23Z</time>
      </trkpt>
      <trkpt lat="46.05744" lon="5.72013">
        <ele>1231.59</ele>
        <time>2020-05-31T08:15:24Z</time>
      </trkpt>
      <trkpt lat="46.05746" lon="5.72014">
        <ele>1231.59</ele>
        <time>2020-05-31T08:15:25Z</time>
      </trkpt>
      <trkpt lat="46.05747" lon="5.72015">
        <ele>1231.59</ele>
        <time>2020-05-31T08:15:26Z</time>
      </trkpt>
      <trkpt lat="46.05749" lon="5.72016">
        <ele>1231.59</ele>
        <time>2020-05-31T08:15:27Z</time>
      </trkpt>
      <trkpt lat="46.0575" lon="5.72017">
        <ele>1231.59</ele>
        <time>2020-05-31T08:15:28Z</time>
      </trkpt>
      <trkpt lat="46.05752" lon="5.72018">
        <ele>1231.59</ele>
        <time>2020-05-31T08:15:29Z</time>
      </trkpt>
      <trkpt lat="46.05754" lon="5.72019">
        <ele>1231.59</ele>
        <time>2020-05-31T08:15:30Z</time>
      </trkpt>
      <trkpt lat="46.05756" lon="5.72022">
        <ele>1231.59</ele>
        <time>2020-05-31T08:15:32Z</time>
      </trkpt>
      <trkpt lat="46.05775" lon="5.72042">
        <ele>1231.59</ele>
        <time>2020-05-31T08:15:47Z</time>
      </trkpt>
      <trkpt lat="46.05802" lon="5.72066">
        <ele>1232.55</ele>
        <time>2020-05-31T08:16:02Z</time>
      </trkpt>
      <trkpt lat="46.05806" lon="5.7207">
        <ele>1232.55</ele>
        <time>2020-05-31T08:16:04Z</time>
      </trkpt>
      <trkpt lat="46.05807" lon="5.72072">
        <ele>1232.55</ele>
        <time>2020-05-31T08:16:05Z</time>
      </trkpt>
      <trkpt lat="46.05809" lon="5.72074">
        <ele>1232.55</ele>
        <time>2020-05-31T08:16:06Z</time>
      </trkpt>
      <trkpt lat="46.0581" lon="5.72076">
        <ele>1232.55</ele>
        <time>2020-05-31T08:16:07Z</time>
      </trkpt>
      <trkpt lat="46.05812" lon="5.72077">
        <ele>1232.55</ele>
        <time>2020-05-31T08:16:08Z</time>
      </trkpt>
      <trkpt lat="46.05826" lon="5.72092">
        <ele>1233.99</ele>
        <time>2020-05-31T08:16:17Z</time>
      </trkpt>
      <trkpt lat="46.05828" lon="5.72093">
        <ele>1234.47</ele>
        <time>2020-05-31T08:16:18Z</time>
      </trkpt>
      <trkpt lat="46.05852" lon="5.7211">
        <ele>1237.83</ele>
        <time>2020-05-31T08:16:32Z</time>
      </trkpt>
      <trkpt lat="46.05854" lon="5.72111">
        <ele>1238.32</ele>
        <time>2020-05-31T08:16:33Z</time>
      </trkpt>
      <trkpt lat="46.05856" lon="5.72113">
        <ele>1238.32</ele>
        <time>2020-05-31T08:16:34Z</time>
      </trkpt>
      <trkpt lat="46.05877" lon="5.72128">
        <ele>1239.28</ele>
        <time>2020-05-31T08:16:50Z</time>
      </trkpt>
      <trkpt lat="46.05896" lon="5.72144">
        <ele>1241.68</ele>
        <time>2020-05-31T08:17:05Z</time>
      </trkpt>
      <trkpt lat="46.05916" lon="5.7216">
        <ele>1243.6</ele>
        <time>2020-05-31T08:17:19Z</time>
      </trkpt>
      <trkpt lat="46.05936" lon="5.72178">
        <ele>1245.53</ele>
        <time>2020-05-31T08:17:34Z</time>
      </trkpt>
      <trkpt lat="46.05938" lon="5.72182">
        <ele>1245.04</ele>
        <time>2020-05-31T08:17:36Z</time>
      </trkpt>
      <trkpt lat="46.05938" lon="5.72184">
        <ele>1244.56</ele>
        <time>2020-05-31T08:17:37Z</time>
      </trkpt>
      <trkpt lat="46.05939" lon="5.72186">
        <ele>1244.08</ele>
        <time>2020-05-31T08:17:38Z</time>
      </trkpt>
      <trkpt lat="46.0594" lon="5.72188">
        <ele>1244.08</ele>
        <time>2020-05-31T08:17:39Z</time>
      </trkpt>
      <trkpt lat="46.05941" lon="5.7219">
        <ele>1244.08</ele>
        <time>2020-05-31T08:17:40Z</time>
      </trkpt>
      <trkpt lat="46.05942" lon="5.72192">
        <ele>1244.08</ele>
        <time>2020-05-31T08:17:41Z</time>
      </trkpt>
      <trkpt lat="46.05943" lon="5.72193">
        <ele>1244.08</ele>
        <time>2020-05-31T08:17:42Z</time>
      </trkpt>
      <trkpt lat="46.05945" lon="5.72194">
        <ele>1244.56</ele>
        <time>2020-05-31T08:17:43Z</time>
      </trkpt>
      <trkpt lat="46.05947" lon="5.72194">
        <ele>1245.04</ele>
        <time>2020-05-31T08:17:44Z</time>
      </trkpt>
      <trkpt lat="46.05948" lon="5.72194">
        <ele>1245.53</ele>
        <time>2020-05-31T08:17:45Z</time>
      </trkpt>
      <trkpt lat="46.05949" lon="5.72195">
        <ele>1246.01</ele>
        <time>2020-05-31T08:17:46Z</time>
      </trkpt>
      <trkpt lat="46.05976" lon="5.72194">
        <ele>1253.22</ele>
        <time>2020-05-31T08:18:02Z</time>
      </trkpt>
      <trkpt lat="46.05999" lon="5.72191">
        <ele>1257.54</ele>
        <time>2020-05-31T08:18:15Z</time>
      </trkpt>
      <trkpt lat="46.06001" lon="5.72191">
        <ele>1257.54</ele>
        <time>2020-05-31T08:18:16Z</time>
      </trkpt>
      <trkpt lat="46.06002" lon="5.72192">
        <ele>1257.06</ele>
        <time>2020-05-31T08:18:17Z</time>
      </trkpt>
      <trkpt lat="46.06018" lon="5.72198">
        <ele>1256.58</ele>
        <time>2020-05-31T08:18:31Z</time>
      </trkpt>
      <trkpt lat="46.0602" lon="5.722">
        <ele>1256.58</ele>
        <time>2020-05-31T08:18:33Z</time>
      </trkpt>
      <trkpt lat="46.06028" lon="5.72205">
        <ele>1258.5</ele>
        <time>2020-05-31T08:18:39Z</time>
      </trkpt>
      <trkpt lat="46.06032" lon="5.72212">
        <ele>1260.43</ele>
        <time>2020-05-31T08:18:44Z</time>
      </trkpt>
      <trkpt lat="46.06038" lon="5.72218">
        <ele>1261.87</ele>
        <time>2020-05-31T08:18:49Z</time>
      </trkpt>
      <trkpt lat="46.06044" lon="5.72229">
        <ele>1263.79</ele>
        <time>2020-05-31T08:19:01Z</time>
      </trkpt>
      <trkpt lat="46.06052" lon="5.72239">
        <ele>1265.71</ele>
        <time>2020-05-31T08:19:15Z</time>
      </trkpt>
      <trkpt lat="46.06053" lon="5.72239">
        <ele>1265.71</ele>
        <time>2020-05-31T08:19:16Z</time>
      </trkpt>
      <trkpt lat="46.06069" lon="5.7225">
        <ele>1266.19</ele>
        <time>2020-05-31T08:19:33Z</time>
      </trkpt>
      <trkpt lat="46.06079" lon="5.72255">
        <ele>1265.23</ele>
        <time>2020-05-31T08:19:45Z</time>
      </trkpt>
      <trkpt lat="46.06083" lon="5.72256">
        <ele>1265.71</ele>
        <time>2020-05-31T08:19:47Z</time>
      </trkpt>
      <trkpt lat="46.06092" lon="5.72248">
        <ele>1266.19</ele>
        <time>2020-05-31T08:19:53Z</time>
      </trkpt>
      <trkpt lat="46.06101" lon="5.72215">
        <ele>1268.12</ele>
        <time>2020-05-31T08:20:08Z</time>
      </trkpt>
      <trkpt lat="46.06105" lon="5.72182">
        <ele>1269.08</ele>
        <time>2020-05-31T08:20:22Z</time>
      </trkpt>
      <trkpt lat="46.06114" lon="5.72154">
        <ele>1270.52</ele>
        <time>2020-05-31T08:20:37Z</time>
      </trkpt>
      <trkpt lat="46.06116" lon="5.72148">
        <ele>1270.04</ele>
        <time>2020-05-31T08:20:51Z</time>
      </trkpt>
      <trkpt lat="46.06116" lon="5.72149">
        <ele>1269.56</ele>
        <time>2020-05-31T08:21:13Z</time>
      </trkpt>
      <trkpt lat="46.06116" lon="5.72149">
        <ele>1270.04</ele>
        <time>2020-05-31T08:21:35Z</time>
      </trkpt>
      <trkpt lat="46.06118" lon="5.72151">
        <ele>1269.08</ele>
        <time>2020-05-31T08:22:14Z</time>
      </trkpt>
      <trkpt lat="46.06116" lon="5.72151">
        <ele>1270.52</ele>
        <time>2020-05-31T08:22:45Z</time>
      </trkpt>
      <trkpt lat="46.06116" lon="5.72149">
        <ele>1270.52</ele>
        <time>2020-05-31T08:23:24Z</time>
      </trkpt>
      <trkpt lat="46.06117" lon="5.72149">
        <ele>1270.52</ele>
        <time>2020-05-31T08:23:51Z</time>
      </trkpt>
      <trkpt lat="46.06117" lon="5.72149">
        <ele>1268.12</ele>
        <time>2020-05-31T08:24:16Z</time>
      </trkpt>
      <trkpt lat="46.06117" lon="5.72149">
        <ele>1269.08</ele>
        <time>2020-05-31T08:24:51Z</time>
      </trkpt>
      <trkpt lat="46.06125" lon="5.72136">
        <ele>1267.64</ele>
        <time>2020-05-31T08:25:11Z</time>
      </trkpt>
      <trkpt lat="46.06146" lon="5.72107">
        <ele>1263.31</ele>
        <time>2020-05-31T08:25:21Z</time>
      </trkpt>
      <trkpt lat="46.06163" lon="5.72079">
        <ele>1261.39</ele>
        <time>2020-05-31T08:25:30Z</time>
      </trkpt>
      <trkpt lat="46.06165" lon="5.72078">
        <ele>1261.39</ele>
        <time>2020-05-31T08:25:31Z</time>
      </trkpt>
      <trkpt lat="46.06194" lon="5.72069">
        <ele>1259.46</ele>
        <time>2020-05-31T08:25:42Z</time>
      </trkpt>
      <trkpt lat="46.06212" lon="5.7206">
        <ele>1258.98</ele>
        <time>2020-05-31T08:25:53Z</time>
      </trkpt>
      <trkpt lat="46.06213" lon="5.7206">
        <ele>1258.5</ele>
        <time>2020-05-31T08:26:04Z</time>
      </trkpt>
      <trkpt lat="46.06215" lon="5.7206">
        <ele>1258.98</ele>
        <time>2020-05-31T08:26:05Z</time>
      </trkpt>
      <trkpt lat="46.06248" lon="5.72053">
        <ele>1257.54</ele>
        <time>2020-05-31T08:26:16Z</time>
      </trkpt>
      <trkpt lat="46.06288" lon="5.72029">
        <ele>1255.14</ele>
        <time>2020-05-31T08:26:28Z</time>
      </trkpt>
      <trkpt lat="46.06327" lon="5.7197">
        <ele>1255.62</ele>
        <time>2020-05-31T08:26:44Z</time>
      </trkpt>
      <trkpt lat="46.06353" lon="5.71926">
        <ele>1255.62</ele>
        <time>2020-05-31T08:26:56Z</time>
      </trkpt>
      <trkpt lat="46.0638" lon="5.71887">
        <ele>1255.14</ele>
        <time>2020-05-31T08:27:08Z</time>
      </trkpt>
      <trkpt lat="46.0641" lon="5.71867">
        <ele>1251.77</ele>
        <time>2020-05-31T08:27:17Z</time>
      </trkpt>
      <trkpt lat="46.06413" lon="5.71864">
        <ele>1250.81</ele>
        <time>2020-05-31T08:27:18Z</time>
      </trkpt>
      <trkpt lat="46.0644" lon="5.7184">
        <ele>1247.93</ele>
        <time>2020-05-31T08:27:27Z</time>
      </trkpt>
      <trkpt lat="46.06449" lon="5.71834">
        <ele>1246.97</ele>
        <time>2020-05-31T08:27:29Z</time>
      </trkpt>
      <trkpt lat="46.06453" lon="5.7183">
        <ele>1246.49</ele>
        <time>2020-05-31T08:27:30Z</time>
      </trkpt>
      <trkpt lat="46.06457" lon="5.71827">
        <ele>1246.49</ele>
        <time>2020-05-31T08:27:31Z</time>
      </trkpt>
      <trkpt lat="46.06462" lon="5.71825">
        <ele>1246.01</ele>
        <time>2020-05-31T08:27:32Z</time>
      </trkpt>
      <trkpt lat="46.06466" lon="5.71823">
        <ele>1245.53</ele>
        <time>2020-05-31T08:27:33Z</time>
      </trkpt>
      <trkpt lat="46.06497" lon="5.71806">
        <ele>1241.2</ele>
        <time>2020-05-31T08:27:41Z</time>
      </trkpt>
      <trkpt lat="46.06502" lon="5.71801">
        <ele>1240.72</ele>
        <time>2020-05-31T08:27:42Z</time>
      </trkpt>
      <trkpt lat="46.06517" lon="5.71788">
        <ele>1240.72</ele>
        <time>2020-05-31T08:27:45Z</time>
      </trkpt>
      <trkpt lat="46.06522" lon="5.71784">
        <ele>1240.72</ele>
        <time>2020-05-31T08:27:46Z</time>
      </trkpt>
      <trkpt lat="46.06534" lon="5.71774">
        <ele>1240.24</ele>
        <time>2020-05-31T08:27:49Z</time>
      </trkpt>
      <trkpt lat="46.06561" lon="5.71759">
        <ele>1240.24</ele>
        <time>2020-05-31T08:27:58Z</time>
      </trkpt>
      <trkpt lat="46.06564" lon="5.71757">
        <ele>1240.24</ele>
        <time>2020-05-31T08:27:59Z</time>
      </trkpt>
      <trkpt lat="46.06568" lon="5.71754">
        <ele>1239.76</ele>
        <time>2020-05-31T08:28:00Z</time>
      </trkpt>
      <trkpt lat="46.06572" lon="5.71752">
        <ele>1239.76</ele>
        <time>2020-05-31T08:28:01Z</time>
      </trkpt>
      <trkpt lat="46.06576" lon="5.71748">
        <ele>1239.28</ele>
        <time>2020-05-31T08:28:02Z</time>
      </trkpt>
      <trkpt lat="46.0658" lon="5.71745">
        <ele>1239.28</ele>
        <time>2020-05-31T08:28:03Z</time>
      </trkpt>
      <trkpt lat="46.06583" lon="5.71741">
        <ele>1239.28</ele>
        <time>2020-05-31T08:28:04Z</time>
      </trkpt>
      <trkpt lat="46.06587" lon="5.71736">
        <ele>1239.28</ele>
        <time>2020-05-31T08:28:05Z</time>
      </trkpt>
      <trkpt lat="46.06591" lon="5.71733">
        <ele>1239.28</ele>
        <time>2020-05-31T08:28:06Z</time>
      </trkpt>
      <trkpt lat="46.06594" lon="5.7173">
        <ele>1239.28</ele>
        <time>2020-05-31T08:28:07Z</time>
      </trkpt>
      <trkpt lat="46.06598" lon="5.71728">
        <ele>1239.28</ele>
        <time>2020-05-31T08:28:08Z</time>
      </trkpt>
      <trkpt lat="46.06601" lon="5.71724">
        <ele>1239.28</ele>
        <time>2020-05-31T08:28:09Z</time>
      </trkpt>
      <trkpt lat="46.06604" lon="5.71721">
        <ele>1239.28</ele>
        <time>2020-05-31T08:28:10Z</time>
      </trkpt>
      <trkpt lat="46.06608" lon="5.71719">
        <ele>1238.8</ele>
        <time>2020-05-31T08:28:11Z</time>
      </trkpt>
      <trkpt lat="46.06611" lon="5.71717">
        <ele>1238.8</ele>
        <time>2020-05-31T08:28:12Z</time>
      </trkpt>
      <trkpt lat="46.06616" lon="5.71715">
        <ele>1238.32</ele>
        <time>2020-05-31T08:28:13Z</time>
      </trkpt>
      <trkpt lat="46.0662" lon="5.71713">
        <ele>1237.83</ele>
        <time>2020-05-31T08:28:14Z</time>
      </trkpt>
      <trkpt lat="46.06625" lon="5.71709">
        <ele>1237.35</ele>
        <time>2020-05-31T08:28:15Z</time>
      </trkpt>
      <trkpt lat="46.0663" lon="5.71707">
        <ele>1236.87</ele>
        <time>2020-05-31T08:28:16Z</time>
      </trkpt>
      <trkpt lat="46.06636" lon="5.71705">
        <ele>1236.39</ele>
        <time>2020-05-31T08:28:17Z</time>
      </trkpt>
      <trkpt lat="46.0664" lon="5.71703">
        <ele>1236.39</ele>
        <time>2020-05-31T08:28:18Z</time>
      </trkpt>
      <trkpt lat="46.06645" lon="5.717">
        <ele>1236.39</ele>
        <time>2020-05-31T08:28:19Z</time>
      </trkpt>
      <trkpt lat="46.0665" lon="5.71699">
        <ele>1235.91</ele>
        <time>2020-05-31T08:28:20Z</time>
      </trkpt>
      <trkpt lat="46.06659" lon="5.71697">
        <ele>1235.91</ele>
        <time>2020-05-31T08:28:22Z</time>
      </trkpt>
      <trkpt lat="46.06663" lon="5.71695">
        <ele>1235.91</ele>
        <time>2020-05-31T08:28:23Z</time>
      </trkpt>
      <trkpt lat="46.06679" lon="5.71692">
        <ele>1235.43</ele>
        <time>2020-05-31T08:28:27Z</time>
      </trkpt>
      <trkpt lat="46.06717" lon="5.71694">
        <ele>1237.83</ele>
        <time>2020-05-31T08:28:37Z</time>
      </trkpt>
      <trkpt lat="46.0672" lon="5.71694">
        <ele>1237.83</ele>
        <time>2020-05-31T08:28:38Z</time>
      </trkpt>
      <trkpt lat="46.06723" lon="5.71695">
        <ele>1237.83</ele>
        <time>2020-05-31T08:28:39Z</time>
      </trkpt>
      <trkpt lat="46.06726" lon="5.71696">
        <ele>1238.32</ele>
        <time>2020-05-31T08:28:40Z</time>
      </trkpt>
      <trkpt lat="46.06729" lon="5.71698">
        <ele>1238.32</ele>
        <time>2020-05-31T08:28:41Z</time>
      </trkpt>
      <trkpt lat="46.06731" lon="5.71699">
        <ele>1238.32</ele>
        <time>2020-05-31T08:28:42Z</time>
      </trkpt>
      <trkpt lat="46.06734" lon="5.717">
        <ele>1238.8</ele>
        <time>2020-05-31T08:28:43Z</time>
      </trkpt>
      <trkpt lat="46.06738" lon="5.71701">
        <ele>1238.8</ele>
        <time>2020-05-31T08:28:44Z</time>
      </trkpt>
      <trkpt lat="46.06774" lon="5.71702">
        <ele>1239.28</ele>
        <time>2020-05-31T08:28:56Z</time>
      </trkpt>
      <trkpt lat="46.0681" lon="5.71714">
        <ele>1242.64</ele>
        <time>2020-05-31T08:29:09Z</time>
      </trkpt>
      <trkpt lat="46.06843" lon="5.71733">
        <ele>1242.64</ele>
        <time>2020-05-31T08:29:24Z</time>
      </trkpt>
      <trkpt lat="46.06881" lon="5.71744">
        <ele>1243.12</ele>
        <time>2020-05-31T08:29:39Z</time>
      </trkpt>
      <trkpt lat="46.06923" lon="5.71756">
        <ele>1241.2</ele>
        <time>2020-05-31T08:29:51Z</time>
      </trkpt>
      <trkpt lat="46.06935" lon="5.71759">
        <ele>1240.72</ele>
        <time>2020-05-31T08:29:54Z</time>
      </trkpt>
      <trkpt lat="46.0694" lon="5.71761">
        <ele>1240.24</ele>
        <time>2020-05-31T08:29:55Z</time>
      </trkpt>
      <trkpt lat="46.07002" lon="5.7178">
        <ele>1240.24</ele>
        <time>2020-05-31T08:30:09Z</time>
      </trkpt>
      <trkpt lat="46.07007" lon="5.7178">
        <ele>1240.24</ele>
        <time>2020-05-31T08:30:10Z</time>
      </trkpt>
      <trkpt lat="46.07041" lon="5.7178">
        <ele>1240.24</ele>
        <time>2020-05-31T08:30:17Z</time>
      </trkpt>
      <trkpt lat="46.07046" lon="5.71781">
        <ele>1240.24</ele>
        <time>2020-05-31T08:30:18Z</time>
      </trkpt>
      <trkpt lat="46.0708" lon="5.71781">
        <ele>1237.83</ele>
        <time>2020-05-31T08:30:25Z</time>
      </trkpt>
      <trkpt lat="46.07086" lon="5.71782">
        <ele>1237.35</ele>
        <time>2020-05-31T08:30:26Z</time>
      </trkpt>
      <trkpt lat="46.07092" lon="5.71785">
        <ele>1236.87</ele>
        <time>2020-05-31T08:30:27Z</time>
      </trkpt>
      <trkpt lat="46.07097" lon="5.71789">
        <ele>1236.87</ele>
        <time>2020-05-31T08:30:28Z</time>
      </trkpt>
      <trkpt lat="46.07103" lon="5.71793">
        <ele>1236.39</ele>
        <time>2020-05-31T08:30:29Z</time>
      </trkpt>
      <trkpt lat="46.07119" lon="5.71808">
        <ele>1234.47</ele>
        <time>2020-05-31T08:30:32Z</time>
      </trkpt>
      <trkpt lat="46.07142" lon="5.71826">
        <ele>1233.99</ele>
        <time>2020-05-31T08:30:36Z</time>
      </trkpt>
      <trkpt lat="46.07147" lon="5.71827">
        <ele>1234.47</ele>
        <time>2020-05-31T08:30:37Z</time>
      </trkpt>
      <trkpt lat="46.07152" lon="5.71828">
        <ele>1234.95</ele>
        <time>2020-05-31T08:30:38Z</time>
      </trkpt>
      <trkpt lat="46.07157" lon="5.71827">
        <ele>1235.43</ele>
        <time>2020-05-31T08:30:39Z</time>
      </trkpt>
      <trkpt lat="46.0716" lon="5.71827">
        <ele>1235.43</ele>
        <time>2020-05-31T08:30:40Z</time>
      </trkpt>
      <trkpt lat="46.07165" lon="5.71827">
        <ele>1234.95</ele>
        <time>2020-05-31T08:30:42Z</time>
      </trkpt>
      <trkpt lat="46.07168" lon="5.7183">
        <ele>1234.95</ele>
        <time>2020-05-31T08:30:44Z</time>
      </trkpt>
      <trkpt lat="46.07159" lon="5.71829">
        <ele>1235.91</ele>
        <time>2020-05-31T08:30:52Z</time>
      </trkpt>
      <trkpt lat="46.07157" lon="5.71828">
        <ele>1235.43</ele>
        <time>2020-05-31T08:30:53Z</time>
      </trkpt>
      <trkpt lat="46.07155" lon="5.71829">
        <ele>1235.43</ele>
        <time>2020-05-31T08:30:54Z</time>
      </trkpt>
      <trkpt lat="46.07153" lon="5.71831">
        <ele>1235.43</ele>
        <time>2020-05-31T08:30:55Z</time>
      </trkpt>
      <trkpt lat="46.07152" lon="5.71832">
        <ele>1235.43</ele>
        <time>2020-05-31T08:30:56Z</time>
      </trkpt>
      <trkpt lat="46.0715" lon="5.71832">
        <ele>1235.43</ele>
        <time>2020-05-31T08:30:57Z</time>
      </trkpt>
      <trkpt lat="46.07153" lon="5.71826">
        <ele>1235.43</ele>
        <time>2020-05-31T08:31:02Z</time>
      </trkpt>
      <trkpt lat="46.07155" lon="5.71826">
        <ele>1235.43</ele>
        <time>2020-05-31T08:31:03Z</time>
      </trkpt>
      <trkpt lat="46.07157" lon="5.71827">
        <ele>1235.43</ele>
        <time>2020-05-31T08:31:04Z</time>
      </trkpt>
      <trkpt lat="46.07159" lon="5.71826">
        <ele>1235.43</ele>
        <time>2020-05-31T08:31:05Z</time>
      </trkpt>
      <trkpt lat="46.0716" lon="5.71825">
        <ele>1234.95</ele>
        <time>2020-05-31T08:31:06Z</time>
      </trkpt>
      <trkpt lat="46.07162" lon="5.71825">
        <ele>1234.95</ele>
        <time>2020-05-31T08:31:07Z</time>
      </trkpt>
      <trkpt lat="46.07194" lon="5.71827">
        <ele>1232.55</ele>
        <time>2020-05-31T08:31:19Z</time>
      </trkpt>
      <trkpt lat="46.07208" lon="5.71828">
        <ele>1231.59</ele>
        <time>2020-05-31T08:31:22Z</time>
      </trkpt>
      <trkpt lat="46.07265" lon="5.71841">
        <ele>1227.74</ele>
        <time>2020-05-31T08:31:32Z</time>
      </trkpt>
      <trkpt lat="46.07271" lon="5.71841">
        <ele>1227.74</ele>
        <time>2020-05-31T08:31:33Z</time>
      </trkpt>
      <trkpt lat="46.07277" lon="5.7184">
        <ele>1227.74</ele>
        <time>2020-05-31T08:31:34Z</time>
      </trkpt>
      <trkpt lat="46.07344" lon="5.7183">
        <ele>1225.34</ele>
        <time>2020-05-31T08:31:46Z</time>
      </trkpt>
      <trkpt lat="46.0735" lon="5.71829">
        <ele>1224.86</ele>
        <time>2020-05-31T08:31:47Z</time>
      </trkpt>
      <trkpt lat="46.0736" lon="5.7183">
        <ele>1224.86</ele>
        <time>2020-05-31T08:31:49Z</time>
      </trkpt>
      <trkpt lat="46.07396" lon="5.71838">
        <ele>1226.3</ele>
        <time>2020-05-31T08:31:59Z</time>
      </trkpt>
      <trkpt lat="46.07398" lon="5.71844">
        <ele>1225.82</ele>
        <time>2020-05-31T08:32:07Z</time>
      </trkpt>
      <trkpt lat="46.07398" lon="5.71844">
        <ele>1224.86</ele>
        <time>2020-05-31T08:32:13Z</time>
      </trkpt>
      <trkpt lat="46.07402" lon="5.71845">
        <ele>1224.86</ele>
        <time>2020-05-31T08:32:29Z</time>
      </trkpt>
      <trkpt lat="46.07402" lon="5.71845">
        <ele>1224.38</ele>
        <time>2020-05-31T08:32:48Z</time>
      </trkpt>
      <trkpt lat="46.07402" lon="5.71846">
        <ele>1224.86</ele>
        <time>2020-05-31T08:33:24Z</time>
      </trkpt>
      <trkpt lat="46.07408" lon="5.71847">
        <ele>1224.86</ele>
        <time>2020-05-31T08:33:47Z</time>
      </trkpt>
      <trkpt lat="46.0741" lon="5.71856">
        <ele>1224.38</ele>
        <time>2020-05-31T08:33:54Z</time>
      </trkpt>
      <trkpt lat="46.07418" lon="5.71864">
        <ele>1222.93</ele>
        <time>2020-05-31T08:34:00Z</time>
      </trkpt>
      <trkpt lat="46.07419" lon="5.71865">
        <ele>1222.93</ele>
        <time>2020-05-31T08:34:01Z</time>
      </trkpt>
      <trkpt lat="46.0742" lon="5.71867">
        <ele>1222.93</ele>
        <time>2020-05-31T08:34:02Z</time>
      </trkpt>
      <trkpt lat="46.07422" lon="5.71873">
        <ele>1222.93</ele>
        <time>2020-05-31T08:34:05Z</time>
      </trkpt>
      <trkpt lat="46.07418" lon="5.71867">
        <ele>1223.42</ele>
        <time>2020-05-31T08:34:13Z</time>
      </trkpt>
      <trkpt lat="46.07417" lon="5.71862">
        <ele>1222.93</ele>
        <time>2020-05-31T08:34:25Z</time>
      </trkpt>
      <trkpt lat="46.07418" lon="5.71862">
        <ele>1222.45</ele>
        <time>2020-05-31T08:34:57Z</time>
      </trkpt>
      <trkpt lat="46.07417" lon="5.71863">
        <ele>1222.93</ele>
        <time>2020-05-31T08:35:12Z</time>
      </trkpt>
      <trkpt lat="46.07422" lon="5.71869">
        <ele>1222.45</ele>
        <time>2020-05-31T08:35:19Z</time>
      </trkpt>
      <trkpt lat="46.07422" lon="5.71872">
        <ele>1222.45</ele>
        <time>2020-05-31T08:35:20Z</time>
      </trkpt>
      <trkpt lat="46.07423" lon="5.71873">
        <ele>1222.93</ele>
        <time>2020-05-31T08:35:21Z</time>
      </trkpt>
      <trkpt lat="46.07424" lon="5.71875">
        <ele>1222.45</ele>
        <time>2020-05-31T08:35:22Z</time>
      </trkpt>
      <trkpt lat="46.07426" lon="5.71878">
        <ele>1222.45</ele>
        <time>2020-05-31T08:35:23Z</time>
      </trkpt>
      <trkpt lat="46.07427" lon="5.71882">
        <ele>1222.45</ele>
        <time>2020-05-31T08:35:24Z</time>
      </trkpt>
      <trkpt lat="46.07429" lon="5.71885">
        <ele>1222.45</ele>
        <time>2020-05-31T08:35:25Z</time>
      </trkpt>
      <trkpt lat="46.07435" lon="5.71916">
        <ele>1221.97</ele>
        <time>2020-05-31T08:35:31Z</time>
      </trkpt>
      <trkpt lat="46.07435" lon="5.71923">
        <ele>1221.97</ele>
        <time>2020-05-31T08:35:32Z</time>
      </trkpt>
      <trkpt lat="46.07438" lon="5.72013">
        <ele>1221.01</ele>
        <time>2020-05-31T08:35:45Z</time>
      </trkpt>
      <trkpt lat="46.07438" lon="5.7202">
        <ele>1221.01</ele>
        <time>2020-05-31T08:35:46Z</time>
      </trkpt>
      <trkpt lat="46.07448" lon="5.72087">
        <ele>1221.49</ele>
        <time>2020-05-31T08:35:59Z</time>
      </trkpt>
      <trkpt lat="46.07447" lon="5.72093">
        <ele>1221.01</ele>
        <time>2020-05-31T08:36:00Z</time>
      </trkpt>
      <trkpt lat="46.07446" lon="5.72104">
        <ele>1220.53</ele>
        <time>2020-05-31T08:36:02Z</time>
      </trkpt>
      <trkpt lat="46.07447" lon="5.7211">
        <ele>1220.05</ele>
        <time>2020-05-31T08:36:03Z</time>
      </trkpt>
      <trkpt lat="46.07447" lon="5.72116">
        <ele>1220.53</ele>
        <time>2020-05-31T08:36:04Z</time>
      </trkpt>
      <trkpt lat="46.07447" lon="5.72122">
        <ele>1220.05</ele>
        <time>2020-05-31T08:36:05Z</time>
      </trkpt>
      <trkpt lat="46.07448" lon="5.72127">
        <ele>1220.05</ele>
        <time>2020-05-31T08:36:06Z</time>
      </trkpt>
      <trkpt lat="46.07458" lon="5.72178">
        <ele>1218.61</ele>
        <time>2020-05-31T08:36:18Z</time>
      </trkpt>
      <trkpt lat="46.07473" lon="5.72219">
        <ele>1217.65</ele>
        <time>2020-05-31T08:36:30Z</time>
      </trkpt>
      <trkpt lat="46.07499" lon="5.72251">
        <ele>1216.21</ele>
        <time>2020-05-31T08:36:43Z</time>
      </trkpt>
      <trkpt lat="46.07523" lon="5.72284">
        <ele>1215.24</ele>
        <time>2020-05-31T08:36:55Z</time>
      </trkpt>
      <trkpt lat="46.07556" lon="5.72334">
        <ele>1213.8</ele>
        <time>2020-05-31T08:37:07Z</time>
      </trkpt>
      <trkpt lat="46.07595" lon="5.72381">
        <ele>1215.72</ele>
        <time>2020-05-31T08:37:22Z</time>
      </trkpt>
      <trkpt lat="46.07627" lon="5.7239">
        <ele>1220.53</ele>
        <time>2020-05-31T08:37:34Z</time>
      </trkpt>
      <trkpt lat="46.07634" lon="5.72396">
        <ele>1221.49</ele>
        <time>2020-05-31T08:37:37Z</time>
      </trkpt>
      <trkpt lat="46.07635" lon="5.724">
        <ele>1221.49</ele>
        <time>2020-05-31T08:37:38Z</time>
      </trkpt>
      <trkpt lat="46.07635" lon="5.72404">
        <ele>1221.97</ele>
        <time>2020-05-31T08:37:39Z</time>
      </trkpt>
      <trkpt lat="46.07641" lon="5.72443">
        <ele>1225.34</ele>
        <time>2020-05-31T08:37:51Z</time>
      </trkpt>
      <trkpt lat="46.07653" lon="5.72473">
        <ele>1229.66</ele>
        <time>2020-05-31T08:38:02Z</time>
      </trkpt>
      <trkpt lat="46.07654" lon="5.72473">
        <ele>1229.66</ele>
        <time>2020-05-31T08:38:03Z</time>
      </trkpt>
      <trkpt lat="46.07655" lon="5.72471">
        <ele>1229.66</ele>
        <time>2020-05-31T08:38:04Z</time>
      </trkpt>
      <trkpt lat="46.07655" lon="5.72471">
        <ele>1230.62</ele>
        <time>2020-05-31T08:38:15Z</time>
      </trkpt>
      <trkpt lat="46.07654" lon="5.72471">
        <ele>1231.11</ele>
        <time>2020-05-31T08:38:18Z</time>
      </trkpt>
      <trkpt lat="46.07651" lon="5.72471">
        <ele>1233.51</ele>
        <time>2020-05-31T08:38:36Z</time>
      </trkpt>
      <trkpt lat="46.07651" lon="5.72467">
        <ele>1231.59</ele>
        <time>2020-05-31T08:38:55Z</time>
      </trkpt>
      <trkpt lat="46.07651" lon="5.72482">
        <ele>1232.07</ele>
        <time>2020-05-31T08:39:04Z</time>
      </trkpt>
      <trkpt lat="46.07651" lon="5.72507">
        <ele>1234.95</ele>
        <time>2020-05-31T08:39:19Z</time>
      </trkpt>
      <trkpt lat="46.07652" lon="5.72511">
        <ele>1234.47</ele>
        <time>2020-05-31T08:39:31Z</time>
      </trkpt>
      <trkpt lat="46.07654" lon="5.72512">
        <ele>1233.99</ele>
        <time>2020-05-31T08:39:48Z</time>
      </trkpt>
      <trkpt lat="46.07654" lon="5.72513">
        <ele>1233.51</ele>
        <time>2020-05-31T08:39:55Z</time>
      </trkpt>
      <trkpt lat="46.07654" lon="5.72519">
        <ele>1234.47</ele>
        <time>2020-05-31T08:39:59Z</time>
      </trkpt>
      <trkpt lat="46.07654" lon="5.72521">
        <ele>1235.91</ele>
        <time>2020-05-31T08:40:11Z</time>
      </trkpt>
      <trkpt lat="46.07661" lon="5.72547">
        <ele>1233.99</ele>
        <time>2020-05-31T08:40:24Z</time>
      </trkpt>
      <trkpt lat="46.07676" lon="5.72583">
        <ele>1226.3</ele>
        <time>2020-05-31T08:40:31Z</time>
      </trkpt>
      <trkpt lat="46.07678" lon="5.72592">
        <ele>1225.34</ele>
        <time>2020-05-31T08:40:32Z</time>
      </trkpt>
      <trkpt lat="46.07677" lon="5.72615">
        <ele>1222.93</ele>
        <time>2020-05-31T08:40:34Z</time>
      </trkpt>
      <trkpt lat="46.07675" lon="5.72623">
        <ele>1222.93</ele>
        <time>2020-05-31T08:40:35Z</time>
      </trkpt>
      <trkpt lat="46.07672" lon="5.72631">
        <ele>1222.45</ele>
        <time>2020-05-31T08:40:36Z</time>
      </trkpt>
      <trkpt lat="46.07666" lon="5.72651">
        <ele>1221.97</ele>
        <time>2020-05-31T08:40:38Z</time>
      </trkpt>
      <trkpt lat="46.07663" lon="5.72661">
        <ele>1221.97</ele>
        <time>2020-05-31T08:40:39Z</time>
      </trkpt>
      <trkpt lat="46.07661" lon="5.72671">
        <ele>1221.97</ele>
        <time>2020-05-31T08:40:40Z</time>
      </trkpt>
      <trkpt lat="46.0766" lon="5.72681">
        <ele>1221.97</ele>
        <time>2020-05-31T08:40:41Z</time>
      </trkpt>
      <trkpt lat="46.07659" lon="5.72691">
        <ele>1221.97</ele>
        <time>2020-05-31T08:40:42Z</time>
      </trkpt>
      <trkpt lat="46.07655" lon="5.72732">
        <ele>1226.3</ele>
        <time>2020-05-31T08:40:50Z</time>
      </trkpt>
      <trkpt lat="46.07652" lon="5.72782">
        <ele>1228.22</ele>
        <time>2020-05-31T08:41:05Z</time>
      </trkpt>
      <trkpt lat="46.07653" lon="5.72826">
        <ele>1228.7</ele>
        <time>2020-05-31T08:41:18Z</time>
      </trkpt>
      <trkpt lat="46.07665" lon="5.7284">
        <ele>1228.22</ele>
        <time>2020-05-31T08:41:24Z</time>
      </trkpt>
      <trkpt lat="46.07667" lon="5.72839">
        <ele>1228.7</ele>
        <time>2020-05-31T08:41:25Z</time>
      </trkpt>
      <trkpt lat="46.07691" lon="5.72843">
        <ele>1229.66</ele>
        <time>2020-05-31T08:41:37Z</time>
      </trkpt>
      <trkpt lat="46.07721" lon="5.72852">
        <ele>1230.62</ele>
        <time>2020-05-31T08:41:51Z</time>
      </trkpt>
      <trkpt lat="46.07758" lon="5.72863">
        <ele>1232.55</ele>
        <time>2020-05-31T08:42:08Z</time>
      </trkpt>
      <trkpt lat="46.07791" lon="5.72884">
        <ele>1235.43</ele>
        <time>2020-05-31T08:42:24Z</time>
      </trkpt>
      <trkpt lat="46.07817" lon="5.72903">
        <ele>1237.35</ele>
        <time>2020-05-31T08:42:38Z</time>
      </trkpt>
      <trkpt lat="46.07842" lon="5.72931">
        <ele>1239.28</ele>
        <time>2020-05-31T08:42:53Z</time>
      </trkpt>
      <trkpt lat="46.0786" lon="5.72974">
        <ele>1241.2</ele>
        <time>2020-05-31T08:43:08Z</time>
      </trkpt>
      <trkpt lat="46.07882" lon="5.73041">
        <ele>1242.16</ele>
        <time>2020-05-31T08:43:28Z</time>
      </trkpt>
      <trkpt lat="46.07911" lon="5.73068">
        <ele>1243.12</ele>
        <time>2020-05-31T08:43:42Z</time>
      </trkpt>
      <trkpt lat="46.07943" lon="5.73087">
        <ele>1246.01</ele>
        <time>2020-05-31T08:43:57Z</time>
      </trkpt>
      <trkpt lat="46.07963" lon="5.73098">
        <ele>1248.41</ele>
        <time>2020-05-31T08:44:07Z</time>
      </trkpt>
      <trkpt lat="46.07988" lon="5.73113">
        <ele>1251.29</ele>
        <time>2020-05-31T08:44:22Z</time>
      </trkpt>
      <trkpt lat="46.08021" lon="5.73124">
        <ele>1253.7</ele>
        <time>2020-05-31T08:44:37Z</time>
      </trkpt>
      <trkpt lat="46.08051" lon="5.73141">
        <ele>1255.62</ele>
        <time>2020-05-31T08:44:52Z</time>
      </trkpt>
      <trkpt lat="46.08083" lon="5.73155">
        <ele>1256.58</ele>
        <time>2020-05-31T08:45:07Z</time>
      </trkpt>
      <trkpt lat="46.08129" lon="5.7316">
        <ele>1259.46</ele>
        <time>2020-05-31T08:45:26Z</time>
      </trkpt>
      <trkpt lat="46.08175" lon="5.73156">
        <ele>1261.39</ele>
        <time>2020-05-31T08:45:44Z</time>
      </trkpt>
      <trkpt lat="46.08222" lon="5.73149">
        <ele>1262.35</ele>
        <time>2020-05-31T08:46:00Z</time>
      </trkpt>
      <trkpt lat="46.08264" lon="5.73152">
        <ele>1264.27</ele>
        <time>2020-05-31T08:46:14Z</time>
      </trkpt>
      <trkpt lat="46.08312" lon="5.73155">
        <ele>1266.67</ele>
        <time>2020-05-31T08:46:31Z</time>
      </trkpt>
      <trkpt lat="46.08367" lon="5.73152">
        <ele>1263.79</ele>
        <time>2020-05-31T08:46:47Z</time>
      </trkpt>
      <trkpt lat="46.08401" lon="5.7315">
        <ele>1262.83</ele>
        <time>2020-05-31T08:46:56Z</time>
      </trkpt>
      <trkpt lat="46.08405" lon="5.7315">
        <ele>1262.83</ele>
        <time>2020-05-31T08:46:57Z</time>
      </trkpt>
      <trkpt lat="46.0847" lon="5.73148">
        <ele>1262.35</ele>
        <time>2020-05-31T08:47:14Z</time>
      </trkpt>
      <trkpt lat="46.08525" lon="5.7315">
        <ele>1261.39</ele>
        <time>2020-05-31T08:47:29Z</time>
      </trkpt>
      <trkpt lat="46.08573" lon="5.7315">
        <ele>1259.94</ele>
        <time>2020-05-31T08:47:44Z</time>
      </trkpt>
      <trkpt lat="46.08617" lon="5.73156">
        <ele>1257.54</ele>
        <time>2020-05-31T08:47:56Z</time>
      </trkpt>
      <trkpt lat="46.08664" lon="5.73169">
        <ele>1254.18</ele>
        <time>2020-05-31T08:48:09Z</time>
      </trkpt>
      <trkpt lat="46.08678" lon="5.73172">
        <ele>1253.7</ele>
        <time>2020-05-31T08:48:12Z</time>
      </trkpt>
      <trkpt lat="46.08683" lon="5.73172">
        <ele>1253.7</ele>
        <time>2020-05-31T08:48:13Z</time>
      </trkpt>
      <trkpt lat="46.08688" lon="5.73173">
        <ele>1253.7</ele>
        <time>2020-05-31T08:48:14Z</time>
      </trkpt>
      <trkpt lat="46.08734" lon="5.73185">
        <ele>1252.25</ele>
        <time>2020-05-31T08:48:24Z</time>
      </trkpt>
      <trkpt lat="46.08738" lon="5.73185">
        <ele>1251.77</ele>
        <time>2020-05-31T08:48:25Z</time>
      </trkpt>
      <trkpt lat="46.08742" lon="5.73185">
        <ele>1251.77</ele>
        <time>2020-05-31T08:48:26Z</time>
      </trkpt>
      <trkpt lat="46.08746" lon="5.73186">
        <ele>1251.77</ele>
        <time>2020-05-31T08:48:27Z</time>
      </trkpt>
      <trkpt lat="46.08751" lon="5.73187">
        <ele>1251.77</ele>
        <time>2020-05-31T08:48:28Z</time>
      </trkpt>
      <trkpt lat="46.08755" lon="5.73188">
        <ele>1251.77</ele>
        <time>2020-05-31T08:48:29Z</time>
      </trkpt>
      <trkpt lat="46.08816" lon="5.73203">
        <ele>1253.7</ele>
        <time>2020-05-31T08:48:45Z</time>
      </trkpt>
      <trkpt lat="46.08881" lon="5.7322">
        <ele>1254.66</ele>
        <time>2020-05-31T08:49:02Z</time>
      </trkpt>
      <trkpt lat="46.08945" lon="5.73234">
        <ele>1255.62</ele>
        <time>2020-05-31T08:49:18Z</time>
      </trkpt>
      <trkpt lat="46.08998" lon="5.73247">
        <ele>1255.14</ele>
        <time>2020-05-31T08:49:33Z</time>
      </trkpt>
      <trkpt lat="46.09046" lon="5.7326">
        <ele>1251.77</ele>
        <time>2020-05-31T08:49:48Z</time>
      </trkpt>
      <trkpt lat="46.0907" lon="5.73264">
        <ele>1250.33</ele>
        <time>2020-05-31T08:49:54Z</time>
      </trkpt>
      <trkpt lat="46.09075" lon="5.73266">
        <ele>1249.85</ele>
        <time>2020-05-31T08:49:55Z</time>
      </trkpt>
      <trkpt lat="46.0914" lon="5.7329">
        <ele>1246.01</ele>
        <time>2020-05-31T08:50:08Z</time>
      </trkpt>
      <trkpt lat="46.09155" lon="5.73295">
        <ele>1245.53</ele>
        <time>2020-05-31T08:50:11Z</time>
      </trkpt>
      <trkpt lat="46.09216" lon="5.73324">
        <ele>1243.6</ele>
        <time>2020-05-31T08:50:26Z</time>
      </trkpt>
      <trkpt lat="46.09232" lon="5.7333">
        <ele>1244.56</ele>
        <time>2020-05-31T08:50:30Z</time>
      </trkpt>
      <trkpt lat="46.09236" lon="5.7333">
        <ele>1244.56</ele>
        <time>2020-05-31T08:50:31Z</time>
      </trkpt>
      <trkpt lat="46.09239" lon="5.7333">
        <ele>1244.56</ele>
        <time>2020-05-31T08:50:32Z</time>
      </trkpt>
      <trkpt lat="46.0924" lon="5.73329">
        <ele>1244.56</ele>
        <time>2020-05-31T08:50:40Z</time>
      </trkpt>
      <trkpt lat="46.09241" lon="5.7333">
        <ele>1244.56</ele>
        <time>2020-05-31T08:51:01Z</time>
      </trkpt>
      <trkpt lat="46.09241" lon="5.7333">
        <ele>1244.08</ele>
        <time>2020-05-31T08:51:23Z</time>
      </trkpt>
      <trkpt lat="46.09242" lon="5.7333">
        <ele>1245.04</ele>
        <time>2020-05-31T08:51:42Z</time>
      </trkpt>
      <trkpt lat="46.09242" lon="5.73331">
        <ele>1246.49</ele>
        <time>2020-05-31T08:51:58Z</time>
      </trkpt>
      <trkpt lat="46.09244" lon="5.73333">
        <ele>1246.49</ele>
        <time>2020-05-31T08:51:59Z</time>
      </trkpt>
      <trkpt lat="46.09246" lon="5.73334">
        <ele>1246.97</ele>
        <time>2020-05-31T08:52:00Z</time>
      </trkpt>
      <trkpt lat="46.09248" lon="5.73335">
        <ele>1246.97</ele>
        <time>2020-05-31T08:52:01Z</time>
      </trkpt>
      <trkpt lat="46.0925" lon="5.73335">
        <ele>1246.97</ele>
        <time>2020-05-31T08:52:02Z</time>
      </trkpt>
      <trkpt lat="46.09252" lon="5.73335">
        <ele>1246.49</ele>
        <time>2020-05-31T08:52:03Z</time>
      </trkpt>
      <trkpt lat="46.09254" lon="5.73336">
        <ele>1246.49</ele>
        <time>2020-05-31T08:52:04Z</time>
      </trkpt>
      <trkpt lat="46.09256" lon="5.73337">
        <ele>1246.49</ele>
        <time>2020-05-31T08:52:05Z</time>
      </trkpt>
      <trkpt lat="46.09289" lon="5.73355">
        <ele>1248.41</ele>
        <time>2020-05-31T08:52:18Z</time>
      </trkpt>
      <trkpt lat="46.09345" lon="5.73379">
        <ele>1255.14</ele>
        <time>2020-05-31T08:52:31Z</time>
      </trkpt>
      <trkpt lat="46.09387" lon="5.73396">
        <ele>1259.94</ele>
        <time>2020-05-31T08:52:42Z</time>
      </trkpt>
      <trkpt lat="46.09415" lon="5.73409">
        <ele>1262.35</ele>
        <time>2020-05-31T08:52:48Z</time>
      </trkpt>
      <trkpt lat="46.09426" lon="5.73416">
        <ele>1261.87</ele>
        <time>2020-05-31T08:52:50Z</time>
      </trkpt>
      <trkpt lat="46.09433" lon="5.73421">
        <ele>1259.94</ele>
        <time>2020-05-31T08:52:51Z</time>
      </trkpt>
      <trkpt lat="46.09462" lon="5.73438">
        <ele>1255.14</ele>
        <time>2020-05-31T08:52:56Z</time>
      </trkpt>
      <trkpt lat="46.09468" lon="5.73441">
        <ele>1254.18</ele>
        <time>2020-05-31T08:52:57Z</time>
      </trkpt>
      <trkpt lat="46.09491" lon="5.73456">
        <ele>1249.85</ele>
        <time>2020-05-31T08:53:02Z</time>
      </trkpt>
      <trkpt lat="46.09496" lon="5.73457">
        <ele>1249.37</ele>
        <time>2020-05-31T08:53:03Z</time>
      </trkpt>
      <trkpt lat="46.095" lon="5.73459">
        <ele>1248.41</ele>
        <time>2020-05-31T08:53:04Z</time>
      </trkpt>
      <trkpt lat="46.09509" lon="5.73461">
        <ele>1247.45</ele>
        <time>2020-05-31T08:53:06Z</time>
      </trkpt>
      <trkpt lat="46.0957" lon="5.73502">
        <ele>1242.16</ele>
        <time>2020-05-31T08:53:20Z</time>
      </trkpt>
      <trkpt lat="46.09642" lon="5.73557">
        <ele>1233.03</ele>
        <time>2020-05-31T08:53:32Z</time>
      </trkpt>
      <trkpt lat="46.09691" lon="5.73578">
        <ele>1232.55</ele>
        <time>2020-05-31T08:53:41Z</time>
      </trkpt>
      <trkpt lat="46.09708" lon="5.7359">
        <ele>1233.03</ele>
        <time>2020-05-31T08:53:45Z</time>
      </trkpt>
      <trkpt lat="46.09712" lon="5.73592">
        <ele>1233.03</ele>
        <time>2020-05-31T08:53:46Z</time>
      </trkpt>
      <trkpt lat="46.09721" lon="5.73598">
        <ele>1233.51</ele>
        <time>2020-05-31T08:53:48Z</time>
      </trkpt>
      <trkpt lat="46.09725" lon="5.736">
        <ele>1233.51</ele>
        <time>2020-05-31T08:53:49Z</time>
      </trkpt>
      <trkpt lat="46.09729" lon="5.73601">
        <ele>1233.51</ele>
        <time>2020-05-31T08:53:50Z</time>
      </trkpt>
      <trkpt lat="46.09789" lon="5.73624">
        <ele>1234.95</ele>
        <time>2020-05-31T08:54:03Z</time>
      </trkpt>
      <trkpt lat="46.09795" lon="5.73625">
        <ele>1234.95</ele>
        <time>2020-05-31T08:54:04Z</time>
      </trkpt>
      <trkpt lat="46.09837" lon="5.73632">
        <ele>1238.32</ele>
        <time>2020-05-31T08:54:11Z</time>
      </trkpt>
      <trkpt lat="46.09871" lon="5.73635">
        <ele>1241.68</ele>
        <time>2020-05-31T08:54:17Z</time>
      </trkpt>
      <trkpt lat="46.09877" lon="5.73638">
        <ele>1242.16</ele>
        <time>2020-05-31T08:54:18Z</time>
      </trkpt>
      <trkpt lat="46.09881" lon="5.73642">
        <ele>1242.64</ele>
        <time>2020-05-31T08:54:19Z</time>
      </trkpt>
      <trkpt lat="46.09899" lon="5.73655">
        <ele>1243.12</ele>
        <time>2020-05-31T08:54:23Z</time>
      </trkpt>
      <trkpt lat="46.09908" lon="5.7366">
        <ele>1243.12</ele>
        <time>2020-05-31T08:54:25Z</time>
      </trkpt>
      <trkpt lat="46.09973" lon="5.73692">
        <ele>1245.53</ele>
        <time>2020-05-31T08:54:38Z</time>
      </trkpt>
      <trkpt lat="46.10034" lon="5.73722">
        <ele>1244.56</ele>
        <time>2020-05-31T08:54:51Z</time>
      </trkpt>
      <trkpt lat="46.10038" lon="5.73724">
        <ele>1245.04</ele>
        <time>2020-05-31T08:54:52Z</time>
      </trkpt>
      <trkpt lat="46.10083" lon="5.73745">
        <ele>1247.93</ele>
        <time>2020-05-31T08:55:03Z</time>
      </trkpt>
      <trkpt lat="46.10087" lon="5.73746">
        <ele>1247.93</ele>
        <time>2020-05-31T08:55:04Z</time>
      </trkpt>
      <trkpt lat="46.10143" lon="5.73782">
        <ele>1249.37</ele>
        <time>2020-05-31T08:55:17Z</time>
      </trkpt>
      <trkpt lat="46.10176" lon="5.73816">
        <ele>1245.53</ele>
        <time>2020-05-31T08:55:24Z</time>
      </trkpt>
      <trkpt lat="46.10181" lon="5.73819">
        <ele>1245.04</ele>
        <time>2020-05-31T08:55:25Z</time>
      </trkpt>
      <trkpt lat="46.10186" lon="5.73821">
        <ele>1244.56</ele>
        <time>2020-05-31T08:55:26Z</time>
      </trkpt>
      <trkpt lat="46.10192" lon="5.73822">
        <ele>1244.08</ele>
        <time>2020-05-31T08:55:27Z</time>
      </trkpt>
      <trkpt lat="46.10197" lon="5.73824">
        <ele>1244.08</ele>
        <time>2020-05-31T08:55:28Z</time>
      </trkpt>
      <trkpt lat="46.10214" lon="5.73826">
        <ele>1242.64</ele>
        <time>2020-05-31T08:55:31Z</time>
      </trkpt>
      <trkpt lat="46.10219" lon="5.73828">
        <ele>1242.64</ele>
        <time>2020-05-31T08:55:32Z</time>
      </trkpt>
      <trkpt lat="46.10295" lon="5.73855">
        <ele>1240.24</ele>
        <time>2020-05-31T08:55:42Z</time>
      </trkpt>
      <trkpt lat="46.10333" lon="5.73869">
        <ele>1238.8</ele>
        <time>2020-05-31T08:55:49Z</time>
      </trkpt>
      <trkpt lat="46.10344" lon="5.73874">
        <ele>1238.32</ele>
        <time>2020-05-31T08:55:52Z</time>
      </trkpt>
      <trkpt lat="46.10349" lon="5.73876">
        <ele>1237.83</ele>
        <time>2020-05-31T08:55:53Z</time>
      </trkpt>
      <trkpt lat="46.10355" lon="5.73879">
        <ele>1237.83</ele>
        <time>2020-05-31T08:55:54Z</time>
      </trkpt>
      <trkpt lat="46.10437" lon="5.73923">
        <ele>1231.11</ele>
        <time>2020-05-31T08:56:07Z</time>
      </trkpt>
      <trkpt lat="46.10503" lon="5.73947">
        <ele>1226.78</ele>
        <time>2020-05-31T08:56:20Z</time>
      </trkpt>
      <trkpt lat="46.10508" lon="5.73947">
        <ele>1226.78</ele>
        <time>2020-05-31T08:56:21Z</time>
      </trkpt>
      <trkpt lat="46.10512" lon="5.73946">
        <ele>1226.78</ele>
        <time>2020-05-31T08:56:22Z</time>
      </trkpt>
      <trkpt lat="46.10517" lon="5.73942">
        <ele>1226.78</ele>
        <time>2020-05-31T08:56:23Z</time>
      </trkpt>
      <trkpt lat="46.10521" lon="5.73939">
        <ele>1226.78</ele>
        <time>2020-05-31T08:56:24Z</time>
      </trkpt>
      <trkpt lat="46.10525" lon="5.73935">
        <ele>1226.78</ele>
        <time>2020-05-31T08:56:25Z</time>
      </trkpt>
      <trkpt lat="46.1055" lon="5.73902">
        <ele>1224.38</ele>
        <time>2020-05-31T08:56:33Z</time>
      </trkpt>
      <trkpt lat="46.10554" lon="5.73898">
        <ele>1223.9</ele>
        <time>2020-05-31T08:56:34Z</time>
      </trkpt>
      <trkpt lat="46.10567" lon="5.73888">
        <ele>1222.45</ele>
        <time>2020-05-31T08:56:37Z</time>
      </trkpt>
      <trkpt lat="46.10576" lon="5.73884">
        <ele>1221.49</ele>
        <time>2020-05-31T08:56:39Z</time>
      </trkpt>
      <trkpt lat="46.10612" lon="5.73877">
        <ele>1219.57</ele>
        <time>2020-05-31T08:56:49Z</time>
      </trkpt>
      <trkpt lat="46.10669" lon="5.73862">
        <ele>1216.69</ele>
        <time>2020-05-31T08:56:57Z</time>
      </trkpt>
      <trkpt lat="46.10745" lon="5.73832">
        <ele>1213.32</ele>
        <time>2020-05-31T08:57:06Z</time>
      </trkpt>
      <trkpt lat="46.10751" lon="5.73827">
        <ele>1213.8</ele>
        <time>2020-05-31T08:57:07Z</time>
      </trkpt>
      <trkpt lat="46.10756" lon="5.73821">
        <ele>1213.8</ele>
        <time>2020-05-31T08:57:08Z</time>
      </trkpt>
      <trkpt lat="46.1076" lon="5.73816">
        <ele>1213.8</ele>
        <time>2020-05-31T08:57:09Z</time>
      </trkpt>
      <trkpt lat="46.10763" lon="5.7381">
        <ele>1213.8</ele>
        <time>2020-05-31T08:57:10Z</time>
      </trkpt>
      <trkpt lat="46.10766" lon="5.73806">
        <ele>1214.28</ele>
        <time>2020-05-31T08:57:11Z</time>
      </trkpt>
      <trkpt lat="46.10769" lon="5.73801">
        <ele>1214.76</ele>
        <time>2020-05-31T08:57:12Z</time>
      </trkpt>
      <trkpt lat="46.10776" lon="5.73793">
        <ele>1215.24</ele>
        <time>2020-05-31T08:57:14Z</time>
      </trkpt>
      <trkpt lat="46.10781" lon="5.73789">
        <ele>1215.72</ele>
        <time>2020-05-31T08:57:15Z</time>
      </trkpt>
      <trkpt lat="46.10785" lon="5.73786">
        <ele>1215.72</ele>
        <time>2020-05-31T08:57:16Z</time>
      </trkpt>
      <trkpt lat="46.10796" lon="5.73781">
        <ele>1216.21</ele>
        <time>2020-05-31T08:57:18Z</time>
      </trkpt>
      <trkpt lat="46.10808" lon="5.73778">
        <ele>1216.21</ele>
        <time>2020-05-31T08:57:20Z</time>
      </trkpt>
      <trkpt lat="46.10815" lon="5.73778">
        <ele>1215.72</ele>
        <time>2020-05-31T08:57:21Z</time>
      </trkpt>
      <trkpt lat="46.10839" lon="5.73778">
        <ele>1216.69</ele>
        <time>2020-05-31T08:57:25Z</time>
      </trkpt>
      <trkpt lat="46.10845" lon="5.73777">
        <ele>1216.69</ele>
        <time>2020-05-31T08:57:26Z</time>
      </trkpt>
      <trkpt lat="46.10851" lon="5.73775">
        <ele>1216.69</ele>
        <time>2020-05-31T08:57:27Z</time>
      </trkpt>
      <trkpt lat="46.10857" lon="5.73772">
        <ele>1216.69</ele>
        <time>2020-05-31T08:57:28Z</time>
      </trkpt>
      <trkpt lat="46.10861" lon="5.73768">
        <ele>1216.69</ele>
        <time>2020-05-31T08:57:29Z</time>
      </trkpt>
      <trkpt lat="46.10865" lon="5.73762">
        <ele>1216.21</ele>
        <time>2020-05-31T08:57:30Z</time>
      </trkpt>
      <trkpt lat="46.10866" lon="5.73757">
        <ele>1215.72</ele>
        <time>2020-05-31T08:57:31Z</time>
      </trkpt>
      <trkpt lat="46.10867" lon="5.7375">
        <ele>1214.76</ele>
        <time>2020-05-31T08:57:32Z</time>
      </trkpt>
      <trkpt lat="46.10865" lon="5.73743">
        <ele>1213.8</ele>
        <time>2020-05-31T08:57:33Z</time>
      </trkpt>
      <trkpt lat="46.10861" lon="5.73737">
        <ele>1213.32</ele>
        <time>2020-05-31T08:57:34Z</time>
      </trkpt>
      <trkpt lat="46.10856" lon="5.73731">
        <ele>1212.36</ele>
        <time>2020-05-31T08:57:35Z</time>
      </trkpt>
      <trkpt lat="46.1082" lon="5.73683">
        <ele>1206.11</ele>
        <time>2020-05-31T08:57:45Z</time>
      </trkpt>
      <trkpt lat="46.10816" lon="5.73678">
        <ele>1205.63</ele>
        <time>2020-05-31T08:57:46Z</time>
      </trkpt>
      <trkpt lat="46.10812" lon="5.73675">
        <ele>1204.67</ele>
        <time>2020-05-31T08:57:47Z</time>
      </trkpt>
      <trkpt lat="46.10807" lon="5.73671">
        <ele>1203.71</ele>
        <time>2020-05-31T08:57:48Z</time>
      </trkpt>
      <trkpt lat="46.10786" lon="5.73655">
        <ele>1201.3</ele>
        <time>2020-05-31T08:57:52Z</time>
      </trkpt>
      <trkpt lat="46.10782" lon="5.7365">
        <ele>1200.82</ele>
        <time>2020-05-31T08:57:53Z</time>
      </trkpt>
      <trkpt lat="46.10779" lon="5.73643">
        <ele>1200.34</ele>
        <time>2020-05-31T08:57:54Z</time>
      </trkpt>
      <trkpt lat="46.10778" lon="5.73637">
        <ele>1199.86</ele>
        <time>2020-05-31T08:57:55Z</time>
      </trkpt>
      <trkpt lat="46.10778" lon="5.73631">
        <ele>1199.38</ele>
        <time>2020-05-31T08:57:56Z</time>
      </trkpt>
      <trkpt lat="46.10778" lon="5.73623">
        <ele>1198.42</ele>
        <time>2020-05-31T08:57:57Z</time>
      </trkpt>
      <trkpt lat="46.10779" lon="5.73616">
        <ele>1197.94</ele>
        <time>2020-05-31T08:57:58Z</time>
      </trkpt>
      <trkpt lat="46.10775" lon="5.73594">
        <ele>1194.09</ele>
        <time>2020-05-31T08:58:02Z</time>
      </trkpt>
      <trkpt lat="46.10772" lon="5.7359">
        <ele>1193.13</ele>
        <time>2020-05-31T08:58:03Z</time>
      </trkpt>
      <trkpt lat="46.10768" lon="5.73585">
        <ele>1192.17</ele>
        <time>2020-05-31T08:58:04Z</time>
      </trkpt>
      <trkpt lat="46.10747" lon="5.73563">
        <ele>1189.29</ele>
        <time>2020-05-31T08:58:08Z</time>
      </trkpt>
      <trkpt lat="46.10742" lon="5.73555">
        <ele>1188.33</ele>
        <time>2020-05-31T08:58:09Z</time>
      </trkpt>
      <trkpt lat="46.10737" lon="5.73547">
        <ele>1187.85</ele>
        <time>2020-05-31T08:58:10Z</time>
      </trkpt>
      <trkpt lat="46.10734" lon="5.73539">
        <ele>1187.37</ele>
        <time>2020-05-31T08:58:11Z</time>
      </trkpt>
      <trkpt lat="46.10733" lon="5.7353">
        <ele>1186.4</ele>
        <time>2020-05-31T08:58:12Z</time>
      </trkpt>
      <trkpt lat="46.10733" lon="5.7352">
        <ele>1185.92</ele>
        <time>2020-05-31T08:58:13Z</time>
      </trkpt>
      <trkpt lat="46.10734" lon="5.7351">
        <ele>1184.96</ele>
        <time>2020-05-31T08:58:14Z</time>
      </trkpt>
      <trkpt lat="46.10736" lon="5.73502">
        <ele>1184.48</ele>
        <time>2020-05-31T08:58:15Z</time>
      </trkpt>
      <trkpt lat="46.10737" lon="5.73493">
        <ele>1184.48</ele>
        <time>2020-05-31T08:58:16Z</time>
      </trkpt>
      <trkpt lat="46.10738" lon="5.73484">
        <ele>1184.48</ele>
        <time>2020-05-31T08:58:17Z</time>
      </trkpt>
      <trkpt lat="46.10739" lon="5.73476">
        <ele>1184</ele>
        <time>2020-05-31T08:58:18Z</time>
      </trkpt>
      <trkpt lat="46.10741" lon="5.73469">
        <ele>1184</ele>
        <time>2020-05-31T08:58:19Z</time>
      </trkpt>
      <trkpt lat="46.10744" lon="5.73462">
        <ele>1184</ele>
        <time>2020-05-31T08:58:20Z</time>
      </trkpt>
      <trkpt lat="46.10748" lon="5.73458">
        <ele>1183.52</ele>
        <time>2020-05-31T08:58:21Z</time>
      </trkpt>
      <trkpt lat="46.10752" lon="5.73455">
        <ele>1183.04</ele>
        <time>2020-05-31T08:58:22Z</time>
      </trkpt>
      <trkpt lat="46.10758" lon="5.73453">
        <ele>1182.08</ele>
        <time>2020-05-31T08:58:23Z</time>
      </trkpt>
      <trkpt lat="46.10763" lon="5.73453">
        <ele>1181.6</ele>
        <time>2020-05-31T08:58:24Z</time>
      </trkpt>
      <trkpt lat="46.10769" lon="5.73455">
        <ele>1181.12</ele>
        <time>2020-05-31T08:58:25Z</time>
      </trkpt>
      <trkpt lat="46.10776" lon="5.73456">
        <ele>1180.16</ele>
        <time>2020-05-31T08:58:26Z</time>
      </trkpt>
      <trkpt lat="46.10842" lon="5.73473">
        <ele>1174.87</ele>
        <time>2020-05-31T08:58:35Z</time>
      </trkpt>
      <trkpt lat="46.1087" lon="5.73488">
        <ele>1175.35</ele>
        <time>2020-05-31T08:58:44Z</time>
      </trkpt>
      <trkpt lat="46.10933" lon="5.73513">
        <ele>1176.31</ele>
        <time>2020-05-31T08:58:55Z</time>
      </trkpt>
      <trkpt lat="46.1096" lon="5.73527">
        <ele>1175.35</ele>
        <time>2020-05-31T08:59:00Z</time>
      </trkpt>
      <trkpt lat="46.1097" lon="5.73534">
        <ele>1174.87</ele>
        <time>2020-05-31T08:59:02Z</time>
      </trkpt>
      <trkpt lat="46.10982" lon="5.73541">
        <ele>1174.39</ele>
        <time>2020-05-31T08:59:04Z</time>
      </trkpt>
      <trkpt lat="46.11021" lon="5.73546">
        <ele>1173.91</ele>
        <time>2020-05-31T08:59:13Z</time>
      </trkpt>
      <trkpt lat="46.11097" lon="5.73553">
        <ele>1170.54</ele>
        <time>2020-05-31T08:59:25Z</time>
      </trkpt>
      <trkpt lat="46.1113" lon="5.73553">
        <ele>1169.1</ele>
        <time>2020-05-31T08:59:35Z</time>
      </trkpt>
      <trkpt lat="46.11132" lon="5.73551">
        <ele>1169.1</ele>
        <time>2020-05-31T08:59:36Z</time>
      </trkpt>
      <trkpt lat="46.11132" lon="5.73549">
        <ele>1168.62</ele>
        <time>2020-05-31T08:59:37Z</time>
      </trkpt>
      <trkpt lat="46.11129" lon="5.73537">
        <ele>1168.14</ele>
        <time>2020-05-31T08:59:45Z</time>
      </trkpt>
      <trkpt lat="46.11127" lon="5.73514">
        <ele>1168.62</ele>
        <time>2020-05-31T08:59:55Z</time>
      </trkpt>
      <trkpt lat="46.11128" lon="5.73511">
        <ele>1168.62</ele>
        <time>2020-05-31T08:59:56Z</time>
      </trkpt>
      <trkpt lat="46.11129" lon="5.73506">
        <ele>1168.62</ele>
        <time>2020-05-31T08:59:58Z</time>
      </trkpt>
      <trkpt lat="46.11125" lon="5.73482">
        <ele>1168.62</ele>
        <time>2020-05-31T09:00:10Z</time>
      </trkpt>
      <trkpt lat="46.11121" lon="5.73498">
        <ele>1167.66</ele>
        <time>2020-05-31T09:00:19Z</time>
      </trkpt>
      <trkpt lat="46.11124" lon="5.73489">
        <ele>1167.18</ele>
        <time>2020-05-31T09:00:28Z</time>
      </trkpt>
      <trkpt lat="46.11123" lon="5.73485">
        <ele>1167.18</ele>
        <time>2020-05-31T09:00:35Z</time>
      </trkpt>
      <trkpt lat="46.11124" lon="5.73486">
        <ele>1167.18</ele>
        <time>2020-05-31T09:00:36Z</time>
      </trkpt>
      <trkpt lat="46.11126" lon="5.73483">
        <ele>1167.18</ele>
        <time>2020-05-31T09:00:47Z</time>
      </trkpt>
      <trkpt lat="46.1112" lon="5.73483">
        <ele>1166.7</ele>
        <time>2020-05-31T09:00:55Z</time>
      </trkpt>
      <trkpt lat="46.11125" lon="5.73481">
        <ele>1166.7</ele>
        <time>2020-05-31T09:01:01Z</time>
      </trkpt>
      <trkpt lat="46.11122" lon="5.73482">
        <ele>1166.7</ele>
        <time>2020-05-31T09:01:10Z</time>
      </trkpt>
      <trkpt lat="46.11123" lon="5.73485">
        <ele>1166.7</ele>
        <time>2020-05-31T09:01:18Z</time>
      </trkpt>
      <trkpt lat="46.11122" lon="5.73483">
        <ele>1166.7</ele>
        <time>2020-05-31T09:01:19Z</time>
      </trkpt>
      <trkpt lat="46.11122" lon="5.73481">
        <ele>1166.7</ele>
        <time>2020-05-31T09:01:20Z</time>
      </trkpt>
      <trkpt lat="46.11123" lon="5.73479">
        <ele>1167.18</ele>
        <time>2020-05-31T09:01:21Z</time>
      </trkpt>
      <trkpt lat="46.11124" lon="5.73479">
        <ele>1167.18</ele>
        <time>2020-05-31T09:01:22Z</time>
      </trkpt>
      <trkpt lat="46.11125" lon="5.7348">
        <ele>1167.18</ele>
        <time>2020-05-31T09:01:23Z</time>
      </trkpt>
      <trkpt lat="46.11128" lon="5.73478">
        <ele>1166.7</ele>
        <time>2020-05-31T09:01:29Z</time>
      </trkpt>
      <trkpt lat="46.11126" lon="5.7348">
        <ele>1165.26</ele>
        <time>2020-05-31T09:01:42Z</time>
      </trkpt>
      <trkpt lat="46.11126" lon="5.7348">
        <ele>1164.29</ele>
        <time>2020-05-31T09:01:57Z</time>
      </trkpt>
      <trkpt lat="46.11132" lon="5.73483">
        <ele>1164.77</ele>
        <time>2020-05-31T09:02:02Z</time>
      </trkpt>
      <trkpt lat="46.11134" lon="5.7348">
        <ele>1164.77</ele>
        <time>2020-05-31T09:02:03Z</time>
      </trkpt>
      <trkpt lat="46.11136" lon="5.73476">
        <ele>1165.26</ele>
        <time>2020-05-31T09:02:04Z</time>
      </trkpt>
      <trkpt lat="46.11137" lon="5.73471">
        <ele>1165.26</ele>
        <time>2020-05-31T09:02:05Z</time>
      </trkpt>
      <trkpt lat="46.11138" lon="5.73466">
        <ele>1165.26</ele>
        <time>2020-05-31T09:02:06Z</time>
      </trkpt>
      <trkpt lat="46.11138" lon="5.73461">
        <ele>1165.74</ele>
        <time>2020-05-31T09:02:07Z</time>
      </trkpt>
      <trkpt lat="46.11138" lon="5.73456">
        <ele>1165.74</ele>
        <time>2020-05-31T09:02:08Z</time>
      </trkpt>
      <trkpt lat="46.11149" lon="5.73386">
        <ele>1168.14</ele>
        <time>2020-05-31T09:02:23Z</time>
      </trkpt>
      <trkpt lat="46.11162" lon="5.73333">
        <ele>1169.1</ele>
        <time>2020-05-31T09:02:36Z</time>
      </trkpt>
      <trkpt lat="46.11176" lon="5.73266">
        <ele>1169.1</ele>
        <time>2020-05-31T09:02:54Z</time>
      </trkpt>
      <trkpt lat="46.11187" lon="5.73214">
        <ele>1170.54</ele>
        <time>2020-05-31T09:03:08Z</time>
      </trkpt>
      <trkpt lat="46.11199" lon="5.73157">
        <ele>1172.47</ele>
        <time>2020-05-31T09:03:21Z</time>
      </trkpt>
      <trkpt lat="46.11215" lon="5.73081">
        <ele>1176.31</ele>
        <time>2020-05-31T09:03:37Z</time>
      </trkpt>
      <trkpt lat="46.11238" lon="5.73021">
        <ele>1176.79</ele>
        <time>2020-05-31T09:03:49Z</time>
      </trkpt>
      <trkpt lat="46.11241" lon="5.73016">
        <ele>1176.79</ele>
        <time>2020-05-31T09:03:50Z</time>
      </trkpt>
      <trkpt lat="46.11244" lon="5.73011">
        <ele>1176.79</ele>
        <time>2020-05-31T09:03:51Z</time>
      </trkpt>
      <trkpt lat="46.1129" lon="5.72943">
        <ele>1175.83</ele>
        <time>2020-05-31T09:04:06Z</time>
      </trkpt>
      <trkpt lat="46.11337" lon="5.72868">
        <ele>1173.43</ele>
        <time>2020-05-31T09:04:23Z</time>
      </trkpt>
      <trkpt lat="46.11339" lon="5.72863">
        <ele>1173.43</ele>
        <time>2020-05-31T09:04:24Z</time>
      </trkpt>
      <trkpt lat="46.11341" lon="5.72858">
        <ele>1172.95</ele>
        <time>2020-05-31T09:04:25Z</time>
      </trkpt>
      <trkpt lat="46.11361" lon="5.72817">
        <ele>1171.5</ele>
        <time>2020-05-31T09:04:35Z</time>
      </trkpt>
      <trkpt lat="46.11361" lon="5.72814">
        <ele>1171.5</ele>
        <time>2020-05-31T09:04:36Z</time>
      </trkpt>
      <trkpt lat="46.11361" lon="5.72811">
        <ele>1171.5</ele>
        <time>2020-05-31T09:04:37Z</time>
      </trkpt>
      <trkpt lat="46.1136" lon="5.72809">
        <ele>1171.02</ele>
        <time>2020-05-31T09:04:38Z</time>
      </trkpt>
      <trkpt lat="46.11359" lon="5.72806">
        <ele>1171.02</ele>
        <time>2020-05-31T09:04:39Z</time>
      </trkpt>
      <trkpt lat="46.11357" lon="5.72804">
        <ele>1171.02</ele>
        <time>2020-05-31T09:04:40Z</time>
      </trkpt>
      <trkpt lat="46.11329" lon="5.72756">
        <ele>1170.06</ele>
        <time>2020-05-31T09:04:55Z</time>
      </trkpt>
      <trkpt lat="46.11298" lon="5.72697">
        <ele>1170.54</ele>
        <time>2020-05-31T09:05:12Z</time>
      </trkpt>
      <trkpt lat="46.11275" lon="5.72653">
        <ele>1172.95</ele>
        <time>2020-05-31T09:05:25Z</time>
      </trkpt>
      <trkpt lat="46.11244" lon="5.72597">
        <ele>1175.35</ele>
        <time>2020-05-31T09:05:42Z</time>
      </trkpt>
      <trkpt lat="46.11215" lon="5.72546">
        <ele>1178.71</ele>
        <time>2020-05-31T09:05:58Z</time>
      </trkpt>
      <trkpt lat="46.11189" lon="5.725">
        <ele>1180.16</ele>
        <time>2020-05-31T09:06:13Z</time>
      </trkpt>
      <trkpt lat="46.11163" lon="5.7245">
        <ele>1183.04</ele>
        <time>2020-05-31T09:06:29Z</time>
      </trkpt>
      <trkpt lat="46.11138" lon="5.72413">
        <ele>1186.4</ele>
        <time>2020-05-31T09:06:42Z</time>
      </trkpt>
      <trkpt lat="46.11112" lon="5.72392">
        <ele>1186.4</ele>
        <time>2020-05-31T09:06:53Z</time>
      </trkpt>
      <trkpt lat="46.11078" lon="5.72369">
        <ele>1187.37</ele>
        <time>2020-05-31T09:07:07Z</time>
      </trkpt>
      <trkpt lat="46.1104" lon="5.72337">
        <ele>1190.73</ele>
        <time>2020-05-31T09:07:23Z</time>
      </trkpt>
      <trkpt lat="46.11005" lon="5.72318">
        <ele>1193.61</ele>
        <time>2020-05-31T09:07:36Z</time>
      </trkpt>
      <trkpt lat="46.10969" lon="5.72298">
        <ele>1192.65</ele>
        <time>2020-05-31T09:07:48Z</time>
      </trkpt>
      <trkpt lat="46.10931" lon="5.72273">
        <ele>1194.58</ele>
        <time>2020-05-31T09:08:01Z</time>
      </trkpt>
      <trkpt lat="46.10898" lon="5.72255">
        <ele>1196.5</ele>
        <time>2020-05-31T09:08:14Z</time>
      </trkpt>
      <trkpt lat="46.10848" lon="5.72241">
        <ele>1197.46</ele>
        <time>2020-05-31T09:08:31Z</time>
      </trkpt>
      <trkpt lat="46.10806" lon="5.72233">
        <ele>1202.27</ele>
        <time>2020-05-31T09:08:47Z</time>
      </trkpt>
      <trkpt lat="46.10769" lon="5.72224">
        <ele>1207.07</ele>
        <time>2020-05-31T09:09:02Z</time>
      </trkpt>
      <trkpt lat="46.10732" lon="5.72201">
        <ele>1208.51</ele>
        <time>2020-05-31T09:09:17Z</time>
      </trkpt>
      <trkpt lat="46.10693" lon="5.72178">
        <ele>1209.48</ele>
        <time>2020-05-31T09:09:33Z</time>
      </trkpt>
      <trkpt lat="46.10667" lon="5.72181">
        <ele>1212.84</ele>
        <time>2020-05-31T09:09:45Z</time>
      </trkpt>
      <trkpt lat="46.10641" lon="5.72183">
        <ele>1216.21</ele>
        <time>2020-05-31T09:10:00Z</time>
      </trkpt>
      <trkpt lat="46.10602" lon="5.72184">
        <ele>1215.72</ele>
        <time>2020-05-31T09:10:17Z</time>
      </trkpt>
      <trkpt lat="46.10578" lon="5.72216">
        <ele>1216.21</ele>
        <time>2020-05-31T09:10:27Z</time>
      </trkpt>
      <trkpt lat="46.10555" lon="5.72251">
        <ele>1220.05</ele>
        <time>2020-05-31T09:10:40Z</time>
      </trkpt>
      <trkpt lat="46.10552" lon="5.72256">
        <ele>1220.53</ele>
        <time>2020-05-31T09:10:42Z</time>
      </trkpt>
      <trkpt lat="46.1055" lon="5.72258">
        <ele>1221.01</ele>
        <time>2020-05-31T09:10:43Z</time>
      </trkpt>
      <trkpt lat="46.10525" lon="5.72259">
        <ele>1223.42</ele>
        <time>2020-05-31T09:10:54Z</time>
      </trkpt>
      <trkpt lat="46.10507" lon="5.7225">
        <ele>1224.86</ele>
        <time>2020-05-31T09:11:02Z</time>
      </trkpt>
      <trkpt lat="46.10506" lon="5.72248">
        <ele>1224.86</ele>
        <time>2020-05-31T09:11:03Z</time>
      </trkpt>
      <trkpt lat="46.10504" lon="5.72247">
        <ele>1224.86</ele>
        <time>2020-05-31T09:11:04Z</time>
      </trkpt>
      <trkpt lat="46.10503" lon="5.72246">
        <ele>1224.86</ele>
        <time>2020-05-31T09:11:05Z</time>
      </trkpt>
      <trkpt lat="46.10501" lon="5.72245">
        <ele>1224.38</ele>
        <time>2020-05-31T09:11:06Z</time>
      </trkpt>
      <trkpt lat="46.10499" lon="5.72245">
        <ele>1224.38</ele>
        <time>2020-05-31T09:11:07Z</time>
      </trkpt>
      <trkpt lat="46.10498" lon="5.72244">
        <ele>1224.38</ele>
        <time>2020-05-31T09:11:08Z</time>
      </trkpt>
      <trkpt lat="46.10496" lon="5.72244">
        <ele>1223.9</ele>
        <time>2020-05-31T09:11:09Z</time>
      </trkpt>
      <trkpt lat="46.10495" lon="5.72243">
        <ele>1223.9</ele>
        <time>2020-05-31T09:11:10Z</time>
      </trkpt>
      <trkpt lat="46.10493" lon="5.72242">
        <ele>1223.9</ele>
        <time>2020-05-31T09:11:11Z</time>
      </trkpt>
      <trkpt lat="46.10491" lon="5.72242">
        <ele>1223.9</ele>
        <time>2020-05-31T09:11:12Z</time>
      </trkpt>
      <trkpt lat="46.1049" lon="5.72241">
        <ele>1223.9</ele>
        <time>2020-05-31T09:11:13Z</time>
      </trkpt>
      <trkpt lat="46.10488" lon="5.72241">
        <ele>1223.9</ele>
        <time>2020-05-31T09:11:14Z</time>
      </trkpt>
      <trkpt lat="46.10487" lon="5.7224">
        <ele>1223.9</ele>
        <time>2020-05-31T09:11:15Z</time>
      </trkpt>
      <trkpt lat="46.10462" lon="5.72237">
        <ele>1223.9</ele>
        <time>2020-05-31T09:11:28Z</time>
      </trkpt>
      <trkpt lat="46.10438" lon="5.72234">
        <ele>1224.38</ele>
        <time>2020-05-31T09:11:41Z</time>
      </trkpt>
      <trkpt lat="46.10401" lon="5.72252">
        <ele>1227.26</ele>
        <time>2020-05-31T09:11:55Z</time>
      </trkpt>
      <trkpt lat="46.10358" lon="5.72276">
        <ele>1228.7</ele>
        <time>2020-05-31T09:12:10Z</time>
      </trkpt>
      <trkpt lat="46.10335" lon="5.72275">
        <ele>1230.62</ele>
        <time>2020-05-31T09:12:19Z</time>
      </trkpt>
      <trkpt lat="46.10335" lon="5.72276">
        <ele>1230.62</ele>
        <time>2020-05-31T09:12:20Z</time>
      </trkpt>
      <trkpt lat="46.10335" lon="5.7228">
        <ele>1231.59</ele>
        <time>2020-05-31T09:12:30Z</time>
      </trkpt>
      <trkpt lat="46.10336" lon="5.7228">
        <ele>1233.03</ele>
        <time>2020-05-31T09:12:54Z</time>
      </trkpt>
      <trkpt lat="46.10335" lon="5.72279">
        <ele>1234.95</ele>
        <time>2020-05-31T09:13:19Z</time>
      </trkpt>
      <trkpt lat="46.10334" lon="5.72279">
        <ele>1233.99</ele>
        <time>2020-05-31T09:13:45Z</time>
      </trkpt>
      <trkpt lat="46.10335" lon="5.7228">
        <ele>1233.99</ele>
        <time>2020-05-31T09:14:11Z</time>
      </trkpt>
      <trkpt lat="46.10335" lon="5.72279">
        <ele>1230.14</ele>
        <time>2020-05-31T09:14:37Z</time>
      </trkpt>
      <trkpt lat="46.10335" lon="5.7228">
        <ele>1232.55</ele>
        <time>2020-05-31T09:15:02Z</time>
      </trkpt>
      <trkpt lat="46.10335" lon="5.7228">
        <ele>1233.03</ele>
        <time>2020-05-31T09:15:21Z</time>
      </trkpt>
      <trkpt lat="46.10333" lon="5.72281">
        <ele>1230.62</ele>
        <time>2020-05-31T09:15:41Z</time>
      </trkpt>
      <trkpt lat="46.10333" lon="5.7228">
        <ele>1231.11</ele>
        <time>2020-05-31T09:16:07Z</time>
      </trkpt>
      <trkpt lat="46.10332" lon="5.7228">
        <ele>1235.91</ele>
        <time>2020-05-31T09:16:34Z</time>
      </trkpt>
      <trkpt lat="46.10335" lon="5.72281">
        <ele>1232.07</ele>
        <time>2020-05-31T09:17:00Z</time>
      </trkpt>
      <trkpt lat="46.10334" lon="5.72283">
        <ele>1232.55</ele>
        <time>2020-05-31T09:17:27Z</time>
      </trkpt>
      <trkpt lat="46.10333" lon="5.72283">
        <ele>1231.59</ele>
        <time>2020-05-31T09:17:57Z</time>
      </trkpt>
      <trkpt lat="46.10334" lon="5.72282">
        <ele>1231.59</ele>
        <time>2020-05-31T09:18:21Z</time>
      </trkpt>
      <trkpt lat="46.10334" lon="5.72279">
        <ele>1233.03</ele>
        <time>2020-05-31T09:18:38Z</time>
      </trkpt>
      <trkpt lat="46.10334" lon="5.72278">
        <ele>1233.03</ele>
        <time>2020-05-31T09:18:39Z</time>
      </trkpt>
      <trkpt lat="46.10324" lon="5.72257">
        <ele>1235.43</ele>
        <time>2020-05-31T09:18:52Z</time>
      </trkpt>
      <trkpt lat="46.10294" lon="5.72228">
        <ele>1241.2</ele>
        <time>2020-05-31T09:19:08Z</time>
      </trkpt>
      <trkpt lat="46.10266" lon="5.72198">
        <ele>1247.45</ele>
        <time>2020-05-31T09:19:24Z</time>
      </trkpt>
      <trkpt lat="46.10242" lon="5.72153">
        <ele>1251.29</ele>
        <time>2020-05-31T09:19:41Z</time>
      </trkpt>
      <trkpt lat="46.10207" lon="5.72139">
        <ele>1254.66</ele>
        <time>2020-05-31T09:19:57Z</time>
      </trkpt>
      <trkpt lat="46.10178" lon="5.72125">
        <ele>1254.18</ele>
        <time>2020-05-31T09:20:11Z</time>
      </trkpt>
      <trkpt lat="46.1015" lon="5.72119">
        <ele>1253.22</ele>
        <time>2020-05-31T09:20:26Z</time>
      </trkpt>
      <trkpt lat="46.10148" lon="5.72119">
        <ele>1253.22</ele>
        <time>2020-05-31T09:20:27Z</time>
      </trkpt>
      <trkpt lat="46.10145" lon="5.72118">
        <ele>1253.22</ele>
        <time>2020-05-31T09:20:29Z</time>
      </trkpt>
      <trkpt lat="46.10143" lon="5.72118">
        <ele>1253.22</ele>
        <time>2020-05-31T09:20:30Z</time>
      </trkpt>
      <trkpt lat="46.10142" lon="5.72117">
        <ele>1253.22</ele>
        <time>2020-05-31T09:20:31Z</time>
      </trkpt>
      <trkpt lat="46.1014" lon="5.72117">
        <ele>1252.74</ele>
        <time>2020-05-31T09:20:32Z</time>
      </trkpt>
      <trkpt lat="46.10138" lon="5.72116">
        <ele>1252.74</ele>
        <time>2020-05-31T09:20:33Z</time>
      </trkpt>
      <trkpt lat="46.10136" lon="5.72115">
        <ele>1252.74</ele>
        <time>2020-05-31T09:20:34Z</time>
      </trkpt>
      <trkpt lat="46.10135" lon="5.72115">
        <ele>1252.74</ele>
        <time>2020-05-31T09:20:35Z</time>
      </trkpt>
      <trkpt lat="46.10133" lon="5.72114">
        <ele>1253.22</ele>
        <time>2020-05-31T09:20:36Z</time>
      </trkpt>
      <trkpt lat="46.10131" lon="5.72113">
        <ele>1253.22</ele>
        <time>2020-05-31T09:20:37Z</time>
      </trkpt>
      <trkpt lat="46.10098" lon="5.72098">
        <ele>1253.22</ele>
        <time>2020-05-31T09:20:51Z</time>
      </trkpt>
      <trkpt lat="46.10054" lon="5.72104">
        <ele>1250.33</ele>
        <time>2020-05-31T09:21:02Z</time>
      </trkpt>
      <trkpt lat="46.09999" lon="5.72108">
        <ele>1248.89</ele>
        <time>2020-05-31T09:21:12Z</time>
      </trkpt>
      <trkpt lat="46.09955" lon="5.72099">
        <ele>1251.29</ele>
        <time>2020-05-31T09:21:25Z</time>
      </trkpt>
      <trkpt lat="46.09918" lon="5.72076">
        <ele>1256.58</ele>
        <time>2020-05-31T09:21:39Z</time>
      </trkpt>
      <trkpt lat="46.09879" lon="5.72068">
        <ele>1258.5</ele>
        <time>2020-05-31T09:21:52Z</time>
      </trkpt>
      <trkpt lat="46.09827" lon="5.72061">
        <ele>1260.43</ele>
        <time>2020-05-31T09:22:08Z</time>
      </trkpt>
      <trkpt lat="46.09799" lon="5.72059">
        <ele>1261.87</ele>
        <time>2020-05-31T09:22:20Z</time>
      </trkpt>
      <trkpt lat="46.09774" lon="5.72048">
        <ele>1267.16</ele>
        <time>2020-05-31T09:22:32Z</time>
      </trkpt>
      <trkpt lat="46.09741" lon="5.72038">
        <ele>1271</ele>
        <time>2020-05-31T09:22:47Z</time>
      </trkpt>
      <trkpt lat="46.09697" lon="5.72029">
        <ele>1270.52</ele>
        <time>2020-05-31T09:23:02Z</time>
      </trkpt>
      <trkpt lat="46.09688" lon="5.7203">
        <ele>1269.56</ele>
        <time>2020-05-31T09:23:04Z</time>
      </trkpt>
      <trkpt lat="46.0967" lon="5.72031">
        <ele>1267.64</ele>
        <time>2020-05-31T09:23:09Z</time>
      </trkpt>
      <trkpt lat="46.0964" lon="5.72002">
        <ele>1263.79</ele>
        <time>2020-05-31T09:23:18Z</time>
      </trkpt>
      <trkpt lat="46.09606" lon="5.71982">
        <ele>1262.83</ele>
        <time>2020-05-31T09:23:28Z</time>
      </trkpt>
      <trkpt lat="46.09561" lon="5.7197">
        <ele>1263.79</ele>
        <time>2020-05-31T09:23:42Z</time>
      </trkpt>
      <trkpt lat="46.09518" lon="5.71962">
        <ele>1265.71</ele>
        <time>2020-05-31T09:23:57Z</time>
      </trkpt>
      <trkpt lat="46.09485" lon="5.7198">
        <ele>1264.75</ele>
        <time>2020-05-31T09:24:08Z</time>
      </trkpt>
      <trkpt lat="46.09445" lon="5.72013">
        <ele>1264.75</ele>
        <time>2020-05-31T09:24:24Z</time>
      </trkpt>
      <trkpt lat="46.09404" lon="5.72041">
        <ele>1263.79</ele>
        <time>2020-05-31T09:24:37Z</time>
      </trkpt>
      <trkpt lat="46.09361" lon="5.72059">
        <ele>1265.23</ele>
        <time>2020-05-31T09:24:52Z</time>
      </trkpt>
      <trkpt lat="46.09324" lon="5.72096">
        <ele>1266.19</ele>
        <time>2020-05-31T09:25:07Z</time>
      </trkpt>
      <trkpt lat="46.09283" lon="5.72117">
        <ele>1268.6</ele>
        <time>2020-05-31T09:25:22Z</time>
      </trkpt>
      <trkpt lat="46.09249" lon="5.72142">
        <ele>1269.08</ele>
        <time>2020-05-31T09:25:34Z</time>
      </trkpt>
      <trkpt lat="46.09216" lon="5.72176">
        <ele>1270.04</ele>
        <time>2020-05-31T09:25:46Z</time>
      </trkpt>
      <trkpt lat="46.09205" lon="5.72178">
        <ele>1269.08</ele>
        <time>2020-05-31T09:25:48Z</time>
      </trkpt>
      <trkpt lat="46.09198" lon="5.72178">
        <ele>1268.6</ele>
        <time>2020-05-31T09:25:49Z</time>
      </trkpt>
      <trkpt lat="46.09191" lon="5.72177">
        <ele>1268.12</ele>
        <time>2020-05-31T09:25:50Z</time>
      </trkpt>
      <trkpt lat="46.09183" lon="5.72175">
        <ele>1267.16</ele>
        <time>2020-05-31T09:25:51Z</time>
      </trkpt>
      <trkpt lat="46.09176" lon="5.72172">
        <ele>1266.67</ele>
        <time>2020-05-31T09:25:52Z</time>
      </trkpt>
      <trkpt lat="46.09139" lon="5.72165">
        <ele>1265.71</ele>
        <time>2020-05-31T09:25:57Z</time>
      </trkpt>
      <trkpt lat="46.0912" lon="5.72165">
        <ele>1264.75</ele>
        <time>2020-05-31T09:26:00Z</time>
      </trkpt>
      <trkpt lat="46.09115" lon="5.72163">
        <ele>1264.75</ele>
        <time>2020-05-31T09:26:01Z</time>
      </trkpt>
      <trkpt lat="46.09109" lon="5.72161">
        <ele>1264.75</ele>
        <time>2020-05-31T09:26:02Z</time>
      </trkpt>
      <trkpt lat="46.09044" lon="5.72135">
        <ele>1264.27</ele>
        <time>2020-05-31T09:26:12Z</time>
      </trkpt>
      <trkpt lat="46.09037" lon="5.72135">
        <ele>1264.27</ele>
        <time>2020-05-31T09:26:13Z</time>
      </trkpt>
      <trkpt lat="46.09032" lon="5.72136">
        <ele>1264.27</ele>
        <time>2020-05-31T09:26:14Z</time>
      </trkpt>
      <trkpt lat="46.09027" lon="5.72138">
        <ele>1264.27</ele>
        <time>2020-05-31T09:26:15Z</time>
      </trkpt>
      <trkpt lat="46.09023" lon="5.72139">
        <ele>1264.27</ele>
        <time>2020-05-31T09:26:16Z</time>
      </trkpt>
      <trkpt lat="46.09019" lon="5.72141">
        <ele>1264.27</ele>
        <time>2020-05-31T09:26:17Z</time>
      </trkpt>
      <trkpt lat="46.09015" lon="5.72143">
        <ele>1263.79</ele>
        <time>2020-05-31T09:26:19Z</time>
      </trkpt>
      <trkpt lat="46.09013" lon="5.72143">
        <ele>1264.27</ele>
        <time>2020-05-31T09:26:20Z</time>
      </trkpt>
      <trkpt lat="46.09012" lon="5.72141">
        <ele>1264.27</ele>
        <time>2020-05-31T09:26:21Z</time>
      </trkpt>
      <trkpt lat="46.09012" lon="5.7214">
        <ele>1264.27</ele>
        <time>2020-05-31T09:26:31Z</time>
      </trkpt>
      <trkpt lat="46.09012" lon="5.72136">
        <ele>1263.79</ele>
        <time>2020-05-31T09:26:45Z</time>
      </trkpt>
      <trkpt lat="46.09011" lon="5.72137">
        <ele>1264.27</ele>
        <time>2020-05-31T09:26:58Z</time>
      </trkpt>
      <trkpt lat="46.0901" lon="5.72136">
        <ele>1264.75</ele>
        <time>2020-05-31T09:27:30Z</time>
      </trkpt>
      <trkpt lat="46.0901" lon="5.72136">
        <ele>1264.27</ele>
        <time>2020-05-31T09:27:47Z</time>
      </trkpt>
      <trkpt lat="46.0901" lon="5.72137">
        <ele>1262.35</ele>
        <time>2020-05-31T09:28:17Z</time>
      </trkpt>
      <trkpt lat="46.0901" lon="5.72135">
        <ele>1263.31</ele>
        <time>2020-05-31T09:28:38Z</time>
      </trkpt>
      <trkpt lat="46.09009" lon="5.72135">
        <ele>1262.83</ele>
        <time>2020-05-31T09:28:53Z</time>
      </trkpt>
      <trkpt lat="46.09009" lon="5.72126">
        <ele>1263.79</ele>
        <time>2020-05-31T09:29:13Z</time>
      </trkpt>
      <trkpt lat="46.0901" lon="5.72124">
        <ele>1263.79</ele>
        <time>2020-05-31T09:29:14Z</time>
      </trkpt>
      <trkpt lat="46.09011" lon="5.72122">
        <ele>1263.79</ele>
        <time>2020-05-31T09:29:15Z</time>
      </trkpt>
      <trkpt lat="46.09012" lon="5.72121">
        <ele>1263.79</ele>
        <time>2020-05-31T09:29:16Z</time>
      </trkpt>
      <trkpt lat="46.09014" lon="5.72122">
        <ele>1263.79</ele>
        <time>2020-05-31T09:29:17Z</time>
      </trkpt>
      <trkpt lat="46.09014" lon="5.72124">
        <ele>1263.79</ele>
        <time>2020-05-31T09:29:18Z</time>
      </trkpt>
      <trkpt lat="46.09015" lon="5.72126">
        <ele>1263.79</ele>
        <time>2020-05-31T09:29:19Z</time>
      </trkpt>
      <trkpt lat="46.09014" lon="5.72128">
        <ele>1263.79</ele>
        <time>2020-05-31T09:29:20Z</time>
      </trkpt>
      <trkpt lat="46.09013" lon="5.72129">
        <ele>1263.79</ele>
        <time>2020-05-31T09:29:21Z</time>
      </trkpt>
      <trkpt lat="46.09011" lon="5.72129">
        <ele>1263.79</ele>
        <time>2020-05-31T09:29:22Z</time>
      </trkpt>
      <trkpt lat="46.09009" lon="5.72129">
        <ele>1264.27</ele>
        <time>2020-05-31T09:29:23Z</time>
      </trkpt>
      <trkpt lat="46.08971" lon="5.72123">
        <ele>1265.23</ele>
        <time>2020-05-31T09:29:37Z</time>
      </trkpt>
      <trkpt lat="46.08924" lon="5.72113">
        <ele>1267.16</ele>
        <time>2020-05-31T09:29:52Z</time>
      </trkpt>
      <trkpt lat="46.08889" lon="5.72103">
        <ele>1266.67</ele>
        <time>2020-05-31T09:30:05Z</time>
      </trkpt>
      <trkpt lat="46.08858" lon="5.72091">
        <ele>1265.23</ele>
        <time>2020-05-31T09:30:17Z</time>
      </trkpt>
      <trkpt lat="46.08855" lon="5.72087">
        <ele>1265.23</ele>
        <time>2020-05-31T09:30:18Z</time>
      </trkpt>
      <trkpt lat="46.08852" lon="5.72083">
        <ele>1265.23</ele>
        <time>2020-05-31T09:30:19Z</time>
      </trkpt>
      <trkpt lat="46.08849" lon="5.72079">
        <ele>1265.23</ele>
        <time>2020-05-31T09:30:20Z</time>
      </trkpt>
      <trkpt lat="46.08847" lon="5.72074">
        <ele>1265.71</ele>
        <time>2020-05-31T09:30:21Z</time>
      </trkpt>
      <trkpt lat="46.08845" lon="5.7207">
        <ele>1265.71</ele>
        <time>2020-05-31T09:30:22Z</time>
      </trkpt>
      <trkpt lat="46.08843" lon="5.72066">
        <ele>1265.23</ele>
        <time>2020-05-31T09:30:23Z</time>
      </trkpt>
      <trkpt lat="46.08841" lon="5.72061">
        <ele>1265.23</ele>
        <time>2020-05-31T09:30:24Z</time>
      </trkpt>
      <trkpt lat="46.08809" lon="5.72015">
        <ele>1267.16</ele>
        <time>2020-05-31T09:30:38Z</time>
      </trkpt>
      <trkpt lat="46.0877" lon="5.71986">
        <ele>1267.16</ele>
        <time>2020-05-31T09:30:53Z</time>
      </trkpt>
      <trkpt lat="46.08747" lon="5.71973">
        <ele>1264.27</ele>
        <time>2020-05-31T09:31:05Z</time>
      </trkpt>
      <trkpt lat="46.08733" lon="5.71971">
        <ele>1262.35</ele>
        <time>2020-05-31T09:31:09Z</time>
      </trkpt>
      <trkpt lat="46.08728" lon="5.71972">
        <ele>1261.87</ele>
        <time>2020-05-31T09:31:10Z</time>
      </trkpt>
      <trkpt lat="46.08711" lon="5.71978">
        <ele>1259.46</ele>
        <time>2020-05-31T09:31:13Z</time>
      </trkpt>
      <trkpt lat="46.087" lon="5.71979">
        <ele>1258.02</ele>
        <time>2020-05-31T09:31:15Z</time>
      </trkpt>
      <trkpt lat="46.08695" lon="5.71977">
        <ele>1257.06</ele>
        <time>2020-05-31T09:31:16Z</time>
      </trkpt>
      <trkpt lat="46.08659" lon="5.7197">
        <ele>1252.74</ele>
        <time>2020-05-31T09:31:25Z</time>
      </trkpt>
      <trkpt lat="46.08619" lon="5.71959">
        <ele>1250.81</ele>
        <time>2020-05-31T09:31:33Z</time>
      </trkpt>
      <trkpt lat="46.08613" lon="5.71955">
        <ele>1250.33</ele>
        <time>2020-05-31T09:31:34Z</time>
      </trkpt>
      <trkpt lat="46.08608" lon="5.71951">
        <ele>1250.33</ele>
        <time>2020-05-31T09:31:35Z</time>
      </trkpt>
      <trkpt lat="46.08604" lon="5.71945">
        <ele>1249.85</ele>
        <time>2020-05-31T09:31:36Z</time>
      </trkpt>
      <trkpt lat="46.086" lon="5.71938">
        <ele>1249.37</ele>
        <time>2020-05-31T09:31:37Z</time>
      </trkpt>
      <trkpt lat="46.08568" lon="5.71904">
        <ele>1246.49</ele>
        <time>2020-05-31T09:31:44Z</time>
      </trkpt>
      <trkpt lat="46.08563" lon="5.71902">
        <ele>1246.01</ele>
        <time>2020-05-31T09:31:45Z</time>
      </trkpt>
      <trkpt lat="46.08522" lon="5.7189">
        <ele>1242.64</ele>
        <time>2020-05-31T09:31:55Z</time>
      </trkpt>
      <trkpt lat="46.08511" lon="5.71887">
        <ele>1241.68</ele>
        <time>2020-05-31T09:31:57Z</time>
      </trkpt>
      <trkpt lat="46.08506" lon="5.71885">
        <ele>1241.2</ele>
        <time>2020-05-31T09:31:58Z</time>
      </trkpt>
      <trkpt lat="46.08464" lon="5.71859">
        <ele>1237.83</ele>
        <time>2020-05-31T09:32:08Z</time>
      </trkpt>
      <trkpt lat="46.08456" lon="5.71853">
        <ele>1237.83</ele>
        <time>2020-05-31T09:32:10Z</time>
      </trkpt>
      <trkpt lat="46.08447" lon="5.71847">
        <ele>1237.35</ele>
        <time>2020-05-31T09:32:12Z</time>
      </trkpt>
      <trkpt lat="46.08443" lon="5.71844">
        <ele>1236.87</ele>
        <time>2020-05-31T09:32:13Z</time>
      </trkpt>
      <trkpt lat="46.08434" lon="5.71839">
        <ele>1236.39</ele>
        <time>2020-05-31T09:32:15Z</time>
      </trkpt>
      <trkpt lat="46.08415" lon="5.71829">
        <ele>1236.87</ele>
        <time>2020-05-31T09:32:21Z</time>
      </trkpt>
      <trkpt lat="46.08413" lon="5.71828">
        <ele>1236.87</ele>
        <time>2020-05-31T09:32:22Z</time>
      </trkpt>
      <trkpt lat="46.08412" lon="5.71827">
        <ele>1236.87</ele>
        <time>2020-05-31T09:32:23Z</time>
      </trkpt>
      <trkpt lat="46.08409" lon="5.71829">
        <ele>1236.87</ele>
        <time>2020-05-31T09:32:34Z</time>
      </trkpt>
      <trkpt lat="46.08408" lon="5.71829">
        <ele>1239.28</ele>
        <time>2020-05-31T09:33:08Z</time>
      </trkpt>
      <trkpt lat="46.08408" lon="5.71826">
        <ele>1237.83</ele>
        <time>2020-05-31T09:33:24Z</time>
      </trkpt>
      <trkpt lat="46.08407" lon="5.71824">
        <ele>1237.83</ele>
        <time>2020-05-31T09:33:25Z</time>
      </trkpt>
      <trkpt lat="46.08405" lon="5.71822">
        <ele>1237.83</ele>
        <time>2020-05-31T09:33:26Z</time>
      </trkpt>
      <trkpt lat="46.08404" lon="5.71821">
        <ele>1237.83</ele>
        <time>2020-05-31T09:33:27Z</time>
      </trkpt>
      <trkpt lat="46.08401" lon="5.71819">
        <ele>1237.83</ele>
        <time>2020-05-31T09:33:28Z</time>
      </trkpt>
      <trkpt lat="46.08399" lon="5.71817">
        <ele>1237.83</ele>
        <time>2020-05-31T09:33:29Z</time>
      </trkpt>
      <trkpt lat="46.08369" lon="5.71804">
        <ele>1237.83</ele>
        <time>2020-05-31T09:33:40Z</time>
      </trkpt>
      <trkpt lat="46.08365" lon="5.71802">
        <ele>1237.83</ele>
        <time>2020-05-31T09:33:41Z</time>
      </trkpt>
      <trkpt lat="46.08362" lon="5.718">
        <ele>1237.83</ele>
        <time>2020-05-31T09:33:42Z</time>
      </trkpt>
      <trkpt lat="46.08359" lon="5.71798">
        <ele>1237.35</ele>
        <time>2020-05-31T09:33:43Z</time>
      </trkpt>
      <trkpt lat="46.08351" lon="5.71794">
        <ele>1237.35</ele>
        <time>2020-05-31T09:33:45Z</time>
      </trkpt>
      <trkpt lat="46.08347" lon="5.71792">
        <ele>1237.83</ele>
        <time>2020-05-31T09:33:46Z</time>
      </trkpt>
      <trkpt lat="46.0832" lon="5.71778">
        <ele>1239.76</ele>
        <time>2020-05-31T09:33:54Z</time>
      </trkpt>
      <trkpt lat="46.08288" lon="5.71771">
        <ele>1239.28</ele>
        <time>2020-05-31T09:34:02Z</time>
      </trkpt>
      <trkpt lat="46.08283" lon="5.7177">
        <ele>1238.8</ele>
        <time>2020-05-31T09:34:03Z</time>
      </trkpt>
      <trkpt lat="46.08232" lon="5.7176">
        <ele>1238.32</ele>
        <time>2020-05-31T09:34:15Z</time>
      </trkpt>
      <trkpt lat="46.08203" lon="5.71755">
        <ele>1235.91</ele>
        <time>2020-05-31T09:34:23Z</time>
      </trkpt>
      <trkpt lat="46.08142" lon="5.71765">
        <ele>1233.99</ele>
        <time>2020-05-31T09:34:37Z</time>
      </trkpt>
      <trkpt lat="46.08106" lon="5.71768">
        <ele>1234.95</ele>
        <time>2020-05-31T09:34:48Z</time>
      </trkpt>
      <trkpt lat="46.08104" lon="5.71769">
        <ele>1234.95</ele>
        <time>2020-05-31T09:34:49Z</time>
      </trkpt>
      <trkpt lat="46.0808" lon="5.71781">
        <ele>1236.87</ele>
        <time>2020-05-31T09:34:59Z</time>
      </trkpt>
      <trkpt lat="46.08041" lon="5.71792">
        <ele>1237.35</ele>
        <time>2020-05-31T09:35:12Z</time>
      </trkpt>
      <trkpt lat="46.0801" lon="5.718">
        <ele>1238.8</ele>
        <time>2020-05-31T09:35:22Z</time>
      </trkpt>
      <trkpt lat="46.07973" lon="5.71801">
        <ele>1237.35</ele>
        <time>2020-05-31T09:35:33Z</time>
      </trkpt>
      <trkpt lat="46.07937" lon="5.71813">
        <ele>1241.2</ele>
        <time>2020-05-31T09:35:44Z</time>
      </trkpt>
      <trkpt lat="46.07918" lon="5.71814">
        <ele>1242.64</ele>
        <time>2020-05-31T09:35:50Z</time>
      </trkpt>
      <trkpt lat="46.07882" lon="5.718">
        <ele>1243.6</ele>
        <time>2020-05-31T09:36:01Z</time>
      </trkpt>
      <trkpt lat="46.07832" lon="5.71767">
        <ele>1241.2</ele>
        <time>2020-05-31T09:36:16Z</time>
      </trkpt>
      <trkpt lat="46.07813" lon="5.71767">
        <ele>1239.76</ele>
        <time>2020-05-31T09:36:20Z</time>
      </trkpt>
      <trkpt lat="46.07785" lon="5.71775">
        <ele>1238.32</ele>
        <time>2020-05-31T09:36:27Z</time>
      </trkpt>
      <trkpt lat="46.07747" lon="5.71793">
        <ele>1234.95</ele>
        <time>2020-05-31T09:36:37Z</time>
      </trkpt>
      <trkpt lat="46.07732" lon="5.71796">
        <ele>1234.47</ele>
        <time>2020-05-31T09:36:41Z</time>
      </trkpt>
      <trkpt lat="46.07707" lon="5.71815">
        <ele>1232.07</ele>
        <time>2020-05-31T09:36:48Z</time>
      </trkpt>
      <trkpt lat="46.07678" lon="5.71824">
        <ele>1231.11</ele>
        <time>2020-05-31T09:36:58Z</time>
      </trkpt>
      <trkpt lat="46.07676" lon="5.71827">
        <ele>1231.11</ele>
        <time>2020-05-31T09:37:10Z</time>
      </trkpt>
      <trkpt lat="46.07677" lon="5.71827">
        <ele>1234.47</ele>
        <time>2020-05-31T09:37:37Z</time>
      </trkpt>
      <trkpt lat="46.07675" lon="5.71829">
        <ele>1234.47</ele>
        <time>2020-05-31T09:37:56Z</time>
      </trkpt>
      <trkpt lat="46.07674" lon="5.7183">
        <ele>1234.47</ele>
        <time>2020-05-31T09:38:25Z</time>
      </trkpt>
      <trkpt lat="46.07671" lon="5.71827">
        <ele>1234.95</ele>
        <time>2020-05-31T09:38:50Z</time>
      </trkpt>
      <trkpt lat="46.07661" lon="5.71829">
        <ele>1235.43</ele>
        <time>2020-05-31T09:39:01Z</time>
      </trkpt>
      <trkpt lat="46.07655" lon="5.7183">
        <ele>1234.47</ele>
        <time>2020-05-31T09:39:13Z</time>
      </trkpt>
      <trkpt lat="46.07637" lon="5.71837">
        <ele>1231.59</ele>
        <time>2020-05-31T09:39:24Z</time>
      </trkpt>
      <trkpt lat="46.07618" lon="5.71848">
        <ele>1229.66</ele>
        <time>2020-05-31T09:39:28Z</time>
      </trkpt>
      <trkpt lat="46.07597" lon="5.71855">
        <ele>1228.22</ele>
        <time>2020-05-31T09:39:33Z</time>
      </trkpt>
      <trkpt lat="46.07561" lon="5.71852">
        <ele>1228.22</ele>
        <time>2020-05-31T09:39:43Z</time>
      </trkpt>
      <trkpt lat="46.07527" lon="5.71843">
        <ele>1226.78</ele>
        <time>2020-05-31T09:39:54Z</time>
      </trkpt>
      <trkpt lat="46.07508" lon="5.71842">
        <ele>1226.3</ele>
        <time>2020-05-31T09:39:58Z</time>
      </trkpt>
      <trkpt lat="46.07465" lon="5.71846">
        <ele>1227.26</ele>
        <time>2020-05-31T09:40:13Z</time>
      </trkpt>
      <trkpt lat="46.07434" lon="5.71848">
        <ele>1227.26</ele>
        <time>2020-05-31T09:40:26Z</time>
      </trkpt>
      <trkpt lat="46.07411" lon="5.71853">
        <ele>1226.78</ele>
        <time>2020-05-31T09:40:37Z</time>
      </trkpt>
      <trkpt lat="46.0741" lon="5.71853">
        <ele>1226.78</ele>
        <time>2020-05-31T09:40:38Z</time>
      </trkpt>
      <trkpt lat="46.07407" lon="5.71844">
        <ele>1227.74</ele>
        <time>2020-05-31T09:40:47Z</time>
      </trkpt>
      <trkpt lat="46.07406" lon="5.71839">
        <ele>1228.22</ele>
        <time>2020-05-31T09:40:52Z</time>
      </trkpt>
      <trkpt lat="46.07396" lon="5.71836">
        <ele>1228.22</ele>
        <time>2020-05-31T09:41:06Z</time>
      </trkpt>
      <trkpt lat="46.07396" lon="5.71835">
        <ele>1229.66</ele>
        <time>2020-05-31T09:41:29Z</time>
      </trkpt>
      <trkpt lat="46.07396" lon="5.71835">
        <ele>1229.66</ele>
        <time>2020-05-31T09:42:00Z</time>
      </trkpt>
      <trkpt lat="46.07376" lon="5.7183">
        <ele>1228.7</ele>
        <time>2020-05-31T09:42:09Z</time>
      </trkpt>
      <trkpt lat="46.07341" lon="5.71827">
        <ele>1227.26</ele>
        <time>2020-05-31T09:42:20Z</time>
      </trkpt>
      <trkpt lat="46.0731" lon="5.71834">
        <ele>1227.74</ele>
        <time>2020-05-31T09:42:33Z</time>
      </trkpt>
      <trkpt lat="46.07282" lon="5.71839">
        <ele>1228.22</ele>
        <time>2020-05-31T09:42:44Z</time>
      </trkpt>
      <trkpt lat="46.07245" lon="5.71834">
        <ele>1230.14</ele>
        <time>2020-05-31T09:42:57Z</time>
      </trkpt>
      <trkpt lat="46.07204" lon="5.71823">
        <ele>1232.55</ele>
        <time>2020-05-31T09:43:13Z</time>
      </trkpt>
      <trkpt lat="46.07197" lon="5.71824">
        <ele>1233.51</ele>
        <time>2020-05-31T09:43:16Z</time>
      </trkpt>
      <trkpt lat="46.07164" lon="5.71822">
        <ele>1235.91</ele>
        <time>2020-05-31T09:43:30Z</time>
      </trkpt>
      <trkpt lat="46.07141" lon="5.71821">
        <ele>1235.43</ele>
        <time>2020-05-31T09:43:38Z</time>
      </trkpt>
      <trkpt lat="46.07137" lon="5.71819">
        <ele>1234.95</ele>
        <time>2020-05-31T09:43:39Z</time>
      </trkpt>
      <trkpt lat="46.07094" lon="5.71783">
        <ele>1236.39</ele>
        <time>2020-05-31T09:43:53Z</time>
      </trkpt>
      <trkpt lat="46.07057" lon="5.71776">
        <ele>1239.76</ele>
        <time>2020-05-31T09:44:07Z</time>
      </trkpt>
      <trkpt lat="46.07004" lon="5.71776">
        <ele>1240.24</ele>
        <time>2020-05-31T09:44:24Z</time>
      </trkpt>
      <trkpt lat="46.0697" lon="5.71764">
        <ele>1240.24</ele>
        <time>2020-05-31T09:44:36Z</time>
      </trkpt>
      <trkpt lat="46.0692" lon="5.71752">
        <ele>1242.64</ele>
        <time>2020-05-31T09:44:52Z</time>
      </trkpt>
      <trkpt lat="46.06889" lon="5.71747">
        <ele>1243.12</ele>
        <time>2020-05-31T09:45:04Z</time>
      </trkpt>
      <trkpt lat="46.06856" lon="5.71735">
        <ele>1245.04</ele>
        <time>2020-05-31T09:45:18Z</time>
      </trkpt>
      <trkpt lat="46.06815" lon="5.71715">
        <ele>1243.12</ele>
        <time>2020-05-31T09:45:34Z</time>
      </trkpt>
      <trkpt lat="46.06788" lon="5.71703">
        <ele>1240.24</ele>
        <time>2020-05-31T09:45:42Z</time>
      </trkpt>
      <trkpt lat="46.06779" lon="5.71701">
        <ele>1239.76</ele>
        <time>2020-05-31T09:45:44Z</time>
      </trkpt>
      <trkpt lat="46.06774" lon="5.71699">
        <ele>1239.28</ele>
        <time>2020-05-31T09:45:45Z</time>
      </trkpt>
      <trkpt lat="46.06769" lon="5.71699">
        <ele>1239.28</ele>
        <time>2020-05-31T09:45:46Z</time>
      </trkpt>
      <trkpt lat="46.06725" lon="5.71695">
        <ele>1237.83</ele>
        <time>2020-05-31T09:45:55Z</time>
      </trkpt>
      <trkpt lat="46.06714" lon="5.71688">
        <ele>1237.83</ele>
        <time>2020-05-31T09:45:58Z</time>
      </trkpt>
      <trkpt lat="46.067" lon="5.71675">
        <ele>1236.87</ele>
        <time>2020-05-31T09:46:02Z</time>
      </trkpt>
      <trkpt lat="46.06693" lon="5.71666">
        <ele>1236.39</ele>
        <time>2020-05-31T09:46:04Z</time>
      </trkpt>
      <trkpt lat="46.06683" lon="5.71654">
        <ele>1235.91</ele>
        <time>2020-05-31T09:46:07Z</time>
      </trkpt>
      <trkpt lat="46.06676" lon="5.71645">
        <ele>1235.43</ele>
        <time>2020-05-31T09:46:09Z</time>
      </trkpt>
      <trkpt lat="46.0663" lon="5.71603">
        <ele>1235.43</ele>
        <time>2020-05-31T09:46:23Z</time>
      </trkpt>
      <trkpt lat="46.06587" lon="5.71553">
        <ele>1235.91</ele>
        <time>2020-05-31T09:46:39Z</time>
      </trkpt>
      <trkpt lat="46.06548" lon="5.71512">
        <ele>1238.32</ele>
        <time>2020-05-31T09:46:53Z</time>
      </trkpt>
      <trkpt lat="46.06519" lon="5.7149">
        <ele>1237.83</ele>
        <time>2020-05-31T09:47:03Z</time>
      </trkpt>
      <trkpt lat="46.06492" lon="5.71454">
        <ele>1237.35</ele>
        <time>2020-05-31T09:47:14Z</time>
      </trkpt>
      <trkpt lat="46.06484" lon="5.71447">
        <ele>1235.91</ele>
        <time>2020-05-31T09:47:17Z</time>
      </trkpt>
      <trkpt lat="46.06453" lon="5.71405">
        <ele>1230.14</ele>
        <time>2020-05-31T09:47:26Z</time>
      </trkpt>
      <trkpt lat="46.06448" lon="5.714">
        <ele>1230.14</ele>
        <time>2020-05-31T09:47:27Z</time>
      </trkpt>
      <trkpt lat="46.06434" lon="5.71385">
        <ele>1229.18</ele>
        <time>2020-05-31T09:47:30Z</time>
      </trkpt>
      <trkpt lat="46.0643" lon="5.7138">
        <ele>1229.18</ele>
        <time>2020-05-31T09:47:31Z</time>
      </trkpt>
      <trkpt lat="46.06399" lon="5.71332">
        <ele>1228.22</ele>
        <time>2020-05-31T09:47:43Z</time>
      </trkpt>
      <trkpt lat="46.06383" lon="5.71317">
        <ele>1225.82</ele>
        <time>2020-05-31T09:47:50Z</time>
      </trkpt>
      <trkpt lat="46.06381" lon="5.71316">
        <ele>1225.82</ele>
        <time>2020-05-31T09:47:51Z</time>
      </trkpt>
      <trkpt lat="46.06379" lon="5.71315">
        <ele>1226.3</ele>
        <time>2020-05-31T09:47:52Z</time>
      </trkpt>
      <trkpt lat="46.06377" lon="5.71314">
        <ele>1226.3</ele>
        <time>2020-05-31T09:47:53Z</time>
      </trkpt>
      <trkpt lat="46.06375" lon="5.71313">
        <ele>1226.3</ele>
        <time>2020-05-31T09:47:54Z</time>
      </trkpt>
      <trkpt lat="46.06372" lon="5.7131">
        <ele>1226.3</ele>
        <time>2020-05-31T09:47:55Z</time>
      </trkpt>
      <trkpt lat="46.0637" lon="5.71308">
        <ele>1226.3</ele>
        <time>2020-05-31T09:47:56Z</time>
      </trkpt>
      <trkpt lat="46.06367" lon="5.71305">
        <ele>1226.3</ele>
        <time>2020-05-31T09:47:57Z</time>
      </trkpt>
      <trkpt lat="46.06359" lon="5.71293">
        <ele>1225.34</ele>
        <time>2020-05-31T09:48:00Z</time>
      </trkpt>
      <trkpt lat="46.06348" lon="5.71281">
        <ele>1224.38</ele>
        <time>2020-05-31T09:48:03Z</time>
      </trkpt>
      <trkpt lat="46.06342" lon="5.71273">
        <ele>1223.42</ele>
        <time>2020-05-31T09:48:05Z</time>
      </trkpt>
      <trkpt lat="46.06338" lon="5.7127">
        <ele>1223.42</ele>
        <time>2020-05-31T09:48:06Z</time>
      </trkpt>
      <trkpt lat="46.06334" lon="5.71266">
        <ele>1222.93</ele>
        <time>2020-05-31T09:48:07Z</time>
      </trkpt>
      <trkpt lat="46.06331" lon="5.71263">
        <ele>1222.45</ele>
        <time>2020-05-31T09:48:08Z</time>
      </trkpt>
      <trkpt lat="46.06327" lon="5.71259">
        <ele>1222.45</ele>
        <time>2020-05-31T09:48:09Z</time>
      </trkpt>
      <trkpt lat="46.06323" lon="5.71255">
        <ele>1221.97</ele>
        <time>2020-05-31T09:48:10Z</time>
      </trkpt>
      <trkpt lat="46.0632" lon="5.7125">
        <ele>1221.49</ele>
        <time>2020-05-31T09:48:11Z</time>
      </trkpt>
      <trkpt lat="46.06317" lon="5.71245">
        <ele>1221.01</ele>
        <time>2020-05-31T09:48:12Z</time>
      </trkpt>
      <trkpt lat="46.06315" lon="5.71241">
        <ele>1220.53</ele>
        <time>2020-05-31T09:48:13Z</time>
      </trkpt>
      <trkpt lat="46.06312" lon="5.71236">
        <ele>1220.05</ele>
        <time>2020-05-31T09:48:14Z</time>
      </trkpt>
      <trkpt lat="46.06309" lon="5.71232">
        <ele>1219.57</ele>
        <time>2020-05-31T09:48:15Z</time>
      </trkpt>
      <trkpt lat="46.06306" lon="5.71229">
        <ele>1219.09</ele>
        <time>2020-05-31T09:48:16Z</time>
      </trkpt>
      <trkpt lat="46.06302" lon="5.71227">
        <ele>1218.61</ele>
        <time>2020-05-31T09:48:17Z</time>
      </trkpt>
      <trkpt lat="46.063" lon="5.71226">
        <ele>1218.13</ele>
        <time>2020-05-31T09:48:18Z</time>
      </trkpt>
      <trkpt lat="46.06297" lon="5.71224">
        <ele>1217.65</ele>
        <time>2020-05-31T09:48:19Z</time>
      </trkpt>
      <trkpt lat="46.06294" lon="5.71222">
        <ele>1217.65</ele>
        <time>2020-05-31T09:48:20Z</time>
      </trkpt>
      <trkpt lat="46.06291" lon="5.71221">
        <ele>1217.17</ele>
        <time>2020-05-31T09:48:21Z</time>
      </trkpt>
      <trkpt lat="46.06288" lon="5.7122">
        <ele>1216.69</ele>
        <time>2020-05-31T09:48:22Z</time>
      </trkpt>
      <trkpt lat="46.06286" lon="5.71221">
        <ele>1216.21</ele>
        <time>2020-05-31T09:48:23Z</time>
      </trkpt>
      <trkpt lat="46.06282" lon="5.71222">
        <ele>1215.24</ele>
        <time>2020-05-31T09:48:34Z</time>
      </trkpt>
      <trkpt lat="46.06281" lon="5.71226">
        <ele>1217.17</ele>
        <time>2020-05-31T09:48:49Z</time>
      </trkpt>
      <trkpt lat="46.06285" lon="5.71226">
        <ele>1221.97</ele>
        <time>2020-05-31T09:49:36Z</time>
      </trkpt>
      <trkpt lat="46.06285" lon="5.71227">
        <ele>1224.38</ele>
        <time>2020-05-31T09:50:18Z</time>
      </trkpt>
      <trkpt lat="46.06283" lon="5.71223">
        <ele>1224.38</ele>
        <time>2020-05-31T09:50:31Z</time>
      </trkpt>
      <trkpt lat="46.06282" lon="5.71223">
        <ele>1223.9</ele>
        <time>2020-05-31T09:50:32Z</time>
      </trkpt>
      <trkpt lat="46.0628" lon="5.71222">
        <ele>1223.42</ele>
        <time>2020-05-31T09:50:33Z</time>
      </trkpt>
      <trkpt lat="46.06267" lon="5.71212">
        <ele>1220.05</ele>
        <time>2020-05-31T09:50:39Z</time>
      </trkpt>
      <trkpt lat="46.06262" lon="5.7121">
        <ele>1219.57</ele>
        <time>2020-05-31T09:50:40Z</time>
      </trkpt>
      <trkpt lat="46.06214" lon="5.7118">
        <ele>1210.44</ele>
        <time>2020-05-31T09:50:52Z</time>
      </trkpt>
      <trkpt lat="46.06169" lon="5.71146">
        <ele>1204.67</ele>
        <time>2020-05-31T09:51:03Z</time>
      </trkpt>
      <trkpt lat="46.06118" lon="5.71108">
        <ele>1203.71</ele>
        <time>2020-05-31T09:51:16Z</time>
      </trkpt>
      <trkpt lat="46.06114" lon="5.71105">
        <ele>1203.71</ele>
        <time>2020-05-31T09:51:17Z</time>
      </trkpt>
      <trkpt lat="46.06104" lon="5.71096">
        <ele>1203.23</ele>
        <time>2020-05-31T09:51:19Z</time>
      </trkpt>
      <trkpt lat="46.061" lon="5.71091">
        <ele>1203.23</ele>
        <time>2020-05-31T09:51:20Z</time>
      </trkpt>
      <trkpt lat="46.06098" lon="5.71084">
        <ele>1203.71</ele>
        <time>2020-05-31T09:51:21Z</time>
      </trkpt>
      <trkpt lat="46.06097" lon="5.71077">
        <ele>1203.71</ele>
        <time>2020-05-31T09:51:22Z</time>
      </trkpt>
      <trkpt lat="46.06097" lon="5.71071">
        <ele>1203.71</ele>
        <time>2020-05-31T09:51:23Z</time>
      </trkpt>
      <trkpt lat="46.06098" lon="5.71065">
        <ele>1203.71</ele>
        <time>2020-05-31T09:51:24Z</time>
      </trkpt>
      <trkpt lat="46.06099" lon="5.71054">
        <ele>1203.23</ele>
        <time>2020-05-31T09:51:26Z</time>
      </trkpt>
      <trkpt lat="46.06108" lon="5.71019">
        <ele>1201.79</ele>
        <time>2020-05-31T09:51:32Z</time>
      </trkpt>
      <trkpt lat="46.06116" lon="5.70998">
        <ele>1201.3</ele>
        <time>2020-05-31T09:51:35Z</time>
      </trkpt>
      <trkpt lat="46.0612" lon="5.70983">
        <ele>1200.82</ele>
        <time>2020-05-31T09:51:37Z</time>
      </trkpt>
      <trkpt lat="46.06129" lon="5.70931">
        <ele>1198.9</ele>
        <time>2020-05-31T09:51:44Z</time>
      </trkpt>
      <trkpt lat="46.06129" lon="5.70925">
        <ele>1198.42</ele>
        <time>2020-05-31T09:51:45Z</time>
      </trkpt>
      <trkpt lat="46.06128" lon="5.70917">
        <ele>1197.46</ele>
        <time>2020-05-31T09:51:46Z</time>
      </trkpt>
      <trkpt lat="46.06127" lon="5.70909">
        <ele>1196.5</ele>
        <time>2020-05-31T09:51:47Z</time>
      </trkpt>
      <trkpt lat="46.06124" lon="5.70904">
        <ele>1195.54</ele>
        <time>2020-05-31T09:51:48Z</time>
      </trkpt>
      <trkpt lat="46.06122" lon="5.70901">
        <ele>1194.58</ele>
        <time>2020-05-31T09:51:49Z</time>
      </trkpt>
      <trkpt lat="46.0612" lon="5.70898">
        <ele>1193.61</ele>
        <time>2020-05-31T09:51:50Z</time>
      </trkpt>
      <trkpt lat="46.06116" lon="5.70896">
        <ele>1192.65</ele>
        <time>2020-05-31T09:51:51Z</time>
      </trkpt>
      <trkpt lat="46.06111" lon="5.70895">
        <ele>1191.69</ele>
        <time>2020-05-31T09:51:52Z</time>
      </trkpt>
      <trkpt lat="46.06105" lon="5.70895">
        <ele>1190.73</ele>
        <time>2020-05-31T09:51:53Z</time>
      </trkpt>
      <trkpt lat="46.06099" lon="5.70893">
        <ele>1190.25</ele>
        <time>2020-05-31T09:51:54Z</time>
      </trkpt>
      <trkpt lat="46.06093" lon="5.7089">
        <ele>1189.77</ele>
        <time>2020-05-31T09:51:55Z</time>
      </trkpt>
      <trkpt lat="46.06087" lon="5.70885">
        <ele>1188.81</ele>
        <time>2020-05-31T09:51:56Z</time>
      </trkpt>
      <trkpt lat="46.06082" lon="5.70881">
        <ele>1187.85</ele>
        <time>2020-05-31T09:51:57Z</time>
      </trkpt>
      <trkpt lat="46.06076" lon="5.70877">
        <ele>1187.37</ele>
        <time>2020-05-31T09:51:58Z</time>
      </trkpt>
      <trkpt lat="46.0607" lon="5.70872">
        <ele>1186.4</ele>
        <time>2020-05-31T09:51:59Z</time>
      </trkpt>
      <trkpt lat="46.06064" lon="5.70867">
        <ele>1185.44</ele>
        <time>2020-05-31T09:52:00Z</time>
      </trkpt>
      <trkpt lat="46.06058" lon="5.70863">
        <ele>1184.48</ele>
        <time>2020-05-31T09:52:01Z</time>
      </trkpt>
      <trkpt lat="46.06048" lon="5.70857">
        <ele>1182.56</ele>
        <time>2020-05-31T09:52:03Z</time>
      </trkpt>
      <trkpt lat="46.06044" lon="5.70853">
        <ele>1182.56</ele>
        <time>2020-05-31T09:52:04Z</time>
      </trkpt>
      <trkpt lat="46.06041" lon="5.70848">
        <ele>1182.08</ele>
        <time>2020-05-31T09:52:05Z</time>
      </trkpt>
      <trkpt lat="46.06024" lon="5.70809">
        <ele>1180.16</ele>
        <time>2020-05-31T09:52:12Z</time>
      </trkpt>
      <trkpt lat="46.06021" lon="5.70803">
        <ele>1180.16</ele>
        <time>2020-05-31T09:52:13Z</time>
      </trkpt>
      <trkpt lat="46.05985" lon="5.70771">
        <ele>1176.79</ele>
        <time>2020-05-31T09:52:24Z</time>
      </trkpt>
      <trkpt lat="46.05976" lon="5.70772">
        <ele>1176.31</ele>
        <time>2020-05-31T09:52:26Z</time>
      </trkpt>
      <trkpt lat="46.05972" lon="5.70774">
        <ele>1176.31</ele>
        <time>2020-05-31T09:52:27Z</time>
      </trkpt>
      <trkpt lat="46.05952" lon="5.70781">
        <ele>1176.31</ele>
        <time>2020-05-31T09:52:31Z</time>
      </trkpt>
      <trkpt lat="46.05924" lon="5.70773">
        <ele>1176.79</ele>
        <time>2020-05-31T09:52:38Z</time>
      </trkpt>
      <trkpt lat="46.0592" lon="5.70769">
        <ele>1176.79</ele>
        <time>2020-05-31T09:52:39Z</time>
      </trkpt>
      <trkpt lat="46.05915" lon="5.70765">
        <ele>1176.79</ele>
        <time>2020-05-31T09:52:40Z</time>
      </trkpt>
      <trkpt lat="46.0591" lon="5.7076">
        <ele>1177.27</ele>
        <time>2020-05-31T09:52:41Z</time>
      </trkpt>
      <trkpt lat="46.05905" lon="5.70756">
        <ele>1177.27</ele>
        <time>2020-05-31T09:52:42Z</time>
      </trkpt>
      <trkpt lat="46.05901" lon="5.70752">
        <ele>1177.27</ele>
        <time>2020-05-31T09:52:43Z</time>
      </trkpt>
      <trkpt lat="46.0589" lon="5.70746">
        <ele>1179.19</ele>
        <time>2020-05-31T09:52:51Z</time>
      </trkpt>
      <trkpt lat="46.05891" lon="5.70746">
        <ele>1180.64</ele>
        <time>2020-05-31T09:53:19Z</time>
      </trkpt>
      <trkpt lat="46.05891" lon="5.70745">
        <ele>1180.64</ele>
        <time>2020-05-31T09:53:24Z</time>
      </trkpt>
      <trkpt lat="46.0589" lon="5.70744">
        <ele>1180.64</ele>
        <time>2020-05-31T09:53:25Z</time>
      </trkpt>
      <trkpt lat="46.05889" lon="5.70744">
        <ele>1180.64</ele>
        <time>2020-05-31T09:53:26Z</time>
      </trkpt>
      <trkpt lat="46.05887" lon="5.70743">
        <ele>1180.64</ele>
        <time>2020-05-31T09:53:27Z</time>
      </trkpt>
      <trkpt lat="46.05886" lon="5.70742">
        <ele>1180.64</ele>
        <time>2020-05-31T09:53:28Z</time>
      </trkpt>
      <trkpt lat="46.05884" lon="5.70741">
        <ele>1180.64</ele>
        <time>2020-05-31T09:53:29Z</time>
      </trkpt>
      <trkpt lat="46.05851" lon="5.70714">
        <ele>1176.79</ele>
        <time>2020-05-31T09:53:41Z</time>
      </trkpt>
      <trkpt lat="46.05816" lon="5.70672">
        <ele>1171.02</ele>
        <time>2020-05-31T09:53:53Z</time>
      </trkpt>
      <trkpt lat="46.05788" lon="5.7063">
        <ele>1164.29</ele>
        <time>2020-05-31T09:54:04Z</time>
      </trkpt>
      <trkpt lat="46.05777" lon="5.70612">
        <ele>1161.41</ele>
        <time>2020-05-31T09:54:08Z</time>
      </trkpt>
      <trkpt lat="46.05774" lon="5.70608">
        <ele>1160.93</ele>
        <time>2020-05-31T09:54:09Z</time>
      </trkpt>
      <trkpt lat="46.05759" lon="5.70584">
        <ele>1158.05</ele>
        <time>2020-05-31T09:54:14Z</time>
      </trkpt>
      <trkpt lat="46.05756" lon="5.7058">
        <ele>1157.56</ele>
        <time>2020-05-31T09:54:15Z</time>
      </trkpt>
      <trkpt lat="46.05753" lon="5.70576">
        <ele>1156.6</ele>
        <time>2020-05-31T09:54:16Z</time>
      </trkpt>
      <trkpt lat="46.0575" lon="5.70572">
        <ele>1156.12</ele>
        <time>2020-05-31T09:54:17Z</time>
      </trkpt>
      <trkpt lat="46.05748" lon="5.70567">
        <ele>1155.64</ele>
        <time>2020-05-31T09:54:18Z</time>
      </trkpt>
      <trkpt lat="46.05744" lon="5.70563">
        <ele>1155.16</ele>
        <time>2020-05-31T09:54:19Z</time>
      </trkpt>
      <trkpt lat="46.05741" lon="5.7056">
        <ele>1154.68</ele>
        <time>2020-05-31T09:54:20Z</time>
      </trkpt>
      <trkpt lat="46.05737" lon="5.70557">
        <ele>1154.2</ele>
        <time>2020-05-31T09:54:21Z</time>
      </trkpt>
      <trkpt lat="46.05694" lon="5.70529">
        <ele>1147.95</ele>
        <time>2020-05-31T09:54:34Z</time>
      </trkpt>
      <trkpt lat="46.05673" lon="5.70511">
        <ele>1145.07</ele>
        <time>2020-05-31T09:54:40Z</time>
      </trkpt>
      <trkpt lat="46.0566" lon="5.70502">
        <ele>1144.11</ele>
        <time>2020-05-31T09:54:43Z</time>
      </trkpt>
      <trkpt lat="46.05641" lon="5.70484">
        <ele>1141.7</ele>
        <time>2020-05-31T09:54:52Z</time>
      </trkpt>
      <trkpt lat="46.0564" lon="5.70483">
        <ele>1141.7</ele>
        <time>2020-05-31T09:54:58Z</time>
      </trkpt>
      <trkpt lat="46.05639" lon="5.70482">
        <ele>1141.7</ele>
        <time>2020-05-31T09:54:59Z</time>
      </trkpt>
      <trkpt lat="46.05638" lon="5.7048">
        <ele>1142.18</ele>
        <time>2020-05-31T09:55:00Z</time>
      </trkpt>
      <trkpt lat="46.05637" lon="5.70477">
        <ele>1142.18</ele>
        <time>2020-05-31T09:55:01Z</time>
      </trkpt>
      <trkpt lat="46.05636" lon="5.70475">
        <ele>1142.18</ele>
        <time>2020-05-31T09:55:02Z</time>
      </trkpt>
      <trkpt lat="46.05634" lon="5.70473">
        <ele>1142.18</ele>
        <time>2020-05-31T09:55:03Z</time>
      </trkpt>
      <trkpt lat="46.05632" lon="5.70473">
        <ele>1142.18</ele>
        <time>2020-05-31T09:55:04Z</time>
      </trkpt>
      <trkpt lat="46.05628" lon="5.70474">
        <ele>1142.66</ele>
        <time>2020-05-31T09:55:05Z</time>
      </trkpt>
      <trkpt lat="46.05626" lon="5.70476">
        <ele>1142.66</ele>
        <time>2020-05-31T09:55:06Z</time>
      </trkpt>
      <trkpt lat="46.05625" lon="5.70478">
        <ele>1142.66</ele>
        <time>2020-05-31T09:55:07Z</time>
      </trkpt>
      <trkpt lat="46.05623" lon="5.70478">
        <ele>1142.18</ele>
        <time>2020-05-31T09:55:19Z</time>
      </trkpt>
      <trkpt lat="46.05624" lon="5.70478">
        <ele>1139.78</ele>
        <time>2020-05-31T09:55:46Z</time>
      </trkpt>
      <trkpt lat="46.05612" lon="5.70501">
        <ele>1138.34</ele>
        <time>2020-05-31T09:55:56Z</time>
      </trkpt>
      <trkpt lat="46.05588" lon="5.70551">
        <ele>1139.78</ele>
        <time>2020-05-31T09:56:07Z</time>
      </trkpt>
      <trkpt lat="46.05586" lon="5.70554">
        <ele>1140.26</ele>
        <time>2020-05-31T09:56:08Z</time>
      </trkpt>
      <trkpt lat="46.05584" lon="5.70556">
        <ele>1141.22</ele>
        <time>2020-05-31T09:56:09Z</time>
      </trkpt>
      <trkpt lat="46.05561" lon="5.70591">
        <ele>1146.99</ele>
        <time>2020-05-31T09:56:22Z</time>
      </trkpt>
      <trkpt lat="46.05541" lon="5.70651">
        <ele>1147.95</ele>
        <time>2020-05-31T09:56:36Z</time>
      </trkpt>
      <trkpt lat="46.0552" lon="5.70721">
        <ele>1149.39</ele>
        <time>2020-05-31T09:56:53Z</time>
      </trkpt>
      <trkpt lat="46.0552" lon="5.70771">
        <ele>1152.76</ele>
        <time>2020-05-31T09:57:08Z</time>
      </trkpt>
      <trkpt lat="46.05519" lon="5.70808">
        <ele>1155.16</ele>
        <time>2020-05-31T09:57:21Z</time>
      </trkpt>
      <trkpt lat="46.05523" lon="5.70852">
        <ele>1160.93</ele>
        <time>2020-05-31T09:57:36Z</time>
      </trkpt>
      <trkpt lat="46.05531" lon="5.70902">
        <ele>1166.22</ele>
        <time>2020-05-31T09:57:53Z</time>
      </trkpt>
      <trkpt lat="46.05541" lon="5.70944">
        <ele>1168.14</ele>
        <time>2020-05-31T09:58:08Z</time>
      </trkpt>
      <trkpt lat="46.05546" lon="5.70999">
        <ele>1170.06</ele>
        <time>2020-05-31T09:58:25Z</time>
      </trkpt>
      <trkpt lat="46.05546" lon="5.71011">
        <ele>1171.02</ele>
        <time>2020-05-31T09:58:29Z</time>
      </trkpt>
      <trkpt lat="46.05547" lon="5.71014">
        <ele>1171.02</ele>
        <time>2020-05-31T09:58:30Z</time>
      </trkpt>
      <trkpt lat="46.05547" lon="5.71018">
        <ele>1171.02</ele>
        <time>2020-05-31T09:58:31Z</time>
      </trkpt>
      <trkpt lat="46.05545" lon="5.71073">
        <ele>1172.95</ele>
        <time>2020-05-31T09:58:48Z</time>
      </trkpt>
      <trkpt lat="46.05537" lon="5.71133">
        <ele>1173.43</ele>
        <time>2020-05-31T09:59:04Z</time>
      </trkpt>
      <trkpt lat="46.05522" lon="5.71174">
        <ele>1173.43</ele>
        <time>2020-05-31T09:59:14Z</time>
      </trkpt>
      <trkpt lat="46.05506" lon="5.71231">
        <ele>1172.95</ele>
        <time>2020-05-31T09:59:26Z</time>
      </trkpt>
      <trkpt lat="46.05492" lon="5.71264">
        <ele>1176.31</ele>
        <time>2020-05-31T09:59:39Z</time>
      </trkpt>
      <trkpt lat="46.05456" lon="5.71285">
        <ele>1182.08</ele>
        <time>2020-05-31T09:59:51Z</time>
      </trkpt>
      <trkpt lat="46.05419" lon="5.71307">
        <ele>1184.96</ele>
        <time>2020-05-31T10:00:05Z</time>
      </trkpt>
      <trkpt lat="46.05399" lon="5.71318">
        <ele>1183.52</ele>
        <time>2020-05-31T10:00:16Z</time>
      </trkpt>
      <trkpt lat="46.05397" lon="5.71319">
        <ele>1183.52</ele>
        <time>2020-05-31T10:00:17Z</time>
      </trkpt>
      <trkpt lat="46.05396" lon="5.71319">
        <ele>1183.52</ele>
        <time>2020-05-31T10:00:18Z</time>
      </trkpt>
      <trkpt lat="46.05394" lon="5.7132">
        <ele>1183.52</ele>
        <time>2020-05-31T10:00:19Z</time>
      </trkpt>
      <trkpt lat="46.05393" lon="5.7132">
        <ele>1183.04</ele>
        <time>2020-05-31T10:00:20Z</time>
      </trkpt>
      <trkpt lat="46.05391" lon="5.71322">
        <ele>1182.56</ele>
        <time>2020-05-31T10:00:21Z</time>
      </trkpt>
      <trkpt lat="46.0539" lon="5.71323">
        <ele>1182.08</ele>
        <time>2020-05-31T10:00:22Z</time>
      </trkpt>
      <trkpt lat="46.05388" lon="5.71324">
        <ele>1182.08</ele>
        <time>2020-05-31T10:00:23Z</time>
      </trkpt>
      <trkpt lat="46.05387" lon="5.71325">
        <ele>1181.6</ele>
        <time>2020-05-31T10:00:24Z</time>
      </trkpt>
      <trkpt lat="46.05385" lon="5.71326">
        <ele>1181.12</ele>
        <time>2020-05-31T10:00:25Z</time>
      </trkpt>
      <trkpt lat="46.05383" lon="5.71327">
        <ele>1180.64</ele>
        <time>2020-05-31T10:00:26Z</time>
      </trkpt>
      <trkpt lat="46.05381" lon="5.71329">
        <ele>1180.64</ele>
        <time>2020-05-31T10:00:27Z</time>
      </trkpt>
      <trkpt lat="46.05379" lon="5.7133">
        <ele>1180.16</ele>
        <time>2020-05-31T10:00:28Z</time>
      </trkpt>
      <trkpt lat="46.05346" lon="5.71363">
        <ele>1177.75</ele>
        <time>2020-05-31T10:00:43Z</time>
      </trkpt>
      <trkpt lat="46.05336" lon="5.71374">
        <ele>1178.23</ele>
        <time>2020-05-31T10:00:49Z</time>
      </trkpt>
      <trkpt lat="46.05335" lon="5.71374">
        <ele>1177.75</ele>
        <time>2020-05-31T10:00:50Z</time>
      </trkpt>
      <trkpt lat="46.05332" lon="5.71373">
        <ele>1175.35</ele>
        <time>2020-05-31T10:01:03Z</time>
      </trkpt>
      <trkpt lat="46.05334" lon="5.71371">
        <ele>1175.35</ele>
        <time>2020-05-31T10:01:09Z</time>
      </trkpt>
      <trkpt lat="46.05334" lon="5.7137">
        <ele>1175.35</ele>
        <time>2020-05-31T10:01:10Z</time>
      </trkpt>
      <trkpt lat="46.05335" lon="5.7137">
        <ele>1175.35</ele>
        <time>2020-05-31T10:01:11Z</time>
      </trkpt>
      <trkpt lat="46.05339" lon="5.71371">
        <ele>1175.35</ele>
        <time>2020-05-31T10:01:17Z</time>
      </trkpt>
      <trkpt lat="46.05339" lon="5.71373">
        <ele>1175.35</ele>
        <time>2020-05-31T10:01:18Z</time>
      </trkpt>
      <trkpt lat="46.05339" lon="5.71375">
        <ele>1175.35</ele>
        <time>2020-05-31T10:01:19Z</time>
      </trkpt>
      <trkpt lat="46.05338" lon="5.71376">
        <ele>1175.83</ele>
        <time>2020-05-31T10:01:30Z</time>
      </trkpt>
      <trkpt lat="46.05337" lon="5.71377">
        <ele>1174.39</ele>
        <time>2020-05-31T10:01:54Z</time>
      </trkpt>
      <trkpt lat="46.05336" lon="5.71379">
        <ele>1175.35</ele>
        <time>2020-05-31T10:02:12Z</time>
      </trkpt>
      <trkpt lat="46.05335" lon="5.71379">
        <ele>1174.87</ele>
        <time>2020-05-31T10:02:18Z</time>
      </trkpt>
      <trkpt lat="46.05334" lon="5.71381">
        <ele>1174.87</ele>
        <time>2020-05-31T10:02:19Z</time>
      </trkpt>
      <trkpt lat="46.053" lon="5.71409">
        <ele>1175.83</ele>
        <time>2020-05-31T10:02:31Z</time>
      </trkpt>
      <trkpt lat="46.05255" lon="5.71422">
        <ele>1180.64</ele>
        <time>2020-05-31T10:02:46Z</time>
      </trkpt>
      <trkpt lat="46.05224" lon="5.71419">
        <ele>1183.04</ele>
        <time>2020-05-31T10:02:58Z</time>
      </trkpt>
      <trkpt lat="46.05209" lon="5.7142">
        <ele>1182.08</ele>
        <time>2020-05-31T10:03:01Z</time>
      </trkpt>
      <trkpt lat="46.05204" lon="5.71421">
        <ele>1181.6</ele>
        <time>2020-05-31T10:03:02Z</time>
      </trkpt>
      <trkpt lat="46.05198" lon="5.71423">
        <ele>1180.64</ele>
        <time>2020-05-31T10:03:03Z</time>
      </trkpt>
      <trkpt lat="46.05193" lon="5.71424">
        <ele>1180.64</ele>
        <time>2020-05-31T10:03:04Z</time>
      </trkpt>
      <trkpt lat="46.05186" lon="5.71426">
        <ele>1180.16</ele>
        <time>2020-05-31T10:03:05Z</time>
      </trkpt>
      <trkpt lat="46.05181" lon="5.71427">
        <ele>1180.16</ele>
        <time>2020-05-31T10:03:06Z</time>
      </trkpt>
      <trkpt lat="46.05166" lon="5.71432">
        <ele>1180.16</ele>
        <time>2020-05-31T10:03:09Z</time>
      </trkpt>
      <trkpt lat="46.0513" lon="5.71455">
        <ele>1182.08</ele>
        <time>2020-05-31T10:03:20Z</time>
      </trkpt>
      <trkpt lat="46.05105" lon="5.71473">
        <ele>1181.6</ele>
        <time>2020-05-31T10:03:27Z</time>
      </trkpt>
      <trkpt lat="46.05103" lon="5.71473">
        <ele>1182.56</ele>
        <time>2020-05-31T10:03:28Z</time>
      </trkpt>
      <trkpt lat="46.05102" lon="5.71474">
        <ele>1183.04</ele>
        <time>2020-05-31T10:03:29Z</time>
      </trkpt>
      <trkpt lat="46.051" lon="5.71476">
        <ele>1183.04</ele>
        <time>2020-05-31T10:03:30Z</time>
      </trkpt>
      <trkpt lat="46.051" lon="5.71478">
        <ele>1183.52</ele>
        <time>2020-05-31T10:03:31Z</time>
      </trkpt>
      <trkpt lat="46.05098" lon="5.7148">
        <ele>1183.04</ele>
        <time>2020-05-31T10:03:40Z</time>
      </trkpt>
      <trkpt lat="46.05097" lon="5.71482">
        <ele>1183.04</ele>
        <time>2020-05-31T10:03:43Z</time>
      </trkpt>
      <trkpt lat="46.05096" lon="5.71482">
        <ele>1183.04</ele>
        <time>2020-05-31T10:03:44Z</time>
      </trkpt>
      <trkpt lat="46.05095" lon="5.71483">
        <ele>1183.04</ele>
        <time>2020-05-31T10:03:45Z</time>
      </trkpt>
      <trkpt lat="46.05093" lon="5.71485">
        <ele>1183.04</ele>
        <time>2020-05-31T10:03:46Z</time>
      </trkpt>
      <trkpt lat="46.05091" lon="5.71486">
        <ele>1183.04</ele>
        <time>2020-05-31T10:03:47Z</time>
      </trkpt>
      <trkpt lat="46.0509" lon="5.71488">
        <ele>1183.04</ele>
        <time>2020-05-31T10:03:48Z</time>
      </trkpt>
      <trkpt lat="46.05088" lon="5.71489">
        <ele>1183.04</ele>
        <time>2020-05-31T10:03:49Z</time>
      </trkpt>
      <trkpt lat="46.05086" lon="5.71491">
        <ele>1182.56</ele>
        <time>2020-05-31T10:03:50Z</time>
      </trkpt>
      <trkpt lat="46.05085" lon="5.71493">
        <ele>1182.56</ele>
        <time>2020-05-31T10:03:51Z</time>
      </trkpt>
      <trkpt lat="46.05061" lon="5.71516">
        <ele>1181.6</ele>
        <time>2020-05-31T10:04:06Z</time>
      </trkpt>
      <trkpt lat="46.0504" lon="5.71537">
        <ele>1182.56</ele>
        <time>2020-05-31T10:04:18Z</time>
      </trkpt>
      <trkpt lat="46.05006" lon="5.71577">
        <ele>1184.48</ele>
        <time>2020-05-31T10:04:31Z</time>
      </trkpt>
      <trkpt lat="46.04964" lon="5.71609">
        <ele>1182.08</ele>
        <time>2020-05-31T10:04:39Z</time>
      </trkpt>
      <trkpt lat="46.04957" lon="5.7161">
        <ele>1181.12</ele>
        <time>2020-05-31T10:04:40Z</time>
      </trkpt>
      <trkpt lat="46.0495" lon="5.71611">
        <ele>1180.64</ele>
        <time>2020-05-31T10:04:41Z</time>
      </trkpt>
      <trkpt lat="46.04942" lon="5.71612">
        <ele>1179.67</ele>
        <time>2020-05-31T10:04:42Z</time>
      </trkpt>
      <trkpt lat="46.04935" lon="5.71611">
        <ele>1179.19</ele>
        <time>2020-05-31T10:04:43Z</time>
      </trkpt>
      <trkpt lat="46.04927" lon="5.7161">
        <ele>1178.23</ele>
        <time>2020-05-31T10:04:44Z</time>
      </trkpt>
      <trkpt lat="46.0492" lon="5.71608">
        <ele>1177.27</ele>
        <time>2020-05-31T10:04:45Z</time>
      </trkpt>
      <trkpt lat="46.04913" lon="5.71604">
        <ele>1176.79</ele>
        <time>2020-05-31T10:04:46Z</time>
      </trkpt>
      <trkpt lat="46.04906" lon="5.716">
        <ele>1176.31</ele>
        <time>2020-05-31T10:04:47Z</time>
      </trkpt>
      <trkpt lat="46.04899" lon="5.71597">
        <ele>1176.31</ele>
        <time>2020-05-31T10:04:48Z</time>
      </trkpt>
      <trkpt lat="46.04861" lon="5.71577">
        <ele>1175.83</ele>
        <time>2020-05-31T10:04:56Z</time>
      </trkpt>
      <trkpt lat="46.04858" lon="5.71574">
        <ele>1175.83</ele>
        <time>2020-05-31T10:04:57Z</time>
      </trkpt>
      <trkpt lat="46.04825" lon="5.71544">
        <ele>1177.27</ele>
        <time>2020-05-31T10:05:07Z</time>
      </trkpt>
      <trkpt lat="46.04822" lon="5.71543">
        <ele>1177.27</ele>
        <time>2020-05-31T10:05:08Z</time>
      </trkpt>
      <trkpt lat="46.04819" lon="5.71542">
        <ele>1177.75</ele>
        <time>2020-05-31T10:05:09Z</time>
      </trkpt>
      <trkpt lat="46.04817" lon="5.71541">
        <ele>1177.75</ele>
        <time>2020-05-31T10:05:10Z</time>
      </trkpt>
      <trkpt lat="46.04815" lon="5.7154">
        <ele>1178.23</ele>
        <time>2020-05-31T10:05:11Z</time>
      </trkpt>
      <trkpt lat="46.04789" lon="5.71527">
        <ele>1180.64</ele>
        <time>2020-05-31T10:05:22Z</time>
      </trkpt>
      <trkpt lat="46.04763" lon="5.71515">
        <ele>1179.67</ele>
        <time>2020-05-31T10:05:31Z</time>
      </trkpt>
      <trkpt lat="46.04757" lon="5.71516">
        <ele>1179.19</ele>
        <time>2020-05-31T10:05:32Z</time>
      </trkpt>
      <trkpt lat="46.04739" lon="5.71521">
        <ele>1178.23</ele>
        <time>2020-05-31T10:05:35Z</time>
      </trkpt>
      <trkpt lat="46.04733" lon="5.71523">
        <ele>1177.75</ele>
        <time>2020-05-31T10:05:36Z</time>
      </trkpt>
      <trkpt lat="46.04729" lon="5.71526">
        <ele>1177.75</ele>
        <time>2020-05-31T10:05:37Z</time>
      </trkpt>
      <trkpt lat="46.04725" lon="5.71529">
        <ele>1177.27</ele>
        <time>2020-05-31T10:05:38Z</time>
      </trkpt>
      <trkpt lat="46.04721" lon="5.71532">
        <ele>1177.27</ele>
        <time>2020-05-31T10:05:39Z</time>
      </trkpt>
      <trkpt lat="46.04689" lon="5.71556">
        <ele>1184</ele>
        <time>2020-05-31T10:05:50Z</time>
      </trkpt>
      <trkpt lat="46.0466" lon="5.71573">
        <ele>1184.96</ele>
        <time>2020-05-31T10:05:58Z</time>
      </trkpt>
      <trkpt lat="46.04656" lon="5.71577">
        <ele>1184.96</ele>
        <time>2020-05-31T10:05:59Z</time>
      </trkpt>
      <trkpt lat="46.04651" lon="5.71582">
        <ele>1184.96</ele>
        <time>2020-05-31T10:06:00Z</time>
      </trkpt>
      <trkpt lat="46.04646" lon="5.71586">
        <ele>1184.96</ele>
        <time>2020-05-31T10:06:01Z</time>
      </trkpt>
      <trkpt lat="46.04642" lon="5.71588">
        <ele>1184.48</ele>
        <time>2020-05-31T10:06:02Z</time>
      </trkpt>
      <trkpt lat="46.04638" lon="5.71588">
        <ele>1184.48</ele>
        <time>2020-05-31T10:06:03Z</time>
      </trkpt>
      <trkpt lat="46.04634" lon="5.71588">
        <ele>1184</ele>
        <time>2020-05-31T10:06:04Z</time>
      </trkpt>
      <trkpt lat="46.04632" lon="5.71587">
        <ele>1183.52</ele>
        <time>2020-05-31T10:06:05Z</time>
      </trkpt>
      <trkpt lat="46.0463" lon="5.71587">
        <ele>1183.04</ele>
        <time>2020-05-31T10:06:06Z</time>
      </trkpt>
      <trkpt lat="46.04622" lon="5.7159">
        <ele>1181.6</ele>
        <time>2020-05-31T10:06:10Z</time>
      </trkpt>
      <trkpt lat="46.04619" lon="5.71589">
        <ele>1181.12</ele>
        <time>2020-05-31T10:06:11Z</time>
      </trkpt>
      <trkpt lat="46.04617" lon="5.71588">
        <ele>1180.64</ele>
        <time>2020-05-31T10:06:12Z</time>
      </trkpt>
      <trkpt lat="46.04613" lon="5.71588">
        <ele>1179.67</ele>
        <time>2020-05-31T10:06:23Z</time>
      </trkpt>
      <trkpt lat="46.04612" lon="5.71591">
        <ele>1180.64</ele>
        <time>2020-05-31T10:06:42Z</time>
      </trkpt>
      <trkpt lat="46.04608" lon="5.71594">
        <ele>1179.67</ele>
        <time>2020-05-31T10:06:44Z</time>
      </trkpt>
      <trkpt lat="46.04571" lon="5.71618">
        <ele>1175.35</ele>
        <time>2020-05-31T10:06:56Z</time>
      </trkpt>
      <trkpt lat="46.0456" lon="5.71629">
        <ele>1173.91</ele>
        <time>2020-05-31T10:07:00Z</time>
      </trkpt>
      <trkpt lat="46.04555" lon="5.71633">
        <ele>1173.43</ele>
        <time>2020-05-31T10:07:01Z</time>
      </trkpt>
      <trkpt lat="46.04551" lon="5.71637">
        <ele>1172.47</ele>
        <time>2020-05-31T10:07:02Z</time>
      </trkpt>
      <trkpt lat="46.04548" lon="5.71641">
        <ele>1172.47</ele>
        <time>2020-05-31T10:07:03Z</time>
      </trkpt>
      <trkpt lat="46.04544" lon="5.71644">
        <ele>1171.5</ele>
        <time>2020-05-31T10:07:04Z</time>
      </trkpt>
      <trkpt lat="46.0454" lon="5.71648">
        <ele>1171.02</ele>
        <time>2020-05-31T10:07:05Z</time>
      </trkpt>
      <trkpt lat="46.04535" lon="5.71652">
        <ele>1170.54</ele>
        <time>2020-05-31T10:07:06Z</time>
      </trkpt>
      <trkpt lat="46.04513" lon="5.71678">
        <ele>1170.06</ele>
        <time>2020-05-31T10:07:16Z</time>
      </trkpt>
      <trkpt lat="46.04492" lon="5.71705">
        <ele>1170.54</ele>
        <time>2020-05-31T10:07:29Z</time>
      </trkpt>
      <trkpt lat="46.04471" lon="5.7173">
        <ele>1171.98</ele>
        <time>2020-05-31T10:07:41Z</time>
      </trkpt>
      <trkpt lat="46.04436" lon="5.71757">
        <ele>1173.91</ele>
        <time>2020-05-31T10:07:54Z</time>
      </trkpt>
      <trkpt lat="46.04404" lon="5.71792">
        <ele>1177.27</ele>
        <time>2020-05-31T10:08:08Z</time>
      </trkpt>
      <trkpt lat="46.04369" lon="5.71834">
        <ele>1176.79</ele>
        <time>2020-05-31T10:08:23Z</time>
      </trkpt>
      <trkpt lat="46.04344" lon="5.71855">
        <ele>1176.31</ele>
        <time>2020-05-31T10:08:33Z</time>
      </trkpt>
      <trkpt lat="46.04314" lon="5.71907">
        <ele>1181.12</ele>
        <time>2020-05-31T10:08:48Z</time>
      </trkpt>
      <trkpt lat="46.04303" lon="5.71966">
        <ele>1183.04</ele>
        <time>2020-05-31T10:09:02Z</time>
      </trkpt>
      <trkpt lat="46.043" lon="5.72023">
        <ele>1185.92</ele>
        <time>2020-05-31T10:09:15Z</time>
      </trkpt>
      <trkpt lat="46.04293" lon="5.72071">
        <ele>1190.73</ele>
        <time>2020-05-31T10:09:29Z</time>
      </trkpt>
      <trkpt lat="46.04286" lon="5.72105">
        <ele>1194.09</ele>
        <time>2020-05-31T10:09:40Z</time>
      </trkpt>
      <trkpt lat="46.04276" lon="5.72138">
        <ele>1197.46</ele>
        <time>2020-05-31T10:09:52Z</time>
      </trkpt>
      <trkpt lat="46.04276" lon="5.7214">
        <ele>1197.94</ele>
        <time>2020-05-31T10:09:53Z</time>
      </trkpt>
      <trkpt lat="46.04277" lon="5.72142">
        <ele>1197.94</ele>
        <time>2020-05-31T10:09:54Z</time>
      </trkpt>
      <trkpt lat="46.04278" lon="5.72133">
        <ele>1198.42</ele>
        <time>2020-05-31T10:10:03Z</time>
      </trkpt>
      <trkpt lat="46.04278" lon="5.72142">
        <ele>1198.42</ele>
        <time>2020-05-31T10:10:11Z</time>
      </trkpt>
      <trkpt lat="46.04277" lon="5.72135">
        <ele>1198.42</ele>
        <time>2020-05-31T10:10:21Z</time>
      </trkpt>
      <trkpt lat="46.04275" lon="5.72137">
        <ele>1198.42</ele>
        <time>2020-05-31T10:10:23Z</time>
      </trkpt>
      <trkpt lat="46.04275" lon="5.72142">
        <ele>1197.94</ele>
        <time>2020-05-31T10:10:36Z</time>
      </trkpt>
      <trkpt lat="46.04277" lon="5.72143">
        <ele>1198.42</ele>
        <time>2020-05-31T10:11:08Z</time>
      </trkpt>
      <trkpt lat="46.04277" lon="5.72143">
        <ele>1200.82</ele>
        <time>2020-05-31T10:11:48Z</time>
      </trkpt>
      <trkpt lat="46.04276" lon="5.72145">
        <ele>1200.82</ele>
        <time>2020-05-31T10:12:09Z</time>
      </trkpt>
      <trkpt lat="46.04268" lon="5.72152">
        <ele>1200.34</ele>
        <time>2020-05-31T10:12:18Z</time>
      </trkpt>
      <trkpt lat="46.0424" lon="5.7218">
        <ele>1197.94</ele>
        <time>2020-05-31T10:12:32Z</time>
      </trkpt>
      <trkpt lat="46.04219" lon="5.72213">
        <ele>1196.98</ele>
        <time>2020-05-31T10:12:40Z</time>
      </trkpt>
      <trkpt lat="46.04213" lon="5.72224">
        <ele>1196.98</ele>
        <time>2020-05-31T10:12:42Z</time>
      </trkpt>
      <trkpt lat="46.04162" lon="5.72291">
        <ele>1195.06</ele>
        <time>2020-05-31T10:12:58Z</time>
      </trkpt>
      <trkpt lat="46.04157" lon="5.72295">
        <ele>1194.58</ele>
        <time>2020-05-31T10:12:59Z</time>
      </trkpt>
      <trkpt lat="46.04152" lon="5.72297">
        <ele>1194.09</ele>
        <time>2020-05-31T10:13:00Z</time>
      </trkpt>
      <trkpt lat="46.04147" lon="5.723">
        <ele>1194.09</ele>
        <time>2020-05-31T10:13:01Z</time>
      </trkpt>
      <trkpt lat="46.04103" lon="5.72331">
        <ele>1192.65</ele>
        <time>2020-05-31T10:13:12Z</time>
      </trkpt>
      <trkpt lat="46.04081" lon="5.72344">
        <ele>1191.69</ele>
        <time>2020-05-31T10:13:17Z</time>
      </trkpt>
      <trkpt lat="46.04011" lon="5.72349">
        <ele>1186.88</ele>
        <time>2020-05-31T10:13:29Z</time>
      </trkpt>
      <trkpt lat="46.03998" lon="5.72351">
        <ele>1186.4</ele>
        <time>2020-05-31T10:13:31Z</time>
      </trkpt>
      <trkpt lat="46.03985" lon="5.72351">
        <ele>1185.92</ele>
        <time>2020-05-31T10:13:33Z</time>
      </trkpt>
      <trkpt lat="46.03979" lon="5.72352">
        <ele>1185.44</ele>
        <time>2020-05-31T10:13:34Z</time>
      </trkpt>
      <trkpt lat="46.03974" lon="5.72353">
        <ele>1185.44</ele>
        <time>2020-05-31T10:13:35Z</time>
      </trkpt>
      <trkpt lat="46.03896" lon="5.72367">
        <ele>1182.56</ele>
        <time>2020-05-31T10:13:50Z</time>
      </trkpt>
      <trkpt lat="46.03795" lon="5.72365">
        <ele>1179.19</ele>
        <time>2020-05-31T10:14:06Z</time>
      </trkpt>
      <trkpt lat="46.03777" lon="5.72366">
        <ele>1178.71</ele>
        <time>2020-05-31T10:14:09Z</time>
      </trkpt>
      <trkpt lat="46.03772" lon="5.72366">
        <ele>1178.71</ele>
        <time>2020-05-31T10:14:10Z</time>
      </trkpt>
      <trkpt lat="46.03734" lon="5.72366">
        <ele>1178.71</ele>
        <time>2020-05-31T10:14:19Z</time>
      </trkpt>
      <trkpt lat="46.03713" lon="5.72365">
        <ele>1178.71</ele>
        <time>2020-05-31T10:14:23Z</time>
      </trkpt>
      <trkpt lat="46.03662" lon="5.7235">
        <ele>1175.35</ele>
        <time>2020-05-31T10:14:35Z</time>
      </trkpt>
      <trkpt lat="46.03658" lon="5.72346">
        <ele>1175.35</ele>
        <time>2020-05-31T10:14:38Z</time>
      </trkpt>
      <trkpt lat="46.03657" lon="5.72344">
        <ele>1175.83</ele>
        <time>2020-05-31T10:14:39Z</time>
      </trkpt>
      <trkpt lat="46.03657" lon="5.72342">
        <ele>1175.83</ele>
        <time>2020-05-31T10:14:40Z</time>
      </trkpt>
      <trkpt lat="46.03657" lon="5.7234">
        <ele>1175.35</ele>
        <time>2020-05-31T10:14:41Z</time>
      </trkpt>
      <trkpt lat="46.03656" lon="5.72337">
        <ele>1175.35</ele>
        <time>2020-05-31T10:14:45Z</time>
      </trkpt>
      <trkpt lat="46.03655" lon="5.72332">
        <ele>1174.87</ele>
        <time>2020-05-31T10:14:50Z</time>
      </trkpt>
      <trkpt lat="46.03655" lon="5.72331">
        <ele>1174.87</ele>
        <time>2020-05-31T10:14:51Z</time>
      </trkpt>
      <trkpt lat="46.03654" lon="5.72329">
        <ele>1174.39</ele>
        <time>2020-05-31T10:14:52Z</time>
      </trkpt>
      <trkpt lat="46.03654" lon="5.72327">
        <ele>1174.39</ele>
        <time>2020-05-31T10:14:53Z</time>
      </trkpt>
      <trkpt lat="46.03653" lon="5.72324">
        <ele>1173.91</ele>
        <time>2020-05-31T10:14:54Z</time>
      </trkpt>
      <trkpt lat="46.03638" lon="5.7229">
        <ele>1173.43</ele>
        <time>2020-05-31T10:15:06Z</time>
      </trkpt>
      <trkpt lat="46.0361" lon="5.72263">
        <ele>1172.47</ele>
        <time>2020-05-31T10:15:20Z</time>
      </trkpt>
      <trkpt lat="46.03599" lon="5.72259">
        <ele>1171.5</ele>
        <time>2020-05-31T10:15:25Z</time>
      </trkpt>
      <trkpt lat="46.03597" lon="5.72259">
        <ele>1171.5</ele>
        <time>2020-05-31T10:15:26Z</time>
      </trkpt>
      <trkpt lat="46.03597" lon="5.72258">
        <ele>1170.54</ele>
        <time>2020-05-31T10:15:38Z</time>
      </trkpt>
      <trkpt lat="46.03585" lon="5.7226">
        <ele>1171.02</ele>
        <time>2020-05-31T10:15:55Z</time>
      </trkpt>
      <trkpt lat="46.03552" lon="5.72273">
        <ele>1168.62</ele>
        <time>2020-05-31T10:16:05Z</time>
      </trkpt>
      <trkpt lat="46.03543" lon="5.72278">
        <ele>1168.62</ele>
        <time>2020-05-31T10:16:07Z</time>
      </trkpt>
      <trkpt lat="46.03485" lon="5.72314">
        <ele>1166.22</ele>
        <time>2020-05-31T10:16:18Z</time>
      </trkpt>
      <trkpt lat="46.0348" lon="5.72317">
        <ele>1165.74</ele>
        <time>2020-05-31T10:16:19Z</time>
      </trkpt>
      <trkpt lat="46.03462" lon="5.72327">
        <ele>1162.85</ele>
        <time>2020-05-31T10:16:23Z</time>
      </trkpt>
      <trkpt lat="46.03423" lon="5.7236">
        <ele>1157.08</ele>
        <time>2020-05-31T10:16:30Z</time>
      </trkpt>
      <trkpt lat="46.03418" lon="5.72363">
        <ele>1156.12</ele>
        <time>2020-05-31T10:16:31Z</time>
      </trkpt>
      <trkpt lat="46.03414" lon="5.72365">
        <ele>1155.64</ele>
        <time>2020-05-31T10:16:32Z</time>
      </trkpt>
      <trkpt lat="46.03411" lon="5.72365">
        <ele>1155.16</ele>
        <time>2020-05-31T10:16:33Z</time>
      </trkpt>
      <trkpt lat="46.03408" lon="5.72365">
        <ele>1154.68</ele>
        <time>2020-05-31T10:16:34Z</time>
      </trkpt>
      <trkpt lat="46.03405" lon="5.72363">
        <ele>1154.2</ele>
        <time>2020-05-31T10:16:35Z</time>
      </trkpt>
      <trkpt lat="46.03403" lon="5.72361">
        <ele>1154.2</ele>
        <time>2020-05-31T10:16:36Z</time>
      </trkpt>
      <trkpt lat="46.03402" lon="5.72359">
        <ele>1153.72</ele>
        <time>2020-05-31T10:16:37Z</time>
      </trkpt>
      <trkpt lat="46.034" lon="5.72357">
        <ele>1153.24</ele>
        <time>2020-05-31T10:16:38Z</time>
      </trkpt>
      <trkpt lat="46.03399" lon="5.72355">
        <ele>1153.24</ele>
        <time>2020-05-31T10:16:39Z</time>
      </trkpt>
      <trkpt lat="46.03398" lon="5.72355">
        <ele>1153.24</ele>
        <time>2020-05-31T10:16:40Z</time>
      </trkpt>
      <trkpt lat="46.03397" lon="5.72356">
        <ele>1152.76</ele>
        <time>2020-05-31T10:16:41Z</time>
      </trkpt>
      <trkpt lat="46.03396" lon="5.72357">
        <ele>1152.76</ele>
        <time>2020-05-31T10:16:42Z</time>
      </trkpt>
      <trkpt lat="46.03395" lon="5.7236">
        <ele>1152.76</ele>
        <time>2020-05-31T10:16:43Z</time>
      </trkpt>
      <trkpt lat="46.03394" lon="5.72363">
        <ele>1152.28</ele>
        <time>2020-05-31T10:16:44Z</time>
      </trkpt>
      <trkpt lat="46.03393" lon="5.7241">
        <ele>1151.8</ele>
        <time>2020-05-31T10:16:55Z</time>
      </trkpt>
      <trkpt lat="46.03393" lon="5.72412">
        <ele>1151.8</ele>
        <time>2020-05-31T10:16:56Z</time>
      </trkpt>
      <trkpt lat="46.03392" lon="5.72413">
        <ele>1151.8</ele>
        <time>2020-05-31T10:16:57Z</time>
      </trkpt>
      <trkpt lat="46.03391" lon="5.72412">
        <ele>1151.8</ele>
        <time>2020-05-31T10:16:58Z</time>
      </trkpt>
      <trkpt lat="46.03391" lon="5.72409">
        <ele>1152.28</ele>
        <time>2020-05-31T10:17:00Z</time>
      </trkpt>
      <trkpt lat="46.03391" lon="5.72379">
        <ele>1151.32</ele>
        <time>2020-05-31T10:17:08Z</time>
      </trkpt>
      <trkpt lat="46.03389" lon="5.72377">
        <ele>1150.84</ele>
        <time>2020-05-31T10:17:09Z</time>
      </trkpt>
      <trkpt lat="46.03387" lon="5.72377">
        <ele>1150.35</ele>
        <time>2020-05-31T10:17:10Z</time>
      </trkpt>
      <trkpt lat="46.03385" lon="5.72379">
        <ele>1149.87</ele>
        <time>2020-05-31T10:17:11Z</time>
      </trkpt>
      <trkpt lat="46.03382" lon="5.7238">
        <ele>1149.39</ele>
        <time>2020-05-31T10:17:12Z</time>
      </trkpt>
      <trkpt lat="46.03374" lon="5.72381">
        <ele>1148.43</ele>
        <time>2020-05-31T10:17:14Z</time>
      </trkpt>
      <trkpt lat="46.03299" lon="5.72373">
        <ele>1143.63</ele>
        <time>2020-05-31T10:17:27Z</time>
      </trkpt>
      <trkpt lat="46.03266" lon="5.72373">
        <ele>1142.66</ele>
        <time>2020-05-31T10:17:32Z</time>
      </trkpt>
      <trkpt lat="46.03259" lon="5.72374">
        <ele>1142.18</ele>
        <time>2020-05-31T10:17:33Z</time>
      </trkpt>
      <trkpt lat="46.03194" lon="5.72383">
        <ele>1140.74</ele>
        <time>2020-05-31T10:17:43Z</time>
      </trkpt>
      <trkpt lat="46.03189" lon="5.72384">
        <ele>1140.74</ele>
        <time>2020-05-31T10:17:44Z</time>
      </trkpt>
      <trkpt lat="46.03183" lon="5.72387">
        <ele>1140.74</ele>
        <time>2020-05-31T10:17:45Z</time>
      </trkpt>
      <trkpt lat="46.03126" lon="5.72413">
        <ele>1139.78</ele>
        <time>2020-05-31T10:17:57Z</time>
      </trkpt>
      <trkpt lat="46.03097" lon="5.72422">
        <ele>1139.78</ele>
        <time>2020-05-31T10:18:04Z</time>
      </trkpt>
      <trkpt lat="46.03089" lon="5.72426">
        <ele>1139.78</ele>
        <time>2020-05-31T10:18:06Z</time>
      </trkpt>
      <trkpt lat="46.03039" lon="5.72461">
        <ele>1140.26</ele>
        <time>2020-05-31T10:18:20Z</time>
      </trkpt>
      <trkpt lat="46.02999" lon="5.72499">
        <ele>1139.3</ele>
        <time>2020-05-31T10:18:34Z</time>
      </trkpt>
      <trkpt lat="46.02984" lon="5.72511">
        <ele>1138.34</ele>
        <time>2020-05-31T10:18:38Z</time>
      </trkpt>
      <trkpt lat="46.02976" lon="5.72518">
        <ele>1137.86</ele>
        <time>2020-05-31T10:18:40Z</time>
      </trkpt>
      <trkpt lat="46.02972" lon="5.72522">
        <ele>1137.38</ele>
        <time>2020-05-31T10:18:41Z</time>
      </trkpt>
      <trkpt lat="46.02948" lon="5.72542">
        <ele>1134.97</ele>
        <time>2020-05-31T10:18:47Z</time>
      </trkpt>
      <trkpt lat="46.02933" lon="5.72564">
        <ele>1133.05</ele>
        <time>2020-05-31T10:18:51Z</time>
      </trkpt>
      <trkpt lat="46.02894" lon="5.7265">
        <ele>1127.76</ele>
        <time>2020-05-31T10:19:04Z</time>
      </trkpt>
      <trkpt lat="46.02891" lon="5.72657">
        <ele>1127.28</ele>
        <time>2020-05-31T10:19:07Z</time>
      </trkpt>
      <trkpt lat="46.02891" lon="5.72661">
        <ele>1127.76</ele>
        <time>2020-05-31T10:19:17Z</time>
      </trkpt>
      <trkpt lat="46.02888" lon="5.72663">
        <ele>1127.28</ele>
        <time>2020-05-31T10:19:32Z</time>
      </trkpt>
      <trkpt lat="46.02886" lon="5.72664">
        <ele>1126.32</ele>
        <time>2020-05-31T10:19:53Z</time>
      </trkpt>
      <trkpt lat="46.02884" lon="5.72665">
        <ele>1126.32</ele>
        <time>2020-05-31T10:19:54Z</time>
      </trkpt>
      <trkpt lat="46.02882" lon="5.72666">
        <ele>1126.32</ele>
        <time>2020-05-31T10:19:55Z</time>
      </trkpt>
      <trkpt lat="46.02851" lon="5.72694">
        <ele>1124.88</ele>
        <time>2020-05-31T10:20:05Z</time>
      </trkpt>
      <trkpt lat="46.02847" lon="5.72697">
        <ele>1124.88</ele>
        <time>2020-05-31T10:20:06Z</time>
      </trkpt>
      <trkpt lat="46.02807" lon="5.72727">
        <ele>1125.36</ele>
        <time>2020-05-31T10:20:18Z</time>
      </trkpt>
      <trkpt lat="46.02777" lon="5.7274">
        <ele>1126.8</ele>
        <time>2020-05-31T10:20:31Z</time>
      </trkpt>
      <trkpt lat="46.02744" lon="5.72755">
        <ele>1128.73</ele>
        <time>2020-05-31T10:20:45Z</time>
      </trkpt>
      <trkpt lat="46.02731" lon="5.72764">
        <ele>1129.69</ele>
        <time>2020-05-31T10:20:55Z</time>
      </trkpt>
      <trkpt lat="46.02702" lon="5.72788">
        <ele>1130.65</ele>
        <time>2020-05-31T10:21:08Z</time>
      </trkpt>
      <trkpt lat="46.02676" lon="5.72808">
        <ele>1130.17</ele>
        <time>2020-05-31T10:21:21Z</time>
      </trkpt>
      <trkpt lat="46.02651" lon="5.72826">
        <ele>1131.61</ele>
        <time>2020-05-31T10:21:34Z</time>
      </trkpt>
      <trkpt lat="46.02623" lon="5.72853">
        <ele>1132.57</ele>
        <time>2020-05-31T10:21:50Z</time>
      </trkpt>
      <trkpt lat="46.026" lon="5.72878">
        <ele>1135.94</ele>
        <time>2020-05-31T10:22:03Z</time>
      </trkpt>
      <trkpt lat="46.02582" lon="5.72909">
        <ele>1142.66</ele>
        <time>2020-05-31T10:22:18Z</time>
      </trkpt>
      <trkpt lat="46.02574" lon="5.72947">
        <ele>1146.51</ele>
        <time>2020-05-31T10:22:29Z</time>
      </trkpt>
      <trkpt lat="46.02573" lon="5.72951">
        <ele>1145.07</ele>
        <time>2020-05-31T10:22:43Z</time>
      </trkpt>
      <trkpt lat="46.02568" lon="5.72947">
        <ele>1147.47</ele>
        <time>2020-05-31T10:23:15Z</time>
      </trkpt>
      <trkpt lat="46.02565" lon="5.72957">
        <ele>1147.95</ele>
        <time>2020-05-31T10:23:37Z</time>
      </trkpt>
      <trkpt lat="46.02562" lon="5.72977">
        <ele>1144.59</ele>
        <time>2020-05-31T10:23:42Z</time>
      </trkpt>
      <trkpt lat="46.02564" lon="5.73003">
        <ele>1141.7</ele>
        <time>2020-05-31T10:23:48Z</time>
      </trkpt>
      <trkpt lat="46.02572" lon="5.73026">
        <ele>1139.3</ele>
        <time>2020-05-31T10:23:54Z</time>
      </trkpt>
      <trkpt lat="46.02578" lon="5.73065">
        <ele>1138.34</ele>
        <time>2020-05-31T10:24:02Z</time>
      </trkpt>
      <trkpt lat="46.0258" lon="5.73067">
        <ele>1138.34</ele>
        <time>2020-05-31T10:24:03Z</time>
      </trkpt>
      <trkpt lat="46.02582" lon="5.73069">
        <ele>1138.34</ele>
        <time>2020-05-31T10:24:04Z</time>
      </trkpt>
      <trkpt lat="46.02584" lon="5.73069">
        <ele>1138.34</ele>
        <time>2020-05-31T10:24:05Z</time>
      </trkpt>
      <trkpt lat="46.02587" lon="5.73069">
        <ele>1138.34</ele>
        <time>2020-05-31T10:24:06Z</time>
      </trkpt>
      <trkpt lat="46.02597" lon="5.73072">
        <ele>1137.38</ele>
        <time>2020-05-31T10:24:10Z</time>
      </trkpt>
      <trkpt lat="46.02598" lon="5.73074">
        <ele>1137.38</ele>
        <time>2020-05-31T10:24:11Z</time>
      </trkpt>
      <trkpt lat="46.02597" lon="5.73076">
        <ele>1137.38</ele>
        <time>2020-05-31T10:24:21Z</time>
      </trkpt>
      <trkpt lat="46.02596" lon="5.73075">
        <ele>1137.38</ele>
        <time>2020-05-31T10:24:22Z</time>
      </trkpt>
      <trkpt lat="46.02594" lon="5.73075">
        <ele>1136.9</ele>
        <time>2020-05-31T10:24:23Z</time>
      </trkpt>
      <trkpt lat="46.02593" lon="5.73074">
        <ele>1136.9</ele>
        <time>2020-05-31T10:24:24Z</time>
      </trkpt>
      <trkpt lat="46.02591" lon="5.73073">
        <ele>1136.9</ele>
        <time>2020-05-31T10:24:25Z</time>
      </trkpt>
      <trkpt lat="46.02589" lon="5.73072">
        <ele>1136.9</ele>
        <time>2020-05-31T10:24:26Z</time>
      </trkpt>
      <trkpt lat="46.02567" lon="5.7308">
        <ele>1137.38</ele>
        <time>2020-05-31T10:24:35Z</time>
      </trkpt>
      <trkpt lat="46.02542" lon="5.73105">
        <ele>1137.38</ele>
        <time>2020-05-31T10:24:48Z</time>
      </trkpt>
      <trkpt lat="46.02539" lon="5.73107">
        <ele>1137.86</ele>
        <time>2020-05-31T10:24:51Z</time>
      </trkpt>
      <trkpt lat="46.02538" lon="5.73107">
        <ele>1137.38</ele>
        <time>2020-05-31T10:24:52Z</time>
      </trkpt>
      <trkpt lat="46.02533" lon="5.73111">
        <ele>1137.86</ele>
        <time>2020-05-31T10:24:57Z</time>
      </trkpt>
      <trkpt lat="46.02532" lon="5.73112">
        <ele>1137.86</ele>
        <time>2020-05-31T10:24:58Z</time>
      </trkpt>
      <trkpt lat="46.02531" lon="5.73113">
        <ele>1137.38</ele>
        <time>2020-05-31T10:24:59Z</time>
      </trkpt>
      <trkpt lat="46.02529" lon="5.73114">
        <ele>1136.9</ele>
        <time>2020-05-31T10:25:00Z</time>
      </trkpt>
      <trkpt lat="46.02528" lon="5.73115">
        <ele>1136.9</ele>
        <time>2020-05-31T10:25:01Z</time>
      </trkpt>
      <trkpt lat="46.02527" lon="5.73116">
        <ele>1136.9</ele>
        <time>2020-05-31T10:25:02Z</time>
      </trkpt>
      <trkpt lat="46.02499" lon="5.73131">
        <ele>1136.9</ele>
        <time>2020-05-31T10:25:13Z</time>
      </trkpt>
      <trkpt lat="46.02456" lon="5.73149">
        <ele>1135.45</ele>
        <time>2020-05-31T10:25:25Z</time>
      </trkpt>
      <trkpt lat="46.02451" lon="5.73148">
        <ele>1135.45</ele>
        <time>2020-05-31T10:25:26Z</time>
      </trkpt>
      <trkpt lat="46.02439" lon="5.73145">
        <ele>1133.53</ele>
        <time>2020-05-31T10:25:29Z</time>
      </trkpt>
      <trkpt lat="46.02434" lon="5.73145">
        <ele>1133.05</ele>
        <time>2020-05-31T10:25:30Z</time>
      </trkpt>
      <trkpt lat="46.0243" lon="5.73147">
        <ele>1133.05</ele>
        <time>2020-05-31T10:25:31Z</time>
      </trkpt>
      <trkpt lat="46.02425" lon="5.73149">
        <ele>1132.57</ele>
        <time>2020-05-31T10:25:32Z</time>
      </trkpt>
      <trkpt lat="46.0242" lon="5.73151">
        <ele>1132.57</ele>
        <time>2020-05-31T10:25:33Z</time>
      </trkpt>
      <trkpt lat="46.02414" lon="5.73154">
        <ele>1132.09</ele>
        <time>2020-05-31T10:25:34Z</time>
      </trkpt>
      <trkpt lat="46.02409" lon="5.73157">
        <ele>1131.61</ele>
        <time>2020-05-31T10:25:35Z</time>
      </trkpt>
      <trkpt lat="46.02398" lon="5.73162">
        <ele>1131.13</ele>
        <time>2020-05-31T10:25:37Z</time>
      </trkpt>
      <trkpt lat="46.02392" lon="5.73162">
        <ele>1131.13</ele>
        <time>2020-05-31T10:25:38Z</time>
      </trkpt>
      <trkpt lat="46.02354" lon="5.73161">
        <ele>1133.05</ele>
        <time>2020-05-31T10:25:45Z</time>
      </trkpt>
      <trkpt lat="46.02329" lon="5.73165">
        <ele>1133.53</ele>
        <time>2020-05-31T10:25:50Z</time>
      </trkpt>
      <trkpt lat="46.02325" lon="5.73168">
        <ele>1134.01</ele>
        <time>2020-05-31T10:25:51Z</time>
      </trkpt>
      <trkpt lat="46.0232" lon="5.73171">
        <ele>1134.01</ele>
        <time>2020-05-31T10:25:52Z</time>
      </trkpt>
      <trkpt lat="46.02305" lon="5.73185">
        <ele>1134.01</ele>
        <time>2020-05-31T10:25:56Z</time>
      </trkpt>
      <trkpt lat="46.02301" lon="5.73189">
        <ele>1134.01</ele>
        <time>2020-05-31T10:25:57Z</time>
      </trkpt>
      <trkpt lat="46.02253" lon="5.73228">
        <ele>1132.57</ele>
        <time>2020-05-31T10:26:05Z</time>
      </trkpt>
      <trkpt lat="46.02247" lon="5.73236">
        <ele>1132.57</ele>
        <time>2020-05-31T10:26:06Z</time>
      </trkpt>
      <trkpt lat="46.0222" lon="5.73274">
        <ele>1133.05</ele>
        <time>2020-05-31T10:26:12Z</time>
      </trkpt>
      <trkpt lat="46.02209" lon="5.73293">
        <ele>1134.01</ele>
        <time>2020-05-31T10:26:15Z</time>
      </trkpt>
      <trkpt lat="46.02205" lon="5.73298">
        <ele>1134.01</ele>
        <time>2020-05-31T10:26:16Z</time>
      </trkpt>
      <trkpt lat="46.022" lon="5.73304">
        <ele>1134.49</ele>
        <time>2020-05-31T10:26:17Z</time>
      </trkpt>
      <trkpt lat="46.02188" lon="5.73323">
        <ele>1134.97</ele>
        <time>2020-05-31T10:26:20Z</time>
      </trkpt>
      <trkpt lat="46.02162" lon="5.73384">
        <ele>1137.38</ele>
        <time>2020-05-31T10:26:29Z</time>
      </trkpt>
      <trkpt lat="46.0216" lon="5.73393">
        <ele>1137.38</ele>
        <time>2020-05-31T10:26:30Z</time>
      </trkpt>
      <trkpt lat="46.02159" lon="5.73403">
        <ele>1137.38</ele>
        <time>2020-05-31T10:26:31Z</time>
      </trkpt>
      <trkpt lat="46.02158" lon="5.73413">
        <ele>1137.38</ele>
        <time>2020-05-31T10:26:32Z</time>
      </trkpt>
      <trkpt lat="46.02157" lon="5.73424">
        <ele>1136.9</ele>
        <time>2020-05-31T10:26:33Z</time>
      </trkpt>
      <trkpt lat="46.0215" lon="5.73487">
        <ele>1134.49</ele>
        <time>2020-05-31T10:26:38Z</time>
      </trkpt>
      <trkpt lat="46.02136" lon="5.73586">
        <ele>1127.76</ele>
        <time>2020-05-31T10:26:48Z</time>
      </trkpt>
      <trkpt lat="46.02137" lon="5.73607">
        <ele>1126.32</ele>
        <time>2020-05-31T10:26:54Z</time>
      </trkpt>
      <trkpt lat="46.02138" lon="5.7361">
        <ele>1126.8</ele>
        <time>2020-05-31T10:27:05Z</time>
      </trkpt>
      <trkpt lat="46.02139" lon="5.73611">
        <ele>1127.76</ele>
        <time>2020-05-31T10:27:23Z</time>
      </trkpt>
      <trkpt lat="46.0213" lon="5.73624">
        <ele>1126.32</ele>
        <time>2020-05-31T10:27:37Z</time>
      </trkpt>
      <trkpt lat="46.02097" lon="5.73709">
        <ele>1119.59</ele>
        <time>2020-05-31T10:27:46Z</time>
      </trkpt>
      <trkpt lat="46.0209" lon="5.73735">
        <ele>1117.67</ele>
        <time>2020-05-31T10:27:48Z</time>
      </trkpt>
      <trkpt lat="46.02085" lon="5.73747">
        <ele>1116.71</ele>
        <time>2020-05-31T10:27:49Z</time>
      </trkpt>
      <trkpt lat="46.0208" lon="5.73758">
        <ele>1115.75</ele>
        <time>2020-05-31T10:27:50Z</time>
      </trkpt>
      <trkpt lat="46.02064" lon="5.73791">
        <ele>1112.86</ele>
        <time>2020-05-31T10:27:53Z</time>
      </trkpt>
      <trkpt lat="46.02061" lon="5.73803">
        <ele>1111.9</ele>
        <time>2020-05-31T10:27:54Z</time>
      </trkpt>
      <trkpt lat="46.02058" lon="5.73816">
        <ele>1110.94</ele>
        <time>2020-05-31T10:27:55Z</time>
      </trkpt>
      <trkpt lat="46.02038" lon="5.7394">
        <ele>1105.65</ele>
        <time>2020-05-31T10:28:05Z</time>
      </trkpt>
      <trkpt lat="46.02035" lon="5.7395">
        <ele>1105.17</ele>
        <time>2020-05-31T10:28:06Z</time>
      </trkpt>
      <trkpt lat="46.02031" lon="5.73959">
        <ele>1104.69</ele>
        <time>2020-05-31T10:28:07Z</time>
      </trkpt>
      <trkpt lat="46.02027" lon="5.73967">
        <ele>1104.69</ele>
        <time>2020-05-31T10:28:08Z</time>
      </trkpt>
      <trkpt lat="46.02022" lon="5.73973">
        <ele>1104.21</ele>
        <time>2020-05-31T10:28:09Z</time>
      </trkpt>
      <trkpt lat="46.02016" lon="5.73979">
        <ele>1103.73</ele>
        <time>2020-05-31T10:28:10Z</time>
      </trkpt>
      <trkpt lat="46.0198" lon="5.74018">
        <ele>1100.85</ele>
        <time>2020-05-31T10:28:16Z</time>
      </trkpt>
      <trkpt lat="46.01919" lon="5.74107">
        <ele>1097</ele>
        <time>2020-05-31T10:28:27Z</time>
      </trkpt>
      <trkpt lat="46.019" lon="5.74125">
        <ele>1096.52</ele>
        <time>2020-05-31T10:28:30Z</time>
      </trkpt>
      <trkpt lat="46.01893" lon="5.74129">
        <ele>1096.04</ele>
        <time>2020-05-31T10:28:31Z</time>
      </trkpt>
      <trkpt lat="46.01818" lon="5.74155">
        <ele>1087.39</ele>
        <time>2020-05-31T10:28:42Z</time>
      </trkpt>
      <trkpt lat="46.01811" lon="5.74155">
        <ele>1086.43</ele>
        <time>2020-05-31T10:28:43Z</time>
      </trkpt>
      <trkpt lat="46.01803" lon="5.74153">
        <ele>1085.47</ele>
        <time>2020-05-31T10:28:44Z</time>
      </trkpt>
      <trkpt lat="46.01797" lon="5.74151">
        <ele>1084.99</ele>
        <time>2020-05-31T10:28:45Z</time>
      </trkpt>
      <trkpt lat="46.0179" lon="5.74151">
        <ele>1084.02</ele>
        <time>2020-05-31T10:28:46Z</time>
      </trkpt>
      <trkpt lat="46.01781" lon="5.74152">
        <ele>1083.06</ele>
        <time>2020-05-31T10:28:47Z</time>
      </trkpt>
      <trkpt lat="46.01774" lon="5.74155">
        <ele>1082.1</ele>
        <time>2020-05-31T10:28:48Z</time>
      </trkpt>
      <trkpt lat="46.01766" lon="5.74161">
        <ele>1081.62</ele>
        <time>2020-05-31T10:28:49Z</time>
      </trkpt>
      <trkpt lat="46.01759" lon="5.74169">
        <ele>1081.14</ele>
        <time>2020-05-31T10:28:50Z</time>
      </trkpt>
      <trkpt lat="46.01752" lon="5.74178">
        <ele>1080.66</ele>
        <time>2020-05-31T10:28:51Z</time>
      </trkpt>
      <trkpt lat="46.01746" lon="5.74188">
        <ele>1080.18</ele>
        <time>2020-05-31T10:28:52Z</time>
      </trkpt>
      <trkpt lat="46.0174" lon="5.74197">
        <ele>1080.18</ele>
        <time>2020-05-31T10:28:53Z</time>
      </trkpt>
      <trkpt lat="46.01736" lon="5.74207">
        <ele>1079.7</ele>
        <time>2020-05-31T10:28:54Z</time>
      </trkpt>
      <trkpt lat="46.01732" lon="5.74217">
        <ele>1079.7</ele>
        <time>2020-05-31T10:28:55Z</time>
      </trkpt>
      <trkpt lat="46.01728" lon="5.74227">
        <ele>1079.7</ele>
        <time>2020-05-31T10:28:56Z</time>
      </trkpt>
      <trkpt lat="46.01725" lon="5.74238">
        <ele>1079.7</ele>
        <time>2020-05-31T10:28:57Z</time>
      </trkpt>
      <trkpt lat="46.01722" lon="5.74248">
        <ele>1079.7</ele>
        <time>2020-05-31T10:28:58Z</time>
      </trkpt>
      <trkpt lat="46.01704" lon="5.74311">
        <ele>1079.7</ele>
        <time>2020-05-31T10:29:05Z</time>
      </trkpt>
      <trkpt lat="46.01698" lon="5.74325">
        <ele>1079.22</ele>
        <time>2020-05-31T10:29:07Z</time>
      </trkpt>
      <trkpt lat="46.01695" lon="5.74331">
        <ele>1079.22</ele>
        <time>2020-05-31T10:29:08Z</time>
      </trkpt>
      <trkpt lat="46.01691" lon="5.74335">
        <ele>1079.22</ele>
        <time>2020-05-31T10:29:09Z</time>
      </trkpt>
      <trkpt lat="46.01687" lon="5.74339">
        <ele>1079.22</ele>
        <time>2020-05-31T10:29:10Z</time>
      </trkpt>
      <trkpt lat="46.01682" lon="5.74341">
        <ele>1078.74</ele>
        <time>2020-05-31T10:29:11Z</time>
      </trkpt>
      <trkpt lat="46.01676" lon="5.74344">
        <ele>1078.74</ele>
        <time>2020-05-31T10:29:12Z</time>
      </trkpt>
      <trkpt lat="46.0167" lon="5.74347">
        <ele>1078.26</ele>
        <time>2020-05-31T10:29:13Z</time>
      </trkpt>
      <trkpt lat="46.01604" lon="5.74384">
        <ele>1074.89</ele>
        <time>2020-05-31T10:29:22Z</time>
      </trkpt>
      <trkpt lat="46.0159" lon="5.74391">
        <ele>1073.93</ele>
        <time>2020-05-31T10:29:24Z</time>
      </trkpt>
      <trkpt lat="46.01513" lon="5.74403">
        <ele>1064.32</ele>
        <time>2020-05-31T10:29:34Z</time>
      </trkpt>
      <trkpt lat="46.01506" lon="5.74404">
        <ele>1063.36</ele>
        <time>2020-05-31T10:29:35Z</time>
      </trkpt>
      <trkpt lat="46.01499" lon="5.74406">
        <ele>1062.39</ele>
        <time>2020-05-31T10:29:36Z</time>
      </trkpt>
      <trkpt lat="46.01492" lon="5.74409">
        <ele>1061.43</ele>
        <time>2020-05-31T10:29:37Z</time>
      </trkpt>
      <trkpt lat="46.01485" lon="5.74412">
        <ele>1060.47</ele>
        <time>2020-05-31T10:29:38Z</time>
      </trkpt>
      <trkpt lat="46.01477" lon="5.74414">
        <ele>1059.51</ele>
        <time>2020-05-31T10:29:39Z</time>
      </trkpt>
      <trkpt lat="46.0147" lon="5.74414">
        <ele>1058.55</ele>
        <time>2020-05-31T10:29:40Z</time>
      </trkpt>
      <trkpt lat="46.01462" lon="5.74412">
        <ele>1057.11</ele>
        <time>2020-05-31T10:29:41Z</time>
      </trkpt>
      <trkpt lat="46.01455" lon="5.74411">
        <ele>1056.15</ele>
        <time>2020-05-31T10:29:42Z</time>
      </trkpt>
      <trkpt lat="46.01449" lon="5.7441">
        <ele>1055.18</ele>
        <time>2020-05-31T10:29:43Z</time>
      </trkpt>
      <trkpt lat="46.01442" lon="5.74412">
        <ele>1054.22</ele>
        <time>2020-05-31T10:29:44Z</time>
      </trkpt>
      <trkpt lat="46.01434" lon="5.74417">
        <ele>1053.26</ele>
        <time>2020-05-31T10:29:45Z</time>
      </trkpt>
      <trkpt lat="46.01385" lon="5.74449">
        <ele>1047.01</ele>
        <time>2020-05-31T10:29:51Z</time>
      </trkpt>
      <trkpt lat="46.01375" lon="5.74452">
        <ele>1045.57</ele>
        <time>2020-05-31T10:29:52Z</time>
      </trkpt>
      <trkpt lat="46.01365" lon="5.74455">
        <ele>1044.61</ele>
        <time>2020-05-31T10:29:53Z</time>
      </trkpt>
      <trkpt lat="46.01355" lon="5.74455">
        <ele>1043.65</ele>
        <time>2020-05-31T10:29:54Z</time>
      </trkpt>
      <trkpt lat="46.01345" lon="5.74456">
        <ele>1042.69</ele>
        <time>2020-05-31T10:29:55Z</time>
      </trkpt>
      <trkpt lat="46.01277" lon="5.74454">
        <ele>1033.55</ele>
        <time>2020-05-31T10:30:04Z</time>
      </trkpt>
      <trkpt lat="46.01216" lon="5.7446">
        <ele>1027.31</ele>
        <time>2020-05-31T10:30:11Z</time>
      </trkpt>
      <trkpt lat="46.01208" lon="5.74464">
        <ele>1026.34</ele>
        <time>2020-05-31T10:30:12Z</time>
      </trkpt>
      <trkpt lat="46.01199" lon="5.74471">
        <ele>1025.86</ele>
        <time>2020-05-31T10:30:13Z</time>
      </trkpt>
      <trkpt lat="46.01175" lon="5.74492">
        <ele>1022.98</ele>
        <time>2020-05-31T10:30:16Z</time>
      </trkpt>
      <trkpt lat="46.01167" lon="5.74496">
        <ele>1022.02</ele>
        <time>2020-05-31T10:30:17Z</time>
      </trkpt>
      <trkpt lat="46.01159" lon="5.74499">
        <ele>1021.06</ele>
        <time>2020-05-31T10:30:18Z</time>
      </trkpt>
      <trkpt lat="46.0115" lon="5.74501">
        <ele>1020.58</ele>
        <time>2020-05-31T10:30:19Z</time>
      </trkpt>
      <trkpt lat="46.01143" lon="5.74502">
        <ele>1019.62</ele>
        <time>2020-05-31T10:30:20Z</time>
      </trkpt>
      <trkpt lat="46.01136" lon="5.74505">
        <ele>1018.65</ele>
        <time>2020-05-31T10:30:21Z</time>
      </trkpt>
      <trkpt lat="46.01129" lon="5.74509">
        <ele>1018.17</ele>
        <time>2020-05-31T10:30:22Z</time>
      </trkpt>
      <trkpt lat="46.01123" lon="5.74514">
        <ele>1017.21</ele>
        <time>2020-05-31T10:30:23Z</time>
      </trkpt>
      <trkpt lat="46.01103" lon="5.74533">
        <ele>1014.81</ele>
        <time>2020-05-31T10:30:26Z</time>
      </trkpt>
      <trkpt lat="46.01091" lon="5.74551">
        <ele>1012.89</ele>
        <time>2020-05-31T10:30:28Z</time>
      </trkpt>
      <trkpt lat="46.01076" lon="5.74582">
        <ele>1010</ele>
        <time>2020-05-31T10:30:31Z</time>
      </trkpt>
      <trkpt lat="46.01071" lon="5.74591">
        <ele>1009.04</ele>
        <time>2020-05-31T10:30:32Z</time>
      </trkpt>
      <trkpt lat="46.01065" lon="5.74597">
        <ele>1008.56</ele>
        <time>2020-05-31T10:30:33Z</time>
      </trkpt>
      <trkpt lat="46.01059" lon="5.74604">
        <ele>1007.6</ele>
        <time>2020-05-31T10:30:34Z</time>
      </trkpt>
      <trkpt lat="46.01052" lon="5.7461">
        <ele>1006.64</ele>
        <time>2020-05-31T10:30:35Z</time>
      </trkpt>
      <trkpt lat="46.0104" lon="5.74622">
        <ele>1005.68</ele>
        <time>2020-05-31T10:30:37Z</time>
      </trkpt>
      <trkpt lat="46.01035" lon="5.74629">
        <ele>1004.72</ele>
        <time>2020-05-31T10:30:38Z</time>
      </trkpt>
      <trkpt lat="46.01026" lon="5.74644">
        <ele>1003.27</ele>
        <time>2020-05-31T10:30:40Z</time>
      </trkpt>
      <trkpt lat="46.01023" lon="5.74655">
        <ele>1002.31</ele>
        <time>2020-05-31T10:30:41Z</time>
      </trkpt>
      <trkpt lat="46.0102" lon="5.74666">
        <ele>1001.35</ele>
        <time>2020-05-31T10:30:42Z</time>
      </trkpt>
      <trkpt lat="46.01017" lon="5.74678">
        <ele>1000.87</ele>
        <time>2020-05-31T10:30:43Z</time>
      </trkpt>
      <trkpt lat="46.01013" lon="5.74688">
        <ele>1000.87</ele>
        <time>2020-05-31T10:30:44Z</time>
      </trkpt>
      <trkpt lat="46.01008" lon="5.74697">
        <ele>1001.35</ele>
        <time>2020-05-31T10:30:45Z</time>
      </trkpt>
      <trkpt lat="46.01001" lon="5.74704">
        <ele>1001.83</ele>
        <time>2020-05-31T10:30:46Z</time>
      </trkpt>
      <trkpt lat="46.00994" lon="5.74709">
        <ele>1002.31</ele>
        <time>2020-05-31T10:30:47Z</time>
      </trkpt>
      <trkpt lat="46.00988" lon="5.74714">
        <ele>1002.79</ele>
        <time>2020-05-31T10:30:48Z</time>
      </trkpt>
      <trkpt lat="46.00982" lon="5.74718">
        <ele>1002.79</ele>
        <time>2020-05-31T10:30:49Z</time>
      </trkpt>
      <trkpt lat="46.00952" lon="5.74733">
        <ele>1004.23</ele>
        <time>2020-05-31T10:30:54Z</time>
      </trkpt>
      <trkpt lat="46.00948" lon="5.74734">
        <ele>1004.72</ele>
        <time>2020-05-31T10:30:55Z</time>
      </trkpt>
      <trkpt lat="46.00944" lon="5.74735">
        <ele>1005.2</ele>
        <time>2020-05-31T10:30:56Z</time>
      </trkpt>
      <trkpt lat="46.00941" lon="5.74737">
        <ele>1006.16</ele>
        <time>2020-05-31T10:30:57Z</time>
      </trkpt>
      <trkpt lat="46.00939" lon="5.74736">
        <ele>1006.64</ele>
        <time>2020-05-31T10:30:58Z</time>
      </trkpt>
      <trkpt lat="46.00937" lon="5.74735">
        <ele>1008.56</ele>
        <time>2020-05-31T10:30:59Z</time>
      </trkpt>
      <trkpt lat="46.00935" lon="5.74736">
        <ele>1014.33</ele>
        <time>2020-05-31T10:31:13Z</time>
      </trkpt>
      <trkpt lat="46.00934" lon="5.74735">
        <ele>1018.17</ele>
        <time>2020-05-31T10:31:41Z</time>
      </trkpt>
      <trkpt lat="46.00933" lon="5.74735">
        <ele>1018.65</ele>
        <time>2020-05-31T10:31:45Z</time>
      </trkpt>
    </trkseg>
  </trk>
</gpx>